     2              OBSERVATION DATA    GPS                 RINEX VERSION / TYPE
teqc 2002Apr3 20041109 01:32:57UTC                          PGM / RUN BY / DATE
                                                            COMMENT
L2: 1 -> 1; 5 -> 5; 60 -> 9                                 COMMENT
L2: 1 -> 1; 5 -> 5; 60 -> 9                                 COMMENT
L2: 1 -> 1; 5 -> 5; 60 -> 9                                 COMMENT
L2: 1 -> 1; 5 -> 5; 60 -> 9                                 COMMENT
L2: 1 -> 1; 5 -> 5; 60 -> 9                                 COMMENT
Original Marker Name: 7368                                  COMMENT
Campaign Name: CSRC/Caltrans post-San Simeon                COMMENT
4-Character Station Name: 05LL                              COMMENT
6-Character Antenna Code: TRZEPH                            COMMENT
Vertical Measurement Point: BPA                             COMMENT
Vertical Offset to Rinex Ref. Point: 0.0000                 COMMENT
Radial Measurement Point: RRP                               COMMENT
Radial Offset to Rinex Ref. Point: 0.0000                   COMMENT
Antenna Height from Field Measurement: 2.0000 m             COMMENT
Original XYZ: -2652434.2899 -4466106.3682 3689194.3427      COMMENT
New XYZ position is based on association with SCEC monument COMMENT
E1F1B1O7+0011. Position of that monument is believed to be  COMMENT
valid to within 1 m horizontally; vertical accuracy         COMMENT
should be no worse than 3-times this value.                 COMMENT
                                                            COMMENT
Revised Rinex header created by UCSD GPS archive for        COMMENT
GSAC on 11-Feb-2005 (2005:042) 22:03:42 GMT                 COMMENT
For assistance contact dagnew@ucsd.edu                      COMMENT
or anderson@python.ucsd.edu                                 COMMENT
                                                            COMMENT
CA 05LL                                                     MARKER NAME
7368                                                        MARKER NUMBER
K. A. Forsberg CALIF DEPT TRANSPORTATION DISTRICT 5         OBSERVER / AGENCY
0220247368 TRIMBLE 5700 NP 2.01 / SP 0.00                   REC # / TYPE / VERS
12200350 TRM41249.00                                        ANT # / TYPE
 -2652433.0000 -4466104.0000  3689192.0000                  APPROX POSITION XYZ
        2.0000        0.0000        0.0000                  ANTENNA: DELTA H/E/N
     1     1     0                                          WAVELENGTH FACT L1/2
     7    C1    L1    L2    P1    P2    S1    S2            # / TYPES OF OBSERV
     0                                                      INTERVAL
  2004     7    15    15    18   30.000000                  TIME OF FIRST OBS
  2004     7    15    21     0   30.000000                  TIME OF LAST OBS
                                                            END OF HEADER
 04  7 15 15 18 30.0000000  0  9G 3G 6G14G15G16G18G21G22G26
  22723411.9304    -548961.32449   -403527.19947                  22723411.4704
        46.7504         31.2504
  23351999.8104      37077.17249     22686.76247                  23352000.9284
        45.0004         28.2504
  23962561.0074    -647406.88749   -469261.60946                  23962561.0774
        43.7504         22.5004
  21156231.1084    -491427.62949   -361799.55547                  21156230.2134
        50.5004         39.0004
  24040650.7644    -112791.64849    -85418.92646                  24040649.8724
        40.7504         22.5004
  20573997.5054    -236257.68049   -175586.82048                  20573995.4674
        49.7504         41.2504
  20749744.2514    -246497.57449   -184887.62548                  20749741.6164
        51.2504         41.2504
  20927659.2314    -418317.75849   -307472.37148                  20927656.0384
        52.0004         41.0004
  23557367.9064      -6420.75449     -9090.06647                  23557367.8184
        45.2504         26.0004
 04  7 15 15 18 45.0000000  0  9G 3G 6G14G15G16G18G21G22G26
  22707666.4954    -631705.53949   -468003.20347                  22707665.2264
        44.2504         32.0004
  23353075.9614      42733.91449     27094.53547                  23353077.5684
        46.2504         29.2504
  23942940.0424    -750514.63349   -549605.30546                  23942940.4304
        42.7504         23.0004
  21142127.8884    -565540.77749   -419550.05548                  21142127.4674
        49.7504         39.5004
  24037259.7984    -130608.28549    -99302.08246                  24037259.4694
        40.5004         22.0004
  20567261.5174    -271655.04749   -203169.19548                  20567259.5624
        50.5004         41.2504
  20742708.2944    -283470.19149   -213697.48848                  20742705.9204
        51.0004         40.5004
  20915714.0274    -481089.97349   -356385.78548                  20915710.7714
        51.5004         41.0004
  23557228.0484      -7154.43049     -9661.80547                  23557228.3344
        45.2504         27.2504
 04  7 15 15 19  0.0000000  0  9G 3G 6G14G15G16G18G21G22G26
  22691941.1514    -714341.80949   -532395.10947                  22691940.7064
        45.5004         32.0004
  23354162.6184      48443.40249     31543.36347                  23354163.8654
        45.0004         28.2504
  23923325.1824    -853592.48849   -629925.71546                  23923325.3374
        43.2504         23.5004
  21128034.7574    -639601.69149   -477259.86348                  21128033.5504
        50.2504         39.5004
  24033884.6154    -148346.78949   -113124.35246                  24033884.2804
        39.2504         21.7504
  20560543.2234    -306961.43749   -230680.68048                  20560541.1134
        50.2504         41.2504
  20735688.0004    -320362.32049   -242444.62148                  20735685.4384
        51.0004         41.0004
  20903787.8774    -543762.09449   -405221.20348                  20903785.1144
        52.0004         41.2504
  23557109.3164      -7779.70749    -10149.09847                  23557109.2314
        44.7504         27.5004
 04  7 15 15 19 15.0000000  0  9G 3G 6G14G15G16G18G21G22G26
  22676237.2914    -796866.73449   -596700.25447                  22676236.8114
        45.2504         31.5004
  23355259.4534      54208.44549     36035.51647                  23355260.7414
        44.7504         27.0004
  23903716.1664    -956637.06649   -710220.19146                  23903717.0624
        43.5004         25.5004
  21113951.5724    -713607.14849   -534926.45747                  21113950.9214
        50.7504         39.0004
  24030524.5584    -166004.44549   -126883.62946                  24030523.2304
        40.0004         21.5004
  20553842.4854    -342173.71949   -258118.83248                  20553840.6074
        50.0004         41.2504
  20728683.4714    -357170.77349   -271126.55148                  20728680.8424
        51.2504         40.5004
  20891881.5504    -606331.03549   -453976.22748                  20891878.2434
        51.0004         41.7504
  23557011.4494      -8293.94149    -10549.85547                  23557011.2774
        44.2504         27.0004
 04  7 15 15 19 30.0000000  0  9G 3G 6G14G15G16G18G21G22G26
  22660554.1594    -879280.91449   -660919.09847                  22660553.2704
        45.0004         31.7504
  23356367.2054      60027.90649     40570.08247                  23356367.9304
        45.0004         27.5004
  23884113.9724   -1059648.91849   -790489.14146                  23884114.7494
        45.0004         24.7504
  21099879.7374    -787557.93449   -592550.44548                  21099878.7094
        50.5004         39.5004
  24027179.3944    -183582.57849   -140580.92246                  24027178.6854
        38.7504         21.0004
  20547159.2514    -377293.05949   -285484.56648                  20547157.2044
        50.2504         41.2504
  20721694.7824    -393896.32849   -299743.87948                  20721692.3644
        50.5004         40.7504
  20879994.3254    -668797.73049   -502651.57048                  20879991.3604
        51.5004         41.0004
  23556935.0484      -8698.38749    -10865.05947                  23556934.8004
        45.0004         28.5004
 04  7 15 15 19 45.0000000  0  9G 3G 6G14G15G16G18G21G22G26
  22644892.8234    -961583.58249   -725051.05547                  22644891.9434
        44.5004         32.0004
  23357484.8894      65901.76249     45147.03547                  23357485.8454
        44.0004         27.5004
  23864517.8974   -1162627.42249   -870732.12946                  23864518.5554
        43.5004         24.5004
  21085817.4874    -861453.53149   -650131.43447                  21085817.0114
        50.7504         39.2504
  24023849.3964    -201081.05549   -154216.18046                  24023849.0904
        37.5004         20.5004
  20540493.8094    -412319.28149   -312777.73848                  20540492.2824
        50.5004         41.0004
  20714721.8644    -430538.62549   -328296.34048                  20714719.5604
        51.2504         40.7504
  20868127.2134    -731161.91049   -551247.03948                  20868123.9214
        52.0004         41.5004
  23556878.6874      -8993.02749    -11094.69547                  23556878.9094
        45.2504         28.5004
 04  7 15 15 20  0.0000000  0  9G 3G 6G14G15G16G18G21G22G26
  22629252.1574   -1043775.53149   -789096.72347                  22629251.6294
        45.0004         31.2504
  23358613.0314      71828.92249     49765.49647                  23358614.1714
        44.7504         27.0004
  23844927.5654   -1265572.96149   -950949.43447                  23844928.4514
        44.0004         25.7504
  21071766.1424    -935294.68749   -707670.00047                  21071765.1914
        50.7504         39.2504
  24020535.0284    -218501.20348   -167790.37946                  24020534.2694
        35.5004         20.0004
  20533846.3164    -447253.50049   -339999.22348                  20533844.4974
        50.5004         41.2504
  20707764.8954    -467098.58249   -356784.63348                  20707762.5334
        51.0004         41.0004
  20856278.8024    -793424.59449   -599763.43048                  20856275.5774
        52.2504         41.2504
  23556843.2954      -9179.06649    -11239.70347                  23556843.1934
        44.5004         27.2504
 04  7 15 15 20 15.0000000  0  9G 3G 6G14G15G16G18G21G22G26
  22613632.4914   -1125855.98849   -853055.52347                  22613632.3314
        44.5004         32.0004
  23359751.1944      77809.29749     54425.44947                  23359752.3004
        44.7504         29.5004
  23825344.3684   -1368484.89849  -1031140.54747                  23825345.0474
        44.5004         26.0004
  21057724.7814   -1009080.95349   -765165.79348                  21057724.1234
        50.0004         39.5004
  24017234.8394    -235842.96148   -181303.49646                  24017234.2144
        35.2504         20.0004
  20527215.9374    -482095.53149   -367148.85948                  20527214.1174
        50.5004         41.5004
  20700823.5444    -503575.84849   -385208.49248                  20700821.1034
        50.7504         40.7504
  20844450.0274    -855585.40649   -648200.43048                  20844446.8864
        52.0004         40.5004
  23556828.4394      -9256.75449    -11300.28547                  23556828.3704
        44.5004         27.2504
 04  7 15 15 20 30.0000000  0  9G 3G 6G14G15G16G18G21G22G26
  22598033.8744   -1207827.14849   -916929.16447                  22598033.2644
        46.5004         32.7504
  23360898.5514      83840.27349     59124.82047                  23360899.7124
        44.5004         27.2504
  23805766.4274   -1471365.33649  -1111307.11346                  23805767.1784
        44.5004         25.5004
  21043693.5784   -1082814.61349   -822620.59047                  21043693.0694
        50.0004         39.0004
  24013949.4374    -253109.23048   -194757.78946                  24013948.2464
        35.0004         19.5004
  20520603.0154    -516847.90649   -394228.64848                  20520601.1594
        51.0004         41.5004
  20693897.4674    -539972.49249   -413569.53148                  20693894.9794
        51.5004         40.0004
  20832639.9704    -917646.86749   -696560.01648                  20832637.0704
        51.7504         40.5004
  23556834.0184      -9228.80149    -11278.55946                  23556833.5944
        44.5004         25.2504
 04  7 15 15 20 45.0000000  0  9G 3G 6G14G15G16G18G21G22G26
  22582456.2984   -1289688.68749   -980717.38747                  22582455.9264
        44.5004         31.2504
  23362055.9834      89921.51249     63863.35247                  23362057.2654
        44.5004         27.5004
  23786195.5324   -1574213.92249  -1191448.84446                  23786195.7674
        43.5004         25.2504
  21029673.0864   -1156495.47749   -880034.25048                  21029672.1674
        50.5004         39.5004
  24010677.5344    -270300.27048   -208153.45346                  24010677.2484
        35.0004         17.7504
  20514006.9864    -551510.72349   -421238.64848                  20514004.8294
        50.7504         41.2504
  20686986.8474    -576288.45749   -441867.69948                  20686984.2074
        51.2504         40.0004
  20820849.0104    -979608.91449   -744842.12548                  20820846.0654
        52.5004         40.7504
  23556859.4914      -9095.55549    -11174.77047                  23556859.3074
        44.0004         26.5004
 04  7 15 15 21  0.0000000  0  9G 3G 6G14G15G16G18G21G22G26
  22566898.9254   -1371442.90649  -1044421.98047                  22566899.0704
        46.0004         32.0004
  23363222.3694      96050.14549     68638.83247                  23363223.6864
        44.5004         27.7504
  23766629.3894   -1677032.83649  -1271567.49247                  23766629.8864
        44.7504         26.0004
  21015661.6694   -1230125.93049   -937408.62948                  21015660.6724
        51.0004         39.5004
  24007420.0684    -287418.91848   -221492.71546                  24007419.6894
        34.7504         18.2504
  20507427.0824    -586086.80549   -448181.05548                  20507425.2034
        50.5004         41.5004
  20680091.0124    -612526.18049   -470104.90248                  20680088.7314
        52.0004         40.7504
  20809076.5634   -1041474.25849   -793048.89848                  20809073.2084
        51.5004         41.0004
  23556904.1354      -8859.88749    -10991.18447                  23556904.2014
        44.5004         26.0004
 04  7 15 15 21 15.0000000  0  9G 3G 6G14G15G16G18G21G22G26
  22551361.7724   -1453090.59849  -1108043.54747                  22551362.0294
        44.5004         32.2504
  23364397.2294     102224.92249     73450.26247                  23364398.4324
        44.7504         26.0004
  23747069.3664   -1779822.78949  -1351663.55546                  23747069.9584
        42.0004         25.2504
  21001659.6004   -1303706.87549   -994744.43447                  21001658.6404
        50.0004         39.0004
  24004176.2054    -304466.75848   -234776.84846                  24004175.5124
        35.0004         19.2504
  20500863.8474    -620577.42649   -475056.87548                  20500862.2154
        50.7504         42.2504
  20673209.9664    -648686.66049   -498281.92248                  20673207.7124
        51.2504         40.5004
  20797322.1104   -1103243.96549   -841181.14148                  20797318.8074
        51.7504         41.2504
  23556968.2304      -8523.24649    -10728.91847                  23556968.2254
        43.5004         25.7504
 04  7 15 15 21 30.0000000  0  9G 3G 6G14G15G16G18G21G22G26
  22535845.1084   -1534632.68449  -1171582.83247                  22535844.8514
        45.2504         32.5004
  23365580.6164     108444.23849     78296.40247                  23365582.2664
        44.7504         27.0004
  23727514.2504   -1882584.84449  -1431737.87146                  23727514.6054
        44.0004         25.0004
  20987666.7894   -1377239.44149  -1052042.52747                  20987665.8064
        50.2504         39.2504
  24000944.4504    -321445.25048   -248006.84446                  24000944.7534
        34.7504         18.2504
  20494316.6994    -654983.95749   -501867.16848                  20494314.9934
        51.2504         41.5004
  20666343.1364    -684771.19549   -526399.75048                  20666340.9404
        51.0004         40.5004
  20785585.6634   -1164919.41049   -889239.92648                  20785582.7104
        52.2504         41.0004
  23557051.5974      -8087.39849    -10389.33647                  23557051.7684
        43.7504         27.0004
 04  7 15 15 21 45.0000000  0  9G 3G 6G14G15G16G18G21G22G26
  22520347.8264   -1616070.02349  -1235040.51647                  22520347.9634
        46.0004         32.2504
  23366772.1464     114706.64849     83176.11347                  23366774.1764
        45.0004         27.2504
  23707964.6784   -1985319.55949  -1511790.89546                  23707964.3434
        44.0004         25.5004
  20973683.1624   -1450724.51649  -1109303.63348                  20973681.9064
        50.0004         39.5004
  23997727.0034    -338355.88748   -261184.07446                  23997726.6524
        33.7504         18.5004
  20487784.9534    -689307.77749   -528613.00848                  20487783.2144
        50.7504         42.0004
  20659490.8404    -720780.68449   -554459.10548                  20659488.8784
        51.7504         40.7504
  20773866.9994   -1226501.66849   -937226.10948                  20773863.8764
        52.2504         41.0004
  23557153.0984      -7553.76649     -9973.56647                  23557153.8494
        44.7504         28.0004
 04  7 15 15 22  0.0000000  0  9G 3G 6G14G15G16G18G21G22G26
  22504870.7444   -1697404.16049  -1298417.77747                  22504869.6194
        44.5004         32.0004
  23367972.5014     121010.15649     88087.84047                  23367973.5634
        45.7504         27.7504
  23688419.8294   -2088028.43049  -1591823.76647                  23688420.0374
        43.2504         25.7504
  20959708.0004   -1524163.88349  -1166529.11748                  20959706.9674
        50.5004         39.5004
  23994521.6074    -355201.00448   -274310.17246                  23994521.2014
        34.5004         17.0004
  20481268.7914    -723550.79349   -555295.89548                  20481266.3544
        50.5004         41.7504
  20652652.4904    -756717.00049   -582461.44948                  20652650.0114
        51.0004         40.5004
  20762165.4884   -1287992.65649   -985141.16448                  20762162.4984
        52.2504         41.0004
  23557272.7814      -6924.53949     -9483.32047                  23557273.3844
        44.0004         28.0004
 04  7 15 15 22 15.0000000  0  9G 3G 6G14G15G16G18G21G22G26
  22489413.0114   -1778634.87549  -1361714.43747                  22489412.6924
        45.2504         32.2504
  23369179.8314     127354.27049     93031.23447                  23369181.0304
        45.0004         27.5004
  23668879.7084   -2190711.30549  -1671836.38346                  23668880.0314
        43.5004         25.5004
  20945741.3524   -1597557.39149  -1223718.85948                  20945740.8864
        50.2504         39.7504
  23991327.4224    -371980.85548   -287385.46946                  23991327.7014
        34.0004         16.2504
  20474767.6484    -757713.39149   -581916.10948                  20474765.7484
        51.2504         41.2504
  20645827.9564    -792580.19549   -610406.81248                  20645825.7064
        52.0004         40.5004
  20750481.4644   -1349392.65249  -1032985.32448                  20750478.2564
        52.2504         41.7504
  23557410.5164      -6200.08649     -8918.85547                  23557410.9704
        43.7504         27.7504
 04  7 15 15 22 30.0000000  0  9G 3G 6G14G15G16G18G21G22G26
  22473974.7664   -1859762.62549  -1424930.85947                  22473974.9364
        46.0004         32.2504
  23370394.4854     133738.08249     98005.56647                  23370395.8594
        45.0004         28.5004
  23649344.7164   -2293368.58649  -1751829.05947                  23649345.0294
        43.7504         25.7504
  20931784.0894   -1670905.63749  -1280873.32847                  20931783.0394
        51.0004         39.2504
  23988147.2564    -388696.64548   -300410.86346                  23988146.6154
        32.2504         17.5004
  20468282.1634    -791796.32449   -608474.24648                  20468280.1224
        51.0004         41.7504
  20639017.4004    -828370.91049   -638295.69148                  20639015.0584
        51.2504         40.2504
  20738814.8354   -1410702.32849  -1080759.10248                  20738811.8264
        52.0004         41.2504
  23557566.1784      -5381.57849     -8281.10547                  23557566.6624
        44.0004         28.2504
 04  7 15 15 22 45.0000000  0  9G 3G 6G14G15G16G18G21G22G26
  22458556.3514   -1940787.63749  -1488067.22347                  22458555.6904
        46.5004         32.0004
  23371616.7454     140160.83249    103010.22347                  23371618.1534
        45.0004         27.7504
  23629814.0794   -2396000.23049  -1831801.78547                  23629814.7804
        43.0004         25.7504
  20917834.4124   -1744208.97349  -1337992.82047                  20917834.0084
        50.5004         39.2504
  23984978.5684    -405349.10948   -313386.84446                  23984977.6704
        34.2504         17.5004
  20461811.3274    -825800.30949   -634970.86748                  20461809.6254
        51.0004         41.0004
  20632219.9164    -864089.30949   -666128.22748                  20632217.8634
        52.0004         40.0004
  20727164.9064   -1471922.13349  -1128462.84048                  20727161.9154
        52.2504         41.0004
  23557739.2084      -4469.90249     -7570.73447                  23557739.6474
        43.5004         25.7504
 04  7 15 15 23  0.0000000  0  9G 3G 6G14G15G16G18G21G22G26
  22443157.5684   -2021710.00449  -1551123.61747                  22443156.2674
        45.0004         32.0004
  23372846.1924     146621.66849    108044.57047                  23372847.7364
        45.5004         28.0004
  23610289.0224   -2498606.47749  -1911754.68446                  23610288.9554
        44.0004         25.0004
  20903893.8954   -1817467.61749  -1395077.48048                  20903893.3504
        49.7504         39.5004
  23981822.0474    -421939.00048   -326314.13746                  23981821.1544
        35.5004         18.2504
  20455355.4104    -859725.87949   -661406.39848                  20455354.0824
        51.0004         41.5004
  20625436.9364    -899735.87149   -693904.78948                  20625434.6204
        52.2504         40.7504
  20715532.2234   -1533052.71949  -1176097.07048                  20715529.0194
        52.0004         40.7504
  23557930.7054      -3465.88349     -6788.43047                  23557930.8854
        42.5004         26.2504
 04  7 15 15 23 15.0000000  0  9G 3G 6G14G15G16G18G21G22G26
  22427777.4414   -2102531.22749  -1614101.20347                  22427776.9934
        46.0004         31.5004
  23374082.4354     153118.59449    113107.01247                  23374083.5784
        45.0004         26.7504
  23590768.2304   -2601188.60949  -1991688.80947                  23590769.0144
        43.0004         26.2504
  20889961.6894   -1890683.16849  -1452128.55947                  20889961.0004
        50.7504         39.0004
  23978676.3784    -438468.47348   -339194.29346                  23978675.4184
        34.7504         17.5004
  20448914.3084    -893574.93049   -687782.28948                  20448912.6034
        51.0004         41.7504
  20618667.1274    -935312.09849   -721626.54348                  20618664.8674
        51.7504         40.5004
  20703916.1094   -1594095.77349  -1223663.09448                  20703913.0554
        52.2504         40.5004
  23558139.2384      -2371.53149     -5935.73447                  23558138.9334
        44.2504         27.0004
 04  7 15 15 23 30.0000000  0  9G 3G 6G14G15G16G18G21G22G26
  22412416.7354   -2183252.60549  -1677001.00047                  22412416.5404
        46.5004         32.2504
  23375325.3514     159649.78549    118196.19147                  23375326.6054
        45.0004         27.5004
  23571251.9764   -2703748.01249  -2071605.20346                  23571252.4744
        43.0004         25.5004
  20876037.2184   -1963857.16049  -1509147.25047                  20876036.1504
        50.0004         39.0004
  23975542.3624    -454939.61748   -352029.02346                  23975541.6824
        33.7504         17.0004
  20442487.0314    -927349.45749   -714100.11748                  20442485.2414
        51.2504         42.0004
  20611910.1674    -970819.72349   -749294.83248                  20611907.6204
        51.7504         40.2504
  20692316.0244   -1655053.09849  -1271162.31248                  20692313.2704
        52.2504         40.7504
  23558363.6164      -1189.05949     -5014.37947                  23558364.3194
        42.7504         27.5004
 04  7 15 15 23 45.0000000  0  9G 3G 6G14G15G16G18G21G22G26
  22397074.6624   -2263874.28949  -1739823.09047                  22397074.7254
        46.2504         32.0004
  23376574.5794     166214.45349    123311.44547                  23376575.6314
        45.0004         28.0004
  23551739.5304   -2806284.66449  -2151503.88746                  23551740.1434
        42.5004         25.5004
  20862120.3804   -2036989.73849  -1566133.68048                  20862119.9684
        50.0004         39.5004
  23972419.3104    -471353.00448   -364818.71546                  23972418.9824
        35.5004         18.2504
  20436074.6134    -961049.82849   -740360.14548                  20436072.7144
        51.2504         42.2504
  20605166.0784   -1006259.13349   -776909.96948                  20605164.0994
        51.5004         40.0004
  20680732.6244   -1715925.05149  -1318595.00448                  20680729.5754
        52.0004         41.0004
  23558605.9234         80.84849     -4024.87547                  23558606.7144
        42.2504         27.5004
 04  7 15 15 24  0.0000000  0  9G 3G 6G14G15G16G18G21G22G26
  22381751.8024   -2344396.27749  -1802567.49247                  22381751.9724
        46.0004         31.7504
  23377829.5594     172811.99249    128452.30947                  23377831.4124
        44.5004         28.2504
  23532231.5244   -2908798.54349  -2231384.80547                  23532232.9284
        42.5004         26.2504
  20848211.6504   -2110081.02349  -1623087.92247                  20848210.8714
        50.2504         39.0004
  23969307.4674    -487709.37148   -377564.01646                  23969306.4734
        35.5004         18.5004
  20429675.4954    -994676.57849   -766562.82048                  20429673.3914
        50.7504         42.0004
  20598435.3664   -1041630.44949   -804472.04348                  20598433.1174
        52.5004         39.7504
  20669165.2944   -1776711.97349  -1365961.44548                  20669162.2354
        51.7504         40.7504
  23558864.2164       1437.53149     -2967.77747                  23558864.8614
        43.0004         27.2504
 04  7 15 15 24 15.0000000  0  9G 3G 6G14G15G16G18G21G22G26
  22366448.2064   -2424819.12149  -1865234.64147                  22366447.7584
        45.2504         32.2504
  23379092.0614     179441.38349    133617.97747                  23379093.1314
        44.5004         26.2504
  23512728.5184   -3011290.08249  -2311248.34847                  23512729.7314
        43.2504         26.7504
  20834310.5344   -2183131.75849  -1680010.57448                  20834310.2824
        50.5004         39.7504
  23966205.0314    -504009.93748   -390265.80946                  23966204.7564
        35.2504         19.2504
  20423290.4404   -1028230.79749   -792708.98448                  20423288.3644
        51.2504         42.2504
  20591717.1854   -1076934.22349   -831981.48448                  20591715.1464
        51.2504         40.0004
  20657614.0444   -1837414.80149  -1413262.34848                  20657610.8164
        52.2504         40.5004
  23559138.7804       2879.90649     -1843.89547                  23559139.1824
        42.7504         28.0004
 04  7 15 15 24 30.0000000  0  9G 3G 6G14G15G16G18G21G22G26
  22650956.4104   -2505138.17649  -1927820.92247                  22650955.5454
        45.2504         32.0004
  23680151.3614     186100.89549    138807.12947                  23680152.7374
        45.0004         26.7504
  23793022.6904   -3113753.08249  -2391089.60947                  23793024.4894
        41.7504         26.7504
  21120210.3334   -2256137.79749  -1736898.40648                  21120209.5714
        50.2504         39.7504
  24262906.5554    -520254.79749   -402924.19946                  24262906.2204
        37.2504         20.0004
  20716711.3794   -1061711.33649   -818797.71548                  20716709.4604
        51.5004         42.0004
  20884804.6904   -1112168.99649   -859437.16848                  20884803.1034
        51.5004         40.0004
  20945871.4664   -1898030.47749  -1460495.34448                  20945868.4914
        51.2504         40.7504
  23859221.7754       4406.34449      -654.51647                  23859222.6794
        42.7504         26.7504
 04  7 15 15 24 45.0000000  0  9G 3G 6G14G15G16G18G21G22G26
  22635689.9154   -2585363.44949  -1990334.12947                  22635689.6944
        46.7504         31.5004
  23681424.9904     192791.31649    144020.34447                  23681425.8514
        44.7504         26.2504
  23773527.2874   -3216200.45349  -2470918.70747                  23773528.8234
        41.0004         26.7504
  21106324.3154   -2329108.44949  -1793758.64848                  21106324.0594
        49.5004         39.7504
  24259825.9184    -536446.24649   -415540.93746                  24259824.6294
        38.7504         20.0004
  20710353.6734   -1095122.50049   -844832.40648                  20710351.8824
        51.0004         42.0004
  20878111.7424   -1147339.15649   -886842.50048                  20878110.1144
        51.2504         40.0004
  20934352.0224   -1958566.87949  -1507666.56248                  20934349.0314
        52.0004         41.2504
  23859528.1544       6017.03549       600.52747                  23859529.1024
        41.5004         26.0004
 04  7 15 15 25  0.0000000  0  9G 3G 6G14G15G16G18G21G22G26
  22620442.9674   -2665489.29749  -2052769.85947                  22620442.5224
        46.2504         32.5004
  23682703.5884     199512.23049    149257.35546                  23682705.1394
        44.5004         25.0004
  23754036.5994   -3318624.93049  -2550729.96547                  23754038.4654
        44.0004         28.0004
  21092446.3714   -2402038.55549  -1850587.31248                  21092445.5034
        50.7504         39.5004
  24256754.2094    -552583.49249   -428115.48446                  24256754.4754
        38.7504         19.2504
  20704009.4064   -1128462.14549   -870811.35948                  20704007.4554
        50.5004         41.7504
  20871432.0914   -1182442.41849   -914195.69948                  20871429.8094
        51.0004         41.0004
  20922848.2634   -2019019.90249  -1554772.81648                  20922845.3764
        51.7504         40.7504
  23859850.4884       7711.75849      1921.03947                  23859851.0844
        41.2504         25.7504
 04  7 15 15 25 15.0000000  0  9G 3G 6G14G15G16G18G21G22G26
  22605214.2814   -2745516.28549  -2115128.55547                  22605213.8284
        46.5004         32.5004
  23683988.4064     206262.37549    154517.12147                  23683989.6944
        44.0004         26.2504
  23734550.1564   -3421027.07449  -2630523.82847                  23734552.4044
        42.2504         28.0004
  21078575.5854   -2474928.97749  -1907385.05148                  21078575.1934
        50.2504         39.5004
  24253694.4254    -568667.65649   -440648.61746                  24253694.0514
        39.5004         20.5004
  20697678.2974   -1161731.27349   -896735.36348                  20697676.8074
        51.0004         42.2504
  20864765.1784   -1217479.25849   -941497.14548                  20864763.1814
        51.5004         40.2504
  20911360.2834   -2079390.52749  -1601814.86348                  20911356.9384
        52.0004         40.7504
  23860188.7314       9489.08249      3305.91847                  23860188.9014
        42.2504         27.0004
 04  7 15 15 25 30.0000000  0  9G 3G 6G14G15G16G18G21G22G26
  22590003.8064   -2825444.54349  -2177410.30947                  22590003.8284
        47.0004         32.0004
  23685278.1654     213041.00849    159799.08647                  23685279.6784
        43.2504         26.7504
  23715067.7274   -3523407.03549  -2710300.39847                  23715070.0274
        42.2504         28.2504
  21064713.0434   -2547779.90649  -1964152.00848                  21064711.6654
        50.0004         39.5004
  24250643.3074    -584699.53949   -453141.06646                  24250643.1054
        40.0004         20.5004
  20691360.6884   -1194930.47749   -922604.88348                  20691359.0294
        50.7504         41.7504
  20858110.0414   -1252450.09449   -968747.15647                  20858108.2764
        51.5004         39.2504
  20899887.3974   -2139679.21149  -1648793.05548                  20899884.4504
        51.2504         41.2504
  23860542.3714      11348.23449      4754.55547                  23860542.7754
        41.5004         26.2504
 04  7 15 15 25 45.0000000  0  9G 3G 6G14G15G16G18G21G22G26
  22574813.3594   -2905272.93449  -2239614.26647                  22574813.3114
        47.0004         31.7504
  23686573.9484     219848.69949    165103.69946                  23686574.6064
        43.5004         24.7504
  23695590.6364   -3625763.60949  -2790058.73047                  23695592.2554
        42.0004         27.2504
  21050857.3544   -2620590.29349  -2020887.37948                  21050856.7124
        50.5004         39.5004
  24247603.0184    -600678.70749   -465592.44546                  24247602.6054
        41.0004         21.0004
  20685056.6994   -1228059.04749   -948419.36348                  20685054.4404
        50.2504         41.7504
  20851468.0884   -1287353.89549   -995944.93747                  20851465.9804
        51.2504         39.2504
  20888430.8724   -2199885.09049  -1695706.73448                  20888427.6224
        52.0004         41.2504
  23860912.0384      13289.76649      6267.41047                  23860912.5134
        41.5004         27.0004
 04  7 15 15 26  0.0000000  0  9G 3G 6G14G15G16G18G21G22G26
  22559641.4654   -2985002.11349  -2301740.89847                  22559641.4604
        47.5004         33.0004
  23687874.3454     226684.32049    170430.08246                  23687875.9224
        44.2504         25.5004
  23676116.8074   -3728097.28949  -2869799.22347                  23676118.9154
        43.2504         28.5004
  21037009.5974   -2693360.81649  -2077591.67247                  21037009.1054
        50.5004         39.0004
  24244571.9194    -616606.47349   -478003.75046                  24244571.0874
        40.2504         21.7504
  20678765.6114   -1261118.07449   -974179.65648                  20678763.4764
        51.2504         41.5004
  20844838.7504   -1322191.54349  -1023091.16448                  20844836.6934
        52.2504         39.7504
  20876989.4464   -2260009.19549  -1742556.68748                  20876986.3584
        51.5004         40.7504
  23861297.1224      15312.35949      7843.40647                  23861297.3694
        42.0004         26.0004
 04  7 15 15 26 15.0000000  0  9G 3G 6G14G15G16G18G21G22G26
  22544488.2184   -3064631.84449  -2363790.04347                  22544488.6244
        46.2504         32.2504
  23689180.8484     233547.53149    175777.94546                  23689182.3874
        43.5004         25.5004
  23656647.8304   -3830407.76649  -2949521.65247                  23656649.1944
        42.5004         27.0004
  21023169.5484   -2766091.53549  -2134264.96148                  21023168.4934
        49.7504         40.0004
  24241550.4184    -632483.21149   -490375.27346                  24241550.2314
        40.7504         20.0004
  20672487.7754   -1294107.87149   -999885.99248                  20672486.1794
        51.2504         41.5004
  20838222.1424   -1356963.36349  -1050186.10548                  20838220.1074
        51.0004         39.5004
  20865563.8864   -2320051.68749  -1789343.04348                  20865560.6984
        51.2504         41.0004
  23861697.4244      17415.56349      9482.22747                  23861697.8944
        41.0004         26.2504
 04  7 15 15 26 30.0000000  0  9G 3G 6G14G15G16G18G21G22G26
  22529354.3384   -3144161.82849  -2425761.45747                  22529354.0344
        46.5004         32.2504
  23690492.2664     240437.92649    181147.01246                  23690493.5554
        43.0004         25.5004
  23637182.8144   -3932694.66849  -3029225.71947                  23637185.2234
        41.2504         28.2504
  21009337.1744   -2838782.08249  -2190906.94548                  21009336.6164
        50.2504         40.0004
  24238538.6774    -648309.16449   -502707.25046                  24238538.8774
        41.2504         22.0004
  20666223.4764   -1327028.74249  -1025538.63348                  20666221.4194
        50.7504         41.7504
  20831617.2774   -1391668.87549  -1077229.35948                  20831615.7614
        50.7504         40.2504
  20854153.2114   -2380012.68049  -1836065.89848                  20854150.4694
        52.0004         41.2504
  23862112.9044      19599.00049     11183.55947                  23862113.5564
        40.0004         26.7504
 04  7 15 15 26 45.0000000  0  9G 3G 6G14G15G16G18G21G22G26
  22514239.5534   -3223591.49249  -2487654.71147                  22514239.3394
        47.0004         34.0004
  23691808.2994     247355.66849    186537.37146                  23691810.0894
        43.0004         24.0004
  23617723.0034   -4034957.30549  -3108910.87147                  23617725.1344
        42.2504         28.2504
  20995512.1064   -2911432.00049  -2247517.28148                  20995511.3914
        49.2504         39.7504
  24235537.5124    -664084.43049   -514999.72346                  24235536.1884
        41.0004         21.5004
  20659971.6504   -1359880.36349  -1051137.30948                  20659970.3404
        51.0004         41.7504
  20825026.1824   -1426307.56249  -1104220.55948                  20825024.2604
        51.5004         40.2504
  20842758.6704   -2439891.81249  -1882724.96948                  20842755.9214
        51.2504         41.2504
  23862543.6844      21862.64549     12947.39147                  23862544.7374
        40.0004         26.5004
 04  7 15 15 27  0.0000000  0  9G 3G 6G14G15G16G18G21G22G26
  22499142.9404   -3302922.05149  -2549470.74647                  22499143.3254
        46.2504         33.2504
  23693130.1444     254298.85249    191947.57446                  23693131.0494
        43.5004         25.5004
  23598267.4344   -4137196.79749  -3188577.98447                  23598269.2114
        43.0004         28.5004
  20981694.7554   -2984042.72349  -2304097.06648                  20981694.0574
        51.0004         39.7504
  24232545.1964    -679810.87549   -527254.14546                  24232544.0964
        41.7504         22.5004
  20653733.2074   -1392664.27749  -1076683.23048                  20653731.6194
        51.0004         41.2504
  20818446.9594   -1460881.09449  -1131160.98048                  20818444.6564
        51.5004         40.0004
  20831379.5844   -2499690.65649  -1929321.46948                  20831376.7364
        51.5004         41.5004
  23862989.3124      24204.58249     14772.21947                  23862990.5664
        42.0004         26.5004
 04  7 15 15 27 15.0000000  0  9G 3G 6G14G15G16G18G21G22G26
  22484065.7894   -3382153.87949  -2611209.82847                  22484065.6574
        47.2504         33.0004
  23694455.6934     261266.80549    197377.06346                  23694457.4314
        43.7504         24.7504
  23578816.3964   -4239413.37949  -3268227.24247                  23578817.7504
        41.5004         27.7504
  20967884.9624   -3056614.55949  -2360646.55148                  20967884.0474
        49.2504         40.0004
  24229560.8044    -695489.34049   -539471.18746                  24229560.6924
        41.5004         22.0004
  20647507.5394   -1425381.16049  -1102176.91448                  20647505.6294
        50.7504         41.5004
  20811880.0364   -1495389.65649  -1158050.78148                  20811878.6284
        50.7504         39.7504
  20820015.4304   -2559409.67249  -1975855.77748                  20820012.5144
        51.7504         41.0004
  23863449.5484      26623.87649     16657.35947                  23863451.9554
        40.0004         26.5004
 04  7 15 15 27 30.0000000  0  9G 3G 6G14G15G16G18G21G22G26
  22469007.5614   -3461286.41049  -2672871.54747                  22469007.3834
        46.2504         33.7504
  23695786.9254     268259.39549    202825.77346                  23695787.6844
        44.0004         23.5004
  23559369.5984   -4341606.60249  -3347858.30947                  23559371.1644
        43.2504         28.0004
  20954082.0214   -3129147.17649  -2417165.47748                  20954081.5524
        51.5004         40.0004
  24226586.7654    -711119.99649   -551650.98046                  24226586.0664
        41.7504         21.2504
  20641294.4584   -1458031.08249  -1127618.42648                  20641292.4084
        51.5004         41.2504
  20805325.7804   -1529833.11349  -1184889.85248                  20805324.1294
        50.7504         39.7504
  20808666.4484   -2619048.80549  -2022327.82048                  20808663.5544
        51.7504         40.7504
  23863924.8034      29120.48849     18602.68046                  23863926.3544
        41.7504         25.5004
 04  7 15 15 27 45.0000000  0  9G 3G 6G14G15G16G18G21G22G26
  22453968.0714   -3540319.16449  -2734455.52047                  22453968.2774
        46.5004         32.7504
  23697121.8344     275276.39849    208293.49646                  23697123.1654
        43.7504         24.2504
  23539927.3804   -4443775.85249  -3427470.68447                  23539928.6174
        43.0004         28.5004
  20940287.2434   -3201640.29349  -2473653.62148                  20940286.4824
        50.2504         39.5004
  24223622.2394    -726702.97349   -563793.61746                  24223620.5784
        42.0004         22.5004
  20635094.2474   -1490614.07449  -1153007.77348                  20635092.1844
        51.2504         41.0004
  20798783.8204   -1564211.23849  -1211678.01647                  20798782.1484
        51.0004         39.2504
  20797332.7224   -2678608.00849  -2068737.59448                  20797329.8674
        51.7504         40.5004
  23864414.7574      31694.08249     20608.02347                  23864415.5924
        40.7504         26.7504
 04  7 15 15 28  0.0000000  0  9G 3G 6G14G15G16G18G21G22G26
  22438947.7474   -3619251.30149  -2795961.08647                  22438947.4084
        47.2504         33.0004
  23698461.8044     282318.23849    213780.57046                  23698463.5744
        43.7504         24.5004
  23520490.6654   -4545920.18049  -3507063.65247                  23520491.5404
        43.0004         28.7504
  20926500.0414   -3274093.01649  -2530110.30148                  20926498.9924
        50.5004         39.5004
  24220665.3344    -742238.14149   -575899.01246                  24220663.8014
        41.7504         22.5004
  20628906.6244   -1523129.71149  -1178344.64548                  20628904.6344
        51.2504         41.2504
  20792254.3994   -1598523.34449  -1238414.73048                  20792253.0084
        51.5004         39.7504
  20786014.1194   -2738086.75449  -2115084.66848                  20786011.3024
        51.5004         40.7504
  23864919.0894      34344.87149     22673.52746                  23864920.3444
        41.2504         24.7504
 04  7 15 15 28 15.0000000  0  9G 3G 6G14G15G16G18G21G22G26
  22423946.3354   -3698083.65649  -2857388.91447                  22423946.0234
        45.7504         32.7504
  23699806.6184     289383.44949    219285.84846                  23699807.2414
        43.5004         24.5004
  23501057.1894   -4648040.23849  -3586637.71547                  23501058.1324
        41.5004         28.0004
  20912720.1774   -3346506.39549  -2586536.31248                  20912719.7554
        50.0004         39.5004
  24217717.8574    -757726.89849   -587968.23446                  24217716.9504
        41.5004         22.5004
  20622731.6094   -1555579.35949  -1203630.09448                  20622729.8854
        51.2504         41.5004
  20785737.4654   -1632770.57049  -1265100.89148                  20785735.9714
        50.0004         40.0004
  20774710.9324   -2797486.32049  -2161370.04748                  20774708.0804
        51.5004         41.2504
  23865438.3174      37071.38349     24798.04746                  23865439.8094
        41.5004         25.0004
 04  7 15 15 28 30.0000000  0  9G 3G 6G14G15G16G18G21G22G26
  22408964.1944   -3776815.40649  -2918738.32847                  22408963.9934
        46.5004         33.2504
  23701155.5604     296472.35549    224809.60946                  23701156.5424
        43.5004         22.5004
  23481629.3554   -4750135.15649  -3666192.17647                  23481629.6494
        42.5004         26.7504
  20898947.9354   -3418879.52349  -2642930.95747                  20898947.3624
        49.7504         39.2504
  24214779.5254    -773168.98449   -600001.11346                  24214779.5544
        40.7504         21.0004
  20616569.0834   -1587962.51649  -1228863.73448                  20616567.7094
        51.0004         42.0004
  20779233.1934   -1666952.13349  -1291735.88348                  20779231.3734
        51.2504         40.0004
  20763422.6244   -2856805.94949  -2207593.12948                  20763419.5664
        52.0004         41.2504
  23865971.1274      39873.93049     26981.77047                  23865973.0644
        39.7504         25.7504
 04  7 15 15 28 45.0000000  0  9G 3G 6G14G15G16G18G21G22G26
  22394001.0494   -3855446.62149  -2980009.41047                  22394001.2194
        45.5004         33.2504
  23702508.4734     303584.23049    230351.26246                  23702510.5414
        43.5004         24.5004
  23462206.2514   -4852205.04349  -3745727.14147                  23462206.7304
        42.0004         28.0004
  20885183.5184   -3491212.84849  -2699294.58648                  20885182.8734
        51.0004         39.5004
  24211849.4964    -788565.22349   -611998.24646                  24211849.3274
        39.2504         21.7504
  20610419.4564   -1620279.94949  -1254046.16048                  20610417.6404
        51.0004         41.2504
  20772741.1974   -1701068.42249  -1318320.01248                  20772738.7014
        51.0004         39.5004
  20752149.6034   -2916046.25849  -2253754.41048                  20752146.5704
        51.5004         41.0004
  23866519.0794      42751.48449     29223.96946                  23866520.1514
        39.5004         25.2504
 04  7 15 15 29  0.0000000  0  9G 3G 6G14G15G16G18G21G22G26
  22379057.4194   -3933977.92249  -3041202.63747                  22379056.7164
        44.2504         33.5004
  23703866.7634     310717.83249    235909.84446                  23703867.4564
        44.0004         24.7504
  23442787.6284   -4954250.52749  -3825243.09047                  23442787.9934
        43.5004         27.2504
  20871426.5544   -3563507.00849  -2755627.69948                  20871425.7704
        50.7504         39.7504
  24208927.9574    -803916.92649   -623960.66446                  24208927.9984
        40.5004         21.7504
  20604281.8704   -1652532.44149  -1279177.98048                  20604280.4474
        50.7504         41.5004
  20766261.0424   -1735120.16849  -1344853.84848                  20766259.1114
        50.5004         40.0004
  20740891.5244   -2975208.26249  -2299854.67648                  20740888.6304
        51.7504         41.0004
  23867080.3554      45702.97749     31523.77346                  23867081.9544
        39.2504         23.0004
 04  7 15 15 29 15.0000000  0  9G 3G 6G14G15G16G18G21G22G26
  22364132.2624   -4012409.66449  -3102318.28547                  22364132.2484
        46.7504         33.2504
  23705228.1074     317872.32049    241484.68446                  23705229.0574
        43.7504         23.0004
  23423373.6774   -5056271.77349  -3904740.14847                  23423374.0974
        43.2504         27.5004
  20857676.8554   -3635762.53949  -2811930.70748                  20857675.8674
        50.5004         39.5004
  24206015.7794    -819224.91049   -635889.01246                  24206016.0184
        40.2504         22.2504
  20598156.5864   -1684720.92249  -1304259.93048                  20598154.8374
        50.7504         42.2504
  20759793.3904   -1769107.83649  -1371337.75848                  20759791.6724
        51.2504         40.5004
  20729647.9164   -3034292.61749  -2345894.43048                  20729645.2614
        51.7504         41.7504
  23867656.2454      48727.32049     33880.35946                  23867657.6584
        39.0004         24.7504
 04  7 15 15 29 30.0000000  0  9G 3G 6G14G15G16G18G21G22G26
  22349226.2364   -4090740.02349  -3163354.94147                  22349226.8274
        44.5004         32.7504
  23706593.6744     325048.96949    247076.79746                  23706594.8354
        43.7504         24.5004
  23403964.2874   -5158266.80149  -3984216.77347                  23403965.2894
        41.0004         27.5004
  20843934.5364   -3707977.55549  -2868202.15248                  20843933.6904
        50.2504         39.5004
  24203111.1594    -834488.05149   -647782.44946                  24203111.4414
        40.2504         24.0004
  20592044.0054   -1716843.96949  -1329290.88348                  20592042.4634
        50.7504         42.0004
  20753338.3234   -1803029.82849  -1397770.49648                  20753336.8874
        50.7504         40.5004
  20718419.9834   -3093297.79349  -2391872.49248                  20718417.0284
        52.0004         41.0004
  23868245.2224      51825.70749     36294.62146                  23868247.2154
        40.0004         24.7504
 04  7 15 15 29 45.0000000  0  9G 3G 6G14G15G16G18G21G22G26
  22334339.6654   -4168968.70349  -3224312.35247                  22334340.1114
        45.0004         33.5004
  23707963.1024     332247.60249    252686.05546                  23707964.3614
        43.5004         22.5004
  23384560.8144   -5260235.16049  -4063672.62947                  23384561.2414
        43.5004         27.5004
  20830200.3144   -3780151.90249  -2924441.90648                  20830199.3604
        51.0004         39.7504
  24200215.0474    -849706.71949   -659641.21946                  24200215.7454
        40.2504         22.5004
  20585943.6994   -1748901.68449  -1354270.93448                  20585941.6254
        51.0004         41.5004
  20746895.7484   -1836886.12149  -1424152.02748                  20746894.2754
        51.2504         40.0004
  20707206.6854   -3152223.74649  -2437788.82848                  20707203.9794
        52.0004         41.0004
  23868849.8084      54997.92649     38766.41046                  23868851.2604
        39.7504         23.5004
 04  7 15 15 30  0.0000000  0  9G 3G 6G14G15G16G18G21G22G26
  22319472.7384   -4247095.57849  -3285190.44147                  22319472.7664
        45.5004         33.5004
  23709337.4994     339467.66849    258312.02046                  23709338.7334
        43.5004         23.7504
  23365161.1634   -5362176.86349  -4143107.71147                  23365162.2604
        42.5004         28.2504
  20816473.6094   -3852285.62149  -2980649.99648                  20816472.6514
        50.2504         40.0004
  24197327.7964    -864881.36749   -671465.70746                  24197327.9694
        40.2504         22.2504
  20579855.6974   -1780894.51649  -1379200.42648                  20579853.8724
        50.5004         42.0004
  20740465.5454   -1870676.77049  -1450482.40648                  20740463.7734
        50.7504         40.0004
  20696008.0434   -3211070.76249  -2483643.64148                  20696005.5074
        52.0004         41.5004
  23869466.9964      58243.27749     41295.19146                  23869469.2844
        39.0004         24.0004
 04  7 15 15 30 15.0000000  0  9G 3G 6G14G15G16G18G21G22G26
  22304625.4364   -4325120.51249  -3345989.09847                  22304624.7984
        45.2504         32.0004
  23710715.0464     346708.81649    263954.38346                  23710716.8684
        43.5004         24.5004
  23345767.3864   -5464091.55549  -4222521.73047                  23345768.8734
        42.0004         28.2504
  20802754.9434   -3924378.59449  -3036826.34048                  20802753.9484
        50.7504         40.0004
  24194448.1864    -880012.55149   -683256.30146                  24194448.9184
        40.5004         21.7504
  20573779.8514   -1812822.69949  -1404079.54748                  20573778.0324
        51.0004         41.5004
  20734047.9784   -1904401.61749  -1476761.52348                  20734045.9654
        51.0004         40.5004
  20684825.3744   -3269839.05949  -2529437.12148                  20684822.1214
        52.0004         41.5004
  23870098.4744      61561.35249     43880.64146                  23870100.5064
        39.7504         25.0004
 04  7 15 15 30 30.0000000  0  9G 3G 6G14G15G16G18G21G22G26
  22289797.2084   -4403042.69549  -3406707.69547                  22289796.7814
        45.2504         32.5004
  23712097.3984     353971.18449    269613.29746                  23712098.2814
        43.5004         24.0004
  23326378.9934   -5565978.39849  -4301914.06647                  23326380.3364
        43.7504         27.0004
  20789043.8464   -3996430.20349  -3092970.45748                  20789043.3174
        51.0004         39.7504
  24191577.0974    -895100.04749   -695012.86346                  24191577.4454
        39.0004         20.5004
  20567716.6224   -1844685.92249  -1428908.03948                  20567714.4494
        51.0004         41.2504
  20727643.0924   -1938060.17249  -1502988.98448                  20727641.0764
        51.2504         40.0004
  20673656.9574   -3328528.21149  -2575168.92648                  20673654.0274
        51.5004         41.5004
  23870743.7934      64952.16849     46522.78146                  23870745.3824
        40.2504         22.5004
 04  7 15 15 30 45.0000000  0  9G 3G 6G14G15G16G18G21G22G26
  22274988.7084   -4480861.37549  -3467345.62947                  22274988.5104
        44.2504         32.7504
  23713483.2934     361255.05149    275288.97746                  23713484.2664
        42.7504         24.2504
  23306996.2194   -5667836.46549  -4381283.96147                  23306997.7234
        41.2504         28.5004
  20775341.1954   -4068439.60249  -3149081.67648                  20775340.1774
        50.7504         40.0004
  24188714.4034    -910143.79349   -706735.34446                  24188714.9674
        38.2504         21.0004
  20561665.7484   -1876483.74249  -1453685.57048                  20561663.6094
        51.0004         41.0004
  20721250.8874   -1971651.90249  -1529164.36348                  20721249.6174
        50.7504         40.2504
  20662503.9774   -3387137.74649  -2620838.69148                  20662500.8464
        52.2504         41.2504
  23871402.4664      68416.09049     49221.94546                  23871404.4564
        38.7504         22.5004
 04  7 15 15 31  0.0000000  0  9G 3G 6G14G15G16G18G21G22G26
  22260200.0604   -4558576.68749  -3527903.02347                  22260200.2834
        44.5004         33.5004
  23714873.0634     368559.85549    280980.94546                  23714874.9604
        42.5004         22.5004
  23287618.9394   -5769665.77349  -4460631.45747                  23287619.6544
        42.5004         28.0004
  20761646.1164   -4140407.18049  -3205160.31248                  20761645.3484
        51.0004         39.5004
  24185859.2564    -925144.38349   -718424.18446                  24185860.6254
        37.7504         20.5004
  20555627.0664   -1908216.69549  -1478412.55548                  20555624.9884
        50.5004         41.0004
  20714871.2494   -2005177.18749  -1555287.97748                  20714869.6314
        50.2504         40.5004
  20651366.0214   -3445668.10249  -2666446.76648                  20651363.1764
        52.0004         41.2504
  23872076.1444      71952.16049     51977.32846                  23872076.4944
        39.7504         21.7504
 04  7 15 15 31 15.0000000  0  9G 3G 6G14G15G16G18G21G22G26
  22245430.6684   -4636190.01649  -3588380.94147                  22245430.8784
        44.5004         32.5004
  23716267.0754     375883.52349    286687.62546                  23716268.0314
        43.0004         24.7504
  23268246.4074   -5871467.62949  -4539957.55147                  23268247.7024
        42.5004         29.0004
  20747958.6684   -4212334.30949  -3261207.42248                  20747958.2404
        50.7504         40.0004
  24183013.2024    -940103.83249   -730081.01646                  24183013.6654
        37.5004         20.0004
  20549600.7174   -1939886.73849  -1503090.52348                  20549598.6224
        50.0004         41.5004
  20708503.7734   -2038637.32449  -1581360.81248                  20708502.0294
        51.0004         40.5004
  20640242.7304   -3504120.94549  -2711994.43448                  20640239.6474
        52.5004         41.7504
  23872762.5224      75558.48849     54787.42246                  23872762.8664
        39.7504         21.7504
 04  7 15 15 31 30.0000000  0  9G 3G 6G14G15G16G18G21G22G26
  22230681.0704   -4713698.63349  -3648777.26647                  22230680.9684
        44.0004         32.2504
  23717665.4524     383228.32049    292410.73046                  23717666.1744
        43.2504         22.5004
  23248880.6514   -5973239.35249  -4619260.17647                  23248881.3524
        43.5004         29.0004
  20734279.5254   -4284218.41449  -3317221.01648                  20734279.0204
        51.5004         40.2504
  24180174.2094    -955020.00849   -741704.07046                  24180174.3664
        37.5004         18.5004
  20543586.5224   -1971491.45349  -1527717.59048                  20543584.3824
        50.7504         41.5004
  20702149.4034   -2072030.07449  -1607381.14848                  20702147.5634
        51.7504         40.5004
  20629134.7184   -3562494.08649  -2757480.00048                  20629131.8714
        51.7504         42.0004
  23873461.7834      79237.07049     57653.81646                  23873463.4954
        39.0004         22.0004
 04  7 15 15 31 45.0000000  0  9G 3G 6G14G15G16G18G21G22G26
  22215951.6614   -4791103.87149  -3709093.05147                  22215950.9054
        44.7504         32.7504
  23719066.6704     390592.21149    298148.77746                  23719067.1464
        42.0004         22.7504
  23229519.4454   -6074982.09049  -4698540.20347                  23229520.3954
        43.0004         29.2504
  20720608.6194   -4356060.90249  -3373202.17648                  20720607.6804
        51.0004         40.0004
  24177344.3594    -969895.02349   -753295.05546                  24177344.2694
        36.2504         18.5004
  20537584.3104   -2003032.74649  -1552295.22748                  20537582.1744
        50.2504         41.7504
  20695807.7934   -2105356.80149  -1633350.03548                  20695805.8514
        51.0004         40.0004
  20618041.8244   -3620789.12949  -2802904.71148                  20618038.3634
        52.0004         41.5004
  23874175.6664      82985.85549     60574.91846                  23874177.1314
        38.5004         21.5004
 04  7 15 15 32  0.0000000  0  9G 3G 6G14G15G16G18G21G22G26
  22201241.6924   -4868404.18049  -3769327.06247                  22201241.7194
        45.5004         33.7504
  23720471.7504     397976.39849    303902.61346                  23720473.1754
        42.5004         22.5004
  23210164.0964   -6176694.03149  -4777796.23447                  23210165.1334
        43.5004         29.5004
  20706945.5434   -4427860.24649  -3429149.71948                  20706944.8764
        51.5004         40.0004
  24174521.3234    -984727.78949   -764853.14846                  24174521.4004
        38.5004         20.0004
  20531594.4854   -2034509.40249  -1576822.50848                  20531592.4164
        50.5004         41.2504
  20689478.5484   -2138616.07849  -1659266.36348                  20689476.9334
        51.5004         40.0004
  20606963.4084   -3679004.70749  -2848267.50448                  20606960.2834
        51.5004         41.5004
  23874902.6874      86805.87149     63551.49246                  23874904.2474
        38.7504         22.7504
 04  7 15 15 32 15.0000000  0  9G 3G 6G14G15G16G18G21G22G26
  22186552.1124   -4945600.45749  -3829480.00847                  22186551.6264
        45.2504         33.5004
  23721880.7704     405379.23849    309670.96546                  23721881.9954
        42.5004         21.7504
  23190814.1954   -6278376.27049  -4857029.13347                  23190815.4434
        42.0004         30.0004
  20693290.5054   -4499617.51649  -3485064.46948                  20693289.9694
        51.0004         40.5004
  24171706.4664    -999519.93749   -776379.58246                  24171706.1784
        38.2504         19.2504
  20525616.4544   -2065922.81649  -1601300.50048                  20525614.5504
        51.0004         41.5004
  20683162.1664   -2171809.06649  -1685131.03948                  20683160.6984
        51.2504         39.7504
  20595900.4324   -3737142.22349  -2893569.46948                  20595897.2554
        52.0004         41.2504
  23875642.5044      90695.60249     66582.41046                  23875645.2174
        39.2504         22.5004
 04  7 15 15 32 30.0000000  0  9G 3G 6G14G15G16G18G21G22G26
  22171881.2634   -5022692.30949  -3889551.58247                  22171881.3324
        45.2504         32.7504
  23723292.6164     412800.56349    315453.74246                  23723294.0394
        42.2504         22.5004
  23171471.1714   -6380028.30549  -4936238.48447                  23171471.5514
        42.5004         30.2504
  20679643.4864   -4571332.40649  -3540946.20748                  20679642.8434
        50.7504         40.0004
  24168899.1474   -1014271.76249   -787874.59446                  24168899.3894
        38.0004         20.0004
  20519650.8744   -2097273.09049  -1625729.30148                  20519648.8624
        50.2504         41.5004
  20676858.2194   -2204935.55149  -1710943.89848                  20676856.8844
        51.2504         39.7504
  20584851.9014   -3795201.70349  -2938810.61748                  20584848.7314
        52.5004         41.0004
  23876396.5044      94654.59449     69667.30146                  23876398.2734
        39.5004         22.5004
 04  7 15 15 32 45.0000000  0  9G 3G 6G14G15G16G18G21G22G26
  22157231.8994   -5099678.87949  -3949541.11747                  22157231.6354
        45.0004         33.0004
  23724709.1064     420240.75449    321251.22346                  23724710.6524
        42.2504         22.7504
  23152133.2054   -6481649.03149  -5015423.44947                  23152134.0574
        44.0004         30.5004
  20666004.9574   -4643004.12149  -3596794.30148                  20666004.2514
        51.5004         40.0004
  24166100.3604   -1028982.90649   -799337.89146                  24166099.5234
        38.7504         19.5004
  20513697.0274   -2128559.67249  -1650108.46948                  20513694.9674
        50.7504         41.5004
  20670567.1304   -2237994.77349  -1736704.34848                  20670565.8774
        51.5004         40.0004
  20573818.4214   -3853182.39149  -2983990.37548                  20573815.6074
        51.7504         41.2504
  23877163.2434      98683.17649     72806.42246                  23877165.1684
        38.7504         22.7504
 04  7 15 15 33  0.0000000  0  9G 3G 6G14G15G16G18G21G22G26
  22442395.0224   -5176554.75049  -4009444.39547                  22442395.3064
        45.5004         33.2504
  24025920.6164     427699.12949    327062.85246                  24025921.7584
        43.0004         22.5004
  23432594.7184   -6583231.26649  -5094578.43047                  23432595.2794
        43.0004         31.2504
  20952168.1044   -4714627.69149  -3652604.87548                  20952167.2214
        51.0004         40.2504
  24463100.3254   -1043652.57049   -810768.93746                  24463100.4174
        39.0004         18.2504
  20807548.5354   -2159780.62549  -1674436.48448                  20807546.4584
        50.0004         41.2504
  20964082.2164   -2270984.56249  -1762410.68448                  20964080.4604
        50.7504         39.7504
  20862593.3874   -3911080.53949  -3029105.81248                  20862590.4384
        51.5004         41.0004
  24177734.9124     102780.73449     75999.27346                  24177737.2524
        39.2504         22.5004
 04  7 15 15 33 15.0000000  0  9G 3G 6G14G15G16G18G21G22G26
  22427785.3364   -5253330.02049  -4069269.28947                  22427784.4084
        45.5004         33.0004
  24027343.6024     435176.12549    332889.01246                  24027345.1844
        43.7504         24.2504
  23413269.3974   -6684788.48849  -5173713.90247                  23413270.1504
        44.5004         30.7504
  20938545.6434   -4786212.65249  -3708385.36348                  20938544.9564
        51.5004         40.2504
  24460316.7594   -1058283.52049   -822169.70346                  24460316.8804
        39.5004         18.5004
  20801619.0364   -2190940.52349  -1698716.93748                  20801616.7184
        50.7504         41.5004
  20957816.7534   -2303909.32849  -1788066.35948                  20957815.3194
        51.5004         40.0004
  20851590.0814   -3968904.19549  -3074163.21548                  20851586.9784
        51.0004         41.5004
  24178527.5184     106947.35949     79245.94146                  24178530.3554
        39.0004         22.0004
 04  7 15 15 33 30.0000000  0  9G 3G 6G14G15G16G18G21G22G26
  22413195.7794   -5330000.25049  -4129012.32847                  22413195.2434
        45.7504         32.7504
  24028769.9154     442670.10249    338728.37946                  24028771.3394
        43.5004         25.2504
  23393949.6034   -6786314.49649  -5252825.05147                  23393950.2614
        43.7504         31.0004
  20924931.6244   -4857755.03949  -3764132.67248                  20924931.1314
        51.0004         39.7504
  24457540.3944   -1072876.04749   -833540.59046                  24457540.1074
        39.0004         20.0004
  20795701.4284   -2222038.37549  -1722949.04348                  20795699.3094
        50.2504         41.2504
  20951563.9114   -2336767.73849  -1813670.32848                  20951562.8204
        50.5004         40.2504
  20840601.2284   -4026650.45749  -3119160.29748                  20840598.3754
        51.5004         41.5004
  24179334.0814     111181.26649     82545.03946                  24179335.5374
        39.2504         21.0004
 04  7 15 15 33 45.0000000  0  9G 3G 6G14G15G16G18G21G22G26
  22398625.9004   -5406563.77049  -4188672.22347                  22398626.1324
        45.2504         33.0004
  24030199.5424     450182.11749    344581.81646                  24030201.0604
        43.7504         24.7504
  23374636.3984   -6887807.43049  -5331910.44147                  23374636.4294
        44.0004         30.5004
  20911326.0274   -4929253.18049  -3819845.52348                  20911325.4074
        51.0004         40.5004
  24454770.7524   -1087428.93049   -844880.61346                  24454770.7824
        41.0004         19.2504
  20789795.7574   -2253072.71549  -1747131.65648                  20789793.6034
        49.5004         41.5004
  20945324.4064   -2369558.27349  -1839221.41048                  20945322.8494
        51.5004         40.5004
  20829627.4944   -4084317.84049  -3164095.92248                  20829624.6734
        52.0004         41.5004
  24180152.8114     115483.67649     85897.52346                  24180154.1144
        38.7504         22.0004
 04  7 15 15 34  0.0000000  0  9G 3G 6G14G15G16G18G21G22G26
  22384077.1434   -5483020.60249  -4248248.96547                  22384076.9234
        46.7504         33.7504
  24031632.4854     457711.66049    350448.91446                  24031633.7614
        43.5004         22.7504
  23355330.3094   -6989267.21949  -5410970.00047                  23355329.4994
        44.0004         30.5004
  20897728.6614   -5000707.19949  -3875523.96948                  20897727.7294
        51.2504         40.5004
  24452009.4294   -1101942.83649   -856190.19546                  24452009.6254
        40.0004         19.2504
  20783902.0054   -2284044.13749  -1771265.24248                  20783900.0544
        50.2504         41.0004
  20939097.3064   -2402281.03949  -1864719.68448                  20939095.9854
        51.2504         40.5004
  20818668.5874   -4141906.75049  -3208970.39848                  20818666.1474
        52.0004         41.5004
  24180983.5324     119853.89549     89302.86346                  24180985.3504
        39.5004         21.5004
 04  7 15 15 34 15.0000000  0  9G 3G 6G14G15G16G18G21G22G26
  22369547.2254   -5559371.34449  -4307743.06247                  22369547.2694
        46.0004         33.5004
  24033068.7434     465257.50449    356328.68846                  24033069.7214
        44.0004         25.5004
  23336028.2094   -7090694.47749  -5490004.21547                  23336028.6014
        44.5004         30.7504
  20884140.1914   -5072117.88349  -3931168.66048                  20884139.1964
        51.2504         40.5004
  24449254.8034   -1116419.18049   -867470.54746                  24449254.3744
        41.2504         19.5004
  20778019.9664   -2314953.85249  -1795350.74248                  20778018.2274
        50.5004         41.0004
  20932883.1084   -2434936.94949  -1890165.85548                  20932881.4004
        51.7504         40.5004
  20807724.5724   -4199418.37149  -3253784.65248                  20807721.8444
        51.2504         41.0004
  24181828.6434     124290.59849     92759.99646                  24181829.9984
        37.5004         19.5004
 04  7 15 15 34 30.0000000  0  9G 3G 6G14G15G16G18G21G22G26
  22355039.0454   -5635615.59849  -4367154.18047                  22355038.2514
        46.5004         33.5004
  24034507.7304     472819.60949    362221.14546                  24034509.1424
        44.0004         23.7504
  23316733.6914   -7192088.67649  -5569012.67647                  23316733.9114
        43.7504         29.5004
  20870559.4074   -5143484.69949  -3986779.16848                  20870559.0264
        50.5004         40.5004
  24446506.8174   -1130857.98849   -878721.63746                  24446507.2224
        41.5004         20.0004
  20772149.9434   -2345801.75849  -1819388.08248                  20772147.8084
        50.0004         41.2504
  20926681.9044   -2467525.66049  -1915559.67248                  20926680.0674
        51.5004         39.7504
  20796795.1794   -4256852.41449  -3298538.44948                  20796792.2174
        51.2504         41.7504
  24182684.8774     128793.70349     96268.85946                  24182687.1004
        37.0004         19.2504
 04  7 15 15 34 45.0000000  0  9G 3G 6G14G15G16G18G21G22G26
  22340550.9404   -5711752.44549  -4426481.59847                  22340550.0914
        46.2504         33.5004
  24035949.5254     480398.37149    368126.62146                  24035951.3604
        44.2504         25.0004
  23297445.1924   -7293448.71949  -5647994.50447                  23297445.0464
        44.2504         29.7504
  20856987.1664   -5214806.88749  -4042354.89148                  20856986.3314
        50.0004         40.0004
  24443766.7584   -1145258.87149   -889943.16846                  24443767.1134
        42.0004         20.0004
  20766291.5744   -2376587.39849  -1843376.90248                  20766289.6634
        50.7504         41.5004
  20920493.0574   -2500046.48449  -1940900.58648                  20920491.4844
        51.7504         39.7504
  20785880.6094   -4314208.30149  -3343231.35548                  20785877.7934
        50.2504         42.0004
  24183554.9964     133363.49649     99829.69146                  24183556.2084
        37.0004         17.5004
 04  7 15 15 35  0.0000000  0  9G 3G 6G14G15G16G18G21G22G26
  22326082.3454   -5787782.32849  -4485725.67247                  22326082.3094
        47.0004         33.5004
  24037394.4644     487992.71549    374044.20347                  24037396.8784
        43.7504         26.0004
  23278163.2684   -7394774.83649  -5726949.89847                  23278163.9264
        43.5004         30.2504
  20843423.2374   -5286084.85949  -4097896.17648                  20843422.7754
        50.2504         40.5004
  24441033.7544   -1159622.98049   -901136.07046                  24441034.3284
        42.0004         20.5004
  20760445.0964   -2407311.33249  -1867317.64148                  20760443.4884
        50.2504         40.7504
  20914317.5614   -2532499.85949  -1966188.94548                  20914315.5104
        51.5004         39.5004
  20774981.1184   -4371486.77049  -3387863.91848                  20774978.1004
        50.7504         41.7504
  24184437.0934     137998.85949    103441.60946                  24184438.6314
        36.5004         19.0004
 04  7 15 15 35 15.0000000  0  9G 3G 6G14G15G16G18G21G22G26
  22311635.1734   -5863704.60949  -4544885.91047                  22311634.5794
        47.2504         33.0004
  24038842.9564     495602.86349    379974.10946                  24038845.3614
        43.0004         25.0004
  23258888.8484   -7496066.31249  -5805878.30547                  23258888.7894
        43.7504         30.0004
  20829868.1394   -5357318.09449  -4153402.58648                  20829867.7124
        50.2504         40.7504
  24438307.5134   -1173950.18449   -912300.17646                  24438308.9384
        41.5004         20.5004
  20754610.4024   -2437973.58649  -1891210.31248                  20754608.3594
        50.2504         41.2504
  20908155.0064   -2564885.35549  -1991424.40648                  20908153.1124
        52.2504         40.0004
  20764095.8844   -4428687.54349  -3432435.95348                  20764092.8844
        51.7504         42.5004
  24185331.4844     142699.78549    107104.61346                  24185333.4944
        37.0004         19.5004
 04  7 15 15 35 30.0000000  0  9G 3G 6G14G15G16G18G21G22G26
  22297208.0124   -5939519.79349  -4603962.68047                  22297207.8994
        46.2504         34.0004
  24040294.1194     503227.64149    385915.42247                  24040296.0044
        43.5004         26.2504
  23239619.9244   -7597323.69549  -5884780.14847                  23239620.2144
        42.7504         30.0004
  20816321.3984   -5428507.24249  -4208874.65648                  20816320.4894
        50.0004         41.0004
  24435587.6314   -1188241.68449   -923436.50046                  24435588.9934
        42.5004         21.2504
  20748786.9194   -2468575.04749  -1915055.61748                  20748785.1094
        49.7504         41.0004
  20902005.0504   -2597203.84449  -2016607.65648                  20902002.8854
        51.2504         39.5004
  20753225.4874   -4485811.48449  -3476948.12148                  20753222.6524
        50.7504         42.0004
  24186238.5404     147465.10549    110817.85246                  24186240.6364
        36.5004         17.5004
 04  7 15 15 35 45.0000000  0  9G 3G 6G14G15G16G18G21G22G26
  22282801.4254   -6015226.60949  -4662955.01647                  22282801.0644
        47.5004         33.0004
  24041748.0034     510867.95749    391868.82446                  24041750.6034
        43.0004         25.5004
  23220357.7274   -7698545.48449  -5963654.25447                  23220358.0634
        43.5004         30.2504
  20802782.7044   -5499651.17249  -4264311.48448                  20802782.3614
        50.7504         41.0004
  24432874.9504   -1202496.90249   -934544.50846                  24432875.7374
        42.0004         21.0004
  20742975.4694   -2499114.96149  -1938852.96148                  20742973.4824
        50.7504         40.7504
  20895867.6354   -2629454.39849  -2041737.97348                  20895865.8214
        52.2504         40.0004
  20742370.2394   -4542857.71549  -3521399.72348                  20742367.4454
        51.0004         42.0004
  24187157.3124     152295.43849    114581.68446                  24187159.6074
        36.5004         17.7504
 04  7 15 15 36  0.0000000  0  9G 3G 6G14G15G16G18G21G22G26
  22268415.3444   -6090825.17649  -4721862.97347                  22268414.9384
        48.2504         34.0004
  24043205.0874     518522.80949    397833.54346                  24043207.3464
        43.2504         24.2504
  23201102.8284   -7799731.89849  -6042500.78547                  23201102.9474
        44.0004         29.2504
  20789253.3224   -5570750.17649  -4319713.30148                  20789252.5064
        50.5004         40.7504
  24430169.2904   -1216716.58249   -945624.85546                  24430169.3584
        41.5004         21.0004
  20737175.2514   -2529593.90649  -1962602.79748                  20737173.4724
        50.0004         41.0004
  20889743.4954   -2661637.11349  -2066815.42248                  20889741.6474
        52.0004         39.5004
  20731529.1794   -4599826.77749  -3565791.19948                  20731526.1734
        51.0004         42.0004
  24188089.3874     157190.10549    118395.64546                  24188090.6644
        37.0004         18.5004
 04  7 15 15 36 15.0000000  0  9G 3G 6G14G15G16G18G21G22G26
  22254050.4334   -6166315.48849  -4780686.61747                  22254050.1584
        47.5004         34.2504
  24044663.6814     526192.00849    403809.47746                  24044666.3774
        42.5004         24.0004
  23181854.1684   -7900882.66049  -6121319.54347                  23181854.2204
        44.0004         28.7504
  20775732.2974   -5641804.03949  -4375079.94548                  20775731.8984
        51.0004         41.0004
  24427470.0064   -1230901.01649   -956677.71946                  24427470.4334
        41.0004         20.0004
  20731387.1304   -2560012.00049  -1986305.21948                  20731385.1524
        50.2504         40.5004
  20883632.2974   -2693751.97349  -2091839.99648                  20883630.4464
        51.5004         39.5004
  20720703.1734   -4656718.63349  -3610122.51248                  20720700.4534
        50.7504         42.0004
  24189033.4674     162148.63749    122259.43446                  24189034.5314
        37.7504         19.2504
 04  7 15 15 36 30.0000000  0  9G 3G 6G14G15G16G18G21G22G26
  22239705.1244   -6241697.57449  -4839425.88747                  22239705.2414
        47.0004         33.7504
  24046126.0604     533874.84049    409796.00846                  24046128.8284
        43.5004         24.2504
  23162612.7904   -8001997.78549  -6200110.52047                  23162613.1234
        42.2504         29.5004
  20762219.6644   -5712813.00049  -4430411.60248                  20762218.9304
        49.5004         40.7504
  24424776.9984   -1245051.20749   -967703.92646                  24424777.7524
        42.5004         19.2504
  20725610.1624   -2590370.00049  -2009960.81248                  20725608.4814
        50.5004         40.0004
  20877533.5784   -2725799.34049  -2116811.99248                  20877532.0834
        51.0004         39.5004
  20709891.7894   -4713533.93449  -3654394.18448                  20709888.7194
        49.5004         41.7504
  24189987.8034     167170.01249    126172.17246                  24189990.6494
        37.2504         18.2504
 04  7 15 15 36 45.0000000  0  9G 3G 6G14G15G16G18G21G22G26
  22225380.9904   -6316971.25049  -4898080.71147                  22225381.0094
        47.5004         33.0004
  24047590.7364     541570.93849    415792.89847                  24047594.3984
        43.0004         25.7504
  23143377.8264   -8103077.00049  -6278873.53147                  23143378.6204
        43.2504         29.0004
  20748715.7894   -5783776.98449  -4485708.21548                  20748714.8764
        48.7504         40.5004
  24422091.5104   -1259167.41049   -978703.62546                  24422091.6344
        41.5004         21.0004
  20719844.7934   -2620668.02049  -2033569.66848                  20719842.8364
        50.5004         40.5004
  20871448.2244   -2757779.14549  -2141731.33247                  20871446.2504
        51.2504         39.2504
  20699094.5354   -4770272.77049  -3698606.25848                  20699091.6024
        49.2504         41.5004
  24190955.7104     172254.03148    130133.66846                  24190958.6014
        35.0004         18.2504
 04  7 15 15 37  0.0000000  0  9G 3G 6G14G15G16G18G21G22G26
  22211077.6734   -6392136.41049  -4956650.97747                  22211077.0174
        47.0004         33.0004
  24049058.1904     549279.98049    421799.83646                  24049060.6774
        42.7504         22.5004
  23124150.1934   -8204120.00849  -6357608.31247                  23124150.1744
        42.2504         28.7504
  20735220.2974   -5854695.87149  -4540969.68748                  20735219.8964
        47.7504         40.2504
  24419411.5984   -1273250.09049   -989677.22746                  24419412.9654
        41.0004         20.5004
  20714090.5744   -2650906.55149  -2057132.17648                  20714088.5194
        50.2504         40.5004
  20865375.4224   -2789691.53949  -2166598.14548                  20865373.8454
        51.5004         39.5004
  20688312.1624   -4826935.39549  -3742758.95748                  20688309.2124
        48.2504         41.2504
  24191934.5704     177400.07048    134143.48846                  24191937.7924
        34.2504         16.2504
 04  7 15 15 37 15.0000000  0  9G 3G 6G14G15G16G18G21G22G26
  22196795.0834   -6467192.98049  -5015136.61747                  22196794.3224
        47.7504         33.5004
  24050527.3354     557001.39149    427816.44946                  24050530.1734
        42.5004         24.7504
  23104928.9874   -8305126.53549  -6436314.68447                  23104929.1294
        43.7504         29.5004
  20721733.2794   -5925569.55949  -4596195.93448                  20721732.5514
        50.0004         40.0004
  24416738.0104   -1287299.78549  -1000625.08246                  24416739.5834
        41.0004         21.7504
  20708347.5374   -2681085.63349  -2080648.35248                  20708345.7344
        50.2504         41.0004
  20859316.0384   -2821536.20749  -2191412.18748                  20859314.3074
        51.2504         39.7504
  20677543.9744   -4883521.90249  -3786852.33648                  20677540.9624
        50.2504         41.7504
  24192926.0824     182607.71948    138201.37546                  24192928.9404
        35.5004         17.0004
 04  7 15 15 37 30.0000000  0  9G 3G 6G14G15G16G18G21G22G26
  22182533.1074   -6542140.01649  -5073536.89847                  22182532.8054
        47.2504         33.7504
  24051998.3514     564735.64149    433843.04746                  24052002.0214
        41.7504         22.7504
  23085715.1454   -8406095.74249  -6514991.95347                  23085715.3394
        43.2504         29.0004
  20708255.3404   -5996397.30149  -4651386.37548                  20708254.5844
        51.0004         40.2504
  24414070.7794   -1301316.18449  -1011547.03946                  24414071.6734
        40.5004         20.5004
  20702615.7014   -2711204.98049  -2104117.98048                  20702613.7124
        50.2504         40.7504
  20853268.6864   -2853312.81249  -2216173.18748                  20853267.5564
        51.2504         39.5004
  20666790.2334   -4940031.86349  -3830886.07048                  20666787.4984
        50.5004         41.7504
  24193928.4284     187877.16448    142307.38346                  24193931.6724
        35.7504         16.2504
 04  7 15 15 37 45.0000000  0  9G 3G 6G14G15G16G18G21G22G26
  22168292.0134   -6616976.21549  -5131850.82447                  22168291.5474
        47.7504         33.5004
  24053473.0154     572483.52349    439880.29746                  24053476.5764
        42.0004         24.5004
  23066508.5224   -8507025.98049  -6593638.86747                  23066508.7044
        41.2504         29.5004
  20694786.3754   -6067177.66449  -4706539.91048                  20694785.4814
        50.0004         40.5004
  24411410.1774   -1315298.62549  -1022442.49646                  24411410.6394
        40.5004         20.5004
  20696896.2054   -2741263.36349  -2127540.10248                  20696894.1624
        50.2504         41.0004
  20847234.9254   -2885020.19949  -2240880.26248                  20847233.7624
        50.7504         39.5004
  20656051.6924   -4996464.06249  -3874859.21148                  20656049.0184
        50.5004         41.5004
  24194944.2924     193209.23448    146462.19546                  24194946.0874
        35.7504         17.7504
 04  7 15 15 38  0.0000000  0  9G 3G 6G14G15G16G18G21G22G26
  22154072.1114   -6691703.76649  -5190080.09047                  22154071.2284
        47.2504         34.0004
  24054949.5234     580242.31649    445926.01646                  24054953.4604
        41.5004         22.5004
  23047309.5224   -8607919.37949  -6672257.07447                  23047309.4234
        40.7504         29.2504
  20681325.6834   -6137913.05949  -4761658.39548                  20681324.6474
        47.7504         40.2504
  24408755.6574   -1329249.79749  -1033313.62546                  24408756.4434
        41.0004         21.7504
  20691187.2764   -2771263.53149  -2150916.86348                  20691185.5814
        49.7504         40.7504
  20841213.8024   -2916660.72749  -2265535.23448                  20841212.7624
        50.7504         39.5004
  20645327.3264   -5052821.16849  -3918773.84048                  20645324.2804
        48.0004         41.7504
  24195969.9184     198601.01648    150663.52746                  24195971.6944
        34.2504         15.5004
 04  7 15 15 38 15.0000000  0  9G 3G 6G14G15G16G18G21G22G26
  22139873.0034   -6766321.38749  -5248223.69947                  22139872.5624
        47.7504         33.7504
  24056428.8964     588012.60949    451980.69946                  24056431.7074
        41.7504         22.2504
  23028116.9484   -8708774.74249  -6750845.64147                  23028117.5944
        42.5004         29.2504
  20667874.1494   -6208602.35249  -4816740.96548                  20667872.9624
        48.5004         40.5004
  24406107.3564   -1343169.32049  -1044160.07846                  24406107.3644
        40.5004         21.0004
  20685489.4474   -2801204.90249  -2174247.81248                  20685487.7434
        50.5004         40.5004
  20835205.8984   -2948233.43449  -2290137.35548                  20835204.4324
        50.5004         39.5004
  20634617.3314   -5109102.47749  -3962629.41048                  20634614.6184
        48.0004         41.5004
  24197006.6704     204053.07448    154911.85946                  24197010.0624
        34.7504         17.5004
 04  7 15 15 38 30.0000000  0  9G 3G 6G14G15G16G18G21G22G26
  22125694.7814   -6840829.02749  -5306281.59847                  22125694.2004
        45.7504         33.5004
  24057909.1304     595793.97349    458044.00446                  24057913.2974
        40.5004         22.5004
  23008931.8724   -8809591.78149  -6829404.34447                  23008932.5174
        43.2504         28.7504
  20654431.1134   -6279245.44149  -4871787.52048                  20654430.0894
        49.5004         40.2504
  24403464.2294   -1357057.47349  -1054982.09446                  24403464.9754
        39.0004         20.5004
  20679803.1624   -2831087.62549  -2197533.06248                  20679801.2424
        49.2504         40.7504
  20829210.7754   -2979738.12949  -2314686.48448                  20829209.7384
        51.0004         39.7504
  20623921.7184   -5165307.93749  -4006425.86748                  20623918.5944
        49.2504         41.7504
  24198056.4644     209564.86348    159206.68446                  24198059.1354
        34.0004         14.7504
 04  7 15 15 38 45.0000000  0  9G 3G 6G14G15G16G18G21G22G26
  22111537.0984   -6915226.40249  -5364253.58247                  22111536.7944
        47.0004         33.7504
  24059391.9734     603586.31349    464115.88346                  24059396.1324
        40.5004         22.2504
  22989754.4694   -8910370.05149  -6907932.84047                  22989754.9404
        43.2504         29.5004
  20640996.9844   -6349842.02749  -4926797.84848                  20640996.0504
        47.5004         40.0004
  24400827.1844   -1370914.59849  -1065779.89846                  24400827.7984
        39.7504         21.2504
  20674127.6114   -2860911.85249  -2220772.72748                  20674125.6354
        50.0004         40.5004
  20823228.4134   -3011174.70749  -2339182.52748                  20823227.6684
        51.2504         40.0004
  20613240.7284   -5221437.68049  -4050163.32848                  20613237.9964
        48.0004         41.7504
  24199115.3344     215136.14148    163547.89846                  24199119.2214
        34.5004         16.2504
 04  7 15 15 39  0.0000000  0 10G 3G 6G14G15G16G18G21G22G26G 9
  22097400.8254   -6989513.12949  -5422139.34447                  22097399.6544
        46.7504         33.5004
  24060876.8014     611389.30949    470196.04746                  24060880.6604
        41.5004         22.5004
  22970584.5114   -9011109.16449  -6986430.82047                  22970584.9304
        42.7504         29.5004
  20627571.8134   -6420391.80949  -4981771.71148                  20627570.4994
        48.0004         39.7504
  24398196.3954   -1384741.05149  -1076553.82846                  24398197.9344
        39.5004         22.5004
  20668463.8114   -2890677.44549  -2243966.70348                  20668461.5334
        49.5004         41.2504
  20817259.3544   -3042543.00049  -2363625.36748                  20817258.3334
        50.5004         39.5004
  20602573.8544   -5277491.59049  -4093841.70348                  20602571.0044
        48.7504         41.7504
  24200187.5104     220766.66848    167935.23446                  24200190.1844
        35.0004         17.0004
  24357737.4204     -44850.22759
        41.0004
 04  7 15 15 39 15.0000000  0 10G 3G 6G14G15G16G18G21G22G26G 9
  22083285.5774   -7063689.36349  -5479939.01647                  22083284.9134
        46.0004         33.5004
  24062363.2794     619202.51249    476284.19146                  24062367.5614
        40.7504         22.2504
  22951422.1324   -9111809.19949  -7064898.35547                  22951422.0904
        44.0004         30.0004
  20614155.4284   -6490895.08649  -5036709.32448                  20614154.4624
        48.0004         40.2504
  24395571.0124   -1398537.45349  -1087304.29346                  24395572.3684
        38.2504         21.7504
  20662810.1664   -2920385.20349  -2267115.61348                  20662808.4114
        49.2504         40.0004
  20811302.8754   -3073843.34049  -2388015.25448                  20811302.0224
        51.5004         39.7504
  20591921.4654   -5333470.15249  -4137461.35548                  20591918.6044
        48.0004         41.2504
  24201269.9494     226455.69948    172368.20346                  24201272.6964
        34.2504         16.2504
  24342505.4124    -124898.53149    -83306.92656                  24342507.0254
        41.0004         21.7504
 04  7 15 15 39 30.0000000  0 10G 3G 6G14G15G16G18G21G22G26G 9
  22069191.0614   -7137755.19949  -5537652.65647                  22069191.0434
        47.0004         34.0004
  24063852.4294     627025.01249    482379.53946                  24063856.5654
        39.5004         22.5004
  22932267.2944   -9212470.06249  -7143335.37147                  22932267.0624
        41.2504         29.2504
  20600748.1844   -6561352.03949  -5091610.85248                  20600747.4344
        48.5004         40.0004
  24392950.9474   -1412304.56649  -1098031.98046                  24392952.3634
        40.0004         22.2504
  20657167.8264   -2950035.78149  -2290219.96948                  20657166.2224
        49.2504         40.5004
  20805359.7134   -3105075.94949  -2412352.36748                  20805358.6754
        51.5004         40.2504
  20581283.4644   -5389373.93449  -4181022.74648                  20581280.3114
        48.5004         41.7504
  24202363.7164     232202.28948    176845.98846                  24202366.4034
        34.0004         14.7504
  24327283.8504    -204889.85249   -145637.79746                  24327285.5144
        41.2504         21.0004
 04  7 15 15 39 45.0000000  0 10G 3G 6G14G15G16G18G21G22G26G 9
  22055118.4004   -7211710.79749  -5595280.39547                  22055117.9224
        46.2504         33.5004
  24065342.0304     634856.22349    488481.69946                  24065346.5694
        41.0004         22.5004
  22913118.9784   -9313091.78949  -7221741.88347                  22913119.7694
        43.2504         29.0004
  20587349.3994   -6631762.79749  -5146476.38348                  20587348.3314
        48.0004         40.0004
  24390336.9804   -1426043.12149  -1108737.43746                  24390338.1714
        38.5004         21.2504
  20651536.7544   -2979629.60549  -2313280.10248                  20651534.7834
        49.2504         40.5004
  20799429.2734   -3136241.27349  -2436637.05148                  20799427.8994
        51.2504         39.5004
  20570659.3044   -5445203.35549  -4224526.19148                  20570656.6124
        48.2504         41.7504
  24203468.0664     238006.01248    181368.40246                  24203470.7484
        34.7504         14.7504
  24312072.3994    -284824.16449   -207924.25846                  24312074.7984
        41.0004         21.2504
 04  7 15 15 40  0.0000000  0 10G 3G 6G14G15G16G18G21G22G26G 9
  22041065.6484   -7285556.35549  -5652822.38747                  22041065.0234
        46.5004         33.5004
  24066834.4014     642695.54349    494590.19546                  24066838.0974
        42.5004         22.5004
  22893978.9414   -9413674.43049  -7300117.91847                  22893979.6854
        43.0004         30.2504
  20573959.5194   -6702127.58649  -5201306.08248                  20573958.7054
        50.0004         40.0004
  24387728.3264   -1439753.94949  -1119421.26246                  24387728.9904
        38.5004         20.5004
  20645915.7164   -3009167.07049  -2336296.31648                  20645914.1274
        50.2504         40.5004
  20793511.4274   -3167339.53949  -2460869.47748                  20793509.9654
        52.0004         39.7504
  20560049.4714   -5500958.89149  -4267972.07848                  20560046.5574
        49.0004         42.0004
  24204582.8884     243865.80548    185934.35546                  24204584.7344
        33.2504         16.2504
  24296872.3774    -364701.43049   -270166.24646                  24296874.6364
        41.5004         20.0004
 04  7 15 15 40 15.0000000  0 10G 3G 6G14G15G16G18G21G22G26G 9
  22027034.7154   -7359291.53949  -5710278.38747                  22027033.6264
        45.7504         33.5004
  24068328.1914     650542.75049    500704.81346                  24068331.5404
        41.5004         22.7504
  22874845.8384   -9514217.55949  -7378463.19947                  22874846.5674
        41.0004         30.2504
  20560578.3884   -6772446.15649  -5256099.77348                  20560577.2084
        47.5004         40.0004
  24385124.4264   -1453437.18449  -1130083.59846                  24385125.4894
        39.2504         21.2504
  20640305.9174   -3038648.28549  -2359268.70748                  20640304.0514
        49.2504         40.7504
  20787606.4984   -3198370.56649  -2485049.52048                  20787605.3784
        51.5004         39.7504
  20549453.6714   -5556640.58649  -4311360.40248                  20549450.5384
        48.7504         41.5004
  24205708.8644     249781.57448    190544.01646                  24205710.3294
        32.7504         14.0004
  24281682.5504    -444521.14549   -332363.40246                  24281685.2074
        40.0004         20.0004
 04  7 15 15 40 30.0000000  0 10G 3G 6G14G15G16G18G21G22G26G 9
  22013023.8694   -7432916.82849  -5767648.74647                  22013023.4274
        47.0004         33.5004
  24069822.4564     658396.70749    506824.69546                  24069826.7934
        41.0004         22.5004
  22855720.7634   -9614721.46549  -7456777.89547                  22855721.7104
        41.5004         30.5004
  20547205.5934   -6842719.15649  -5310857.95748                  20547204.7944
        50.2504         40.5004
  24382524.9164   -1467094.01249  -1140725.34046                  24382526.0254
        39.7504         22.5004
  20634705.9034   -3068074.17249  -2382197.98048                  20634704.2584
        49.7504         41.0004
  20781714.1144   -3229335.00049  -2509177.66048                  20781712.5754
        51.0004         39.7504
  20538871.7714   -5612249.20349  -4354691.78948                  20538868.5374
        50.5004         41.7504
  24206845.6274     255752.00048    195196.18846                  24206846.9244
        33.5004         14.0004
  24266504.5564    -524283.68049   -394516.01246                  24266506.6714
        39.5004         18.5004
 04  7 15 15 40 45.0000000  0 10G 3G 6G14G15G16G18G21G22G26G 9
  21999034.4354   -7506432.01249  -5824933.30947                  21999034.4054
        46.0004         34.2504
  24071319.0154     666257.12949    512949.61746                  24071322.5484
        42.5004         23.0004
  22836602.6364   -9715185.96549  -7535061.87947                  22836603.8764
        44.0004         30.5004
  20533842.0474   -6912946.34849  -5365580.44548                  20533840.8404
        48.5004         40.2504
  24379931.1684   -1480724.82449  -1151346.82446                  24379932.3344
        38.5004         22.5004
  20629116.9024   -3097445.04749  -2405084.39148                  20629115.3474
        49.5004         40.5004
  20775834.5054   -3260232.85949  -2533253.93048                  20775832.9804
        51.0004         39.5004
  20528303.7404   -5667784.84849  -4397966.32048                  20528300.6494
        48.5004         41.5004
  24207992.4604     261777.00848    199890.98446                  24207993.6934
        35.2504         16.2504
  24251336.5434    -603988.67249   -456623.77046                  24251339.0734
        38.7504         18.2504
 04  7 15 15 41  0.0000000  0 10G 3G 6G14G15G16G18G21G22G26G 9
  21985066.0484   -7579835.66049  -5882130.95747                  21985065.9454
        46.5004         34.0004
  24072815.7654     674124.94149    519080.31346                  24072819.5794
        42.2504         22.2504
  22817492.5964   -9815609.62149  -7613314.03947                  22817494.3394
        41.5004         30.5004
  20520487.1624   -6983126.31249  -5420266.13348                  20520486.6144
        48.5004         40.2504
  24377342.9454   -1494328.73849  -1161947.35246                  24377343.5614
        38.7504         22.0004
  20623538.7814   -3126759.69549  -2427926.98048                  20623536.7814
        50.0004         40.7504
  20769967.7554   -3291062.87949  -2557277.33648                  20769966.3334
        51.0004         39.5004
  20517749.7694   -5723246.48849  -4441183.18048                  20517746.2364
        49.0004         42.2504
  24209149.5814     267857.00448    204628.55946                  24209150.9344
        34.5004         14.7504
  24236180.3524    -683634.45749   -518685.43446                  24236182.7154
        38.2504         18.2504
 04  7 15 15 41 15.0000000  0 10G 3G 6G14G15G16G18G21G22G26G 9
  22270912.9584   -7653122.24249  -5939237.37547                  22270912.4514
        47.5004         33.5004
  24374106.1344     681999.87949    525216.55946                  24374110.5704
        41.7504         23.0004
  23098184.6464   -9915984.66849  -7691528.32847                  23098185.3064
        42.0004         30.5004
  20806934.6204   -7053253.66849  -5474910.81248                  20806933.6824
        49.2504         40.5004
  24674551.4614   -1507904.73449  -1172526.10946                  24674552.3364
        39.5004         21.2504
  20917763.9234   -3156016.01249  -2450724.12148                  20917762.1454
        50.0004         40.7504
  21063906.5694   -3321822.52349  -2581245.90648                  21063905.5634
        51.2504         39.7504
  20807002.8364   -5778630.06649  -4484339.21548                  20806999.8134
        49.7504         41.7504
  24510109.6134     273991.90648    209409.00846                  24510111.2694
        35.2504         16.2504
  24520829.3084    -763214.90249   -580696.16846                  24520831.6414
        38.7504         19.0004
 04  7 15 15 41 30.0000000  0 10G 3G 6G14G15G16G18G21G22G26G 9
  22256986.9904   -7726302.92649  -5996261.29347                  22256986.3654
        47.2504         33.5004
  24375606.7454     689881.02349    531357.60946                  24375610.5954
        41.5004         23.0004
  23079090.2304  -10016325.89549  -7769716.25447                  23079091.3794
        43.0004         31.0004
  20793597.8624   -7123339.26649  -5529522.97348                  20793597.3294
        50.5004         40.5004
  24671973.1194   -1521456.64149  -1183086.12546                  24671973.3914
        38.2504         21.0004
  20912206.5524   -3185219.78149  -2473480.32048                  20912204.7564
        49.7504         40.5004
  21058065.9514   -3352517.40649  -2605164.00848                  21058064.6444
        51.2504         39.7504
  20796477.1254   -5833944.66449  -4527441.49648                  20796473.5704
        50.7504         41.2504
  24511286.9654     280180.44548    214231.20746                  24511289.8334
        34.0004         16.2504
  24505695.3574    -842741.96149   -642665.26646                  24505698.3184
        38.0004         18.2504
 04  7 15 15 41 45.0000000  0 10G 3G 6G14G15G16G18G21G22G26G 9
  22243082.7504   -7799370.20749  -6053196.84047                  22243082.1694
        48.0004         34.0004
  24377107.8404     697769.85549    537504.68446                  24377111.6684
        42.0004         22.2504
  23060003.8264  -10116623.88749  -7847870.49647                  23060005.4754
        42.5004         30.0004
  20780270.3294   -7193375.85249  -5584096.93448                  20780269.7744
        49.0004         40.2504
  24669398.8464   -1534981.59849  -1193625.13346                  24669399.9284
        36.7504         21.5004
  20906660.2454   -3214366.74249  -2496192.24648                  20906658.4204
        49.5004         40.5004
  21052238.0594   -3383142.95349  -2629028.08248                  21052236.3044
        50.5004         39.7504
  20785965.0844   -5889184.32049  -4570485.38748                  20785962.2504
        50.2504         41.5004
  24512475.6164     286424.25448    219096.45346                  24512478.3494
        33.5004         15.5004
  24490573.6954    -922207.35549   -704586.28146                  24490576.6414
        39.2504         20.0004
 04  7 15 15 42  0.0000000  0 10G 3G 6G14G15G16G18G21G22G26G 9
  22229199.9594   -7872324.87149  -6110044.63347                  22229199.2484
        47.5004         34.0004
  24378610.7614     705665.20349    543656.81646                  24378614.1184
        42.0004         22.5004
  23040926.1394  -10216879.23049  -7925991.50047                  23040927.2394
        41.2504         30.2504
  20766951.7834   -7263364.21549  -5638633.32448                  20766950.6454
        50.2504         40.0004
  24666830.5334   -1548481.01249  -1204144.22746                  24666830.6574
        38.7504         21.2504
  20901124.1144   -3243457.99649  -2518860.75848                  20901122.5344
        50.5004         40.7504
  21046423.3594   -3413700.14849  -2652838.90248                  21046421.8114
        51.5004         39.5004
  20775467.4564   -5944350.07849  -4613471.69148                  20775464.1694
        49.7504         41.7504
  24513673.8244     292722.00048    224003.69546                  24513676.5854
        33.2504         15.5004
  24475463.4604   -1001611.62149   -766459.76646                  24475466.7804
        38.5004         19.2504
 04  7 15 15 42 15.0000000  0 10G 3G 6G14G15G16G18G21G22G26G 9
  22215338.5204   -7945165.97349  -6166803.93047                  22215338.3984
        48.2504         34.2504
  24380113.5754     713567.38749    549814.31646                  24380117.3114
        41.7504         22.5004
  23021856.5534  -10317090.89849  -8004078.48047                  23021857.0974
        41.5004         30.2504
  20753642.6374   -7333303.50449  -5693131.46948                  20753642.0964
        50.2504         40.0004
  24664266.6044   -1561954.40249  -1214643.05146                  24664266.8124
        38.2504         21.0004
  20895599.0594   -3272493.14849  -2541485.56648                  20895597.1864
        50.7504         40.2504
  21040621.6874   -3444188.24649  -2676595.88348                  21040619.9324
        51.0004         39.5004
  20764984.0084   -5999441.23449  -4656399.85948                  20764980.9454
        50.7504         41.7504
  24514882.2384     299073.87948    228953.12146                  24514885.0144
        33.7504         15.5004
  24460366.3564   -1080953.77049   -828284.77046                  24460368.7084
        40.0004         20.5004
 04  7 15 15 42 30.0000000  0 10G 3G 6G14G15G16G18G21G22G26G 9
  22201498.9574   -8017893.43449  -6223474.68747                  22201499.2354
        48.0004         34.2504
  24381619.1274     721475.98849    555976.77746                  24381622.9424
        41.7504         22.5004
  23002795.5284  -10417258.80149  -8082131.34847                  23002795.7534
        41.2504         30.2504
  20740343.2894   -7403193.77049  -5747591.42248                  20740342.5144
        50.0004         40.2504
  24661707.4104   -1575402.40649  -1225122.05946                  24661707.8914
        37.7504         20.5004
  20890084.4034   -3301472.53949  -2564066.91448                  20890082.8714
        50.2504         40.5004
  21034833.3514   -3474607.43449  -2700299.15648                  21034831.7324
        51.7504         39.7504
  20754514.5294   -6054458.19549  -4699270.22748                  20754511.5604
        49.5004         41.0004
  24516100.3094     305479.54348    233944.53946                  24516103.7024
        32.2504         15.5004
  24445279.2974   -1160233.52749   -890061.18746                  24445282.6124
        40.2504         20.0004
 04  7 15 15 42 45.0000000  0 10G 3G 6G14G15G16G18G21G22G26G 9
  22187681.3264   -8090506.64549  -6280056.40647                  22187680.9214
        47.7504         34.7504
  24383124.8584     729391.14549    562144.34046                  24383129.2004
        41.0004         21.2504
  22983742.3544  -10517382.05949  -8160149.42647                  22983743.1394
        42.5004         30.2504
  20727052.8454   -7473034.32449  -5802012.63748                  20727051.8174
        50.2504         40.2504
  24659153.0024   -1588824.91849  -1235581.25046                  24659153.7444
        39.2504         20.5004
  20884580.3454   -3330395.78949  -2586604.52748                  20884578.9394
        50.2504         40.5004
  21029057.7654   -3504957.03549  -2723948.20348                  21029056.2254
        52.0004         39.5004
  20744059.2694   -6109400.57849  -4742082.46948                  20744056.2644
        50.7504         41.2504
  24517330.3414     311938.94948
        32.0004
  24430205.6364   -1239450.01649   -951788.28546                  24430207.7414
        40.0004         20.5004
 04  7 15 15 43  0.0000000  0 10G 3G 6G14G15G16G18G21G22G26G 9
  22173885.2804   -8163006.82049  -6336550.05547                  22173884.2874
        48.0004         35.0004
  24384632.7924     737311.06649    568315.63746                  24384636.4954
        41.2504         21.7504
  22964697.4864  -10617461.75849  -8238133.57447                  22964698.1894
        41.0004         30.7504
  20713771.9704   -7542826.40649  -5856396.07848                  20713771.2674
        50.0004         40.0004
  24656603.9024   -1602223.71149  -1246021.91446                  24656604.8774
        38.0004         21.0004
  20879086.7814   -3359264.53949  -2609099.66448                  20879085.4234
        50.5004         40.5004
  21023295.4244   -3535238.49249  -2747544.16848                  21023294.1424
        52.0004         39.7504
  20733618.2594   -6164269.91449  -4784837.78948                  20733615.1634
        50.5004         41.5004
  24518570.0154     318450.20748
        32.2504
  24415143.0974   -1318604.28949  -1013466.89846                  24415145.1214
        41.0004         20.5004
 04  7 15 15 43 15.0000000  0 10G 3G 6G14G15G16G18G21G22G26G 9
  22160110.7054   -8235390.86349  -6392953.20747                  22160110.4524
        48.7504         35.0004
  24386141.2954     745238.32449    574492.68446                  24386144.9954
        42.0004         22.5004
  22945662.1194  -10717494.85549  -8316081.40647                  22945663.0154
        42.2504         29.7504
  20700500.5194   -7612567.08649  -5910739.46548                  20700500.1174
        51.0004         40.0004
  24654058.4734   -1615596.43049  -1256442.30946                  24654059.9214
        37.5004         21.5004
  20873604.2644   -3388076.28149  -2631550.39148                  20873602.6934
        50.7504         40.5004
  21017546.4404   -3565448.99649  -2771084.83248                  21017544.7944
        51.7504         40.2504
  20723191.4014   -6219063.59049  -4827534.15648                  20723188.3844
        51.0004         41.7504
  24519819.5674     325015.64148
        33.0004
  24400091.9614   -1397693.25849  -1075094.62546                  24400094.8414
        40.0004         21.0004
 04  7 15 15 43 30.0000000  0  9G 3G 6G14G15G16G18G21G22G 9
  22146358.4014   -8307660.28549  -6449267.04347                  22146358.4064
        48.5004         34.7504
  24387650.8894     753170.94949    580673.89546                  24387654.2504
        42.0004         22.5004
  22926635.0264  -10817482.62949  -8393993.90647                  22926635.6574
        43.5004         30.0004
  20687239.0724   -7682257.84849  -5965043.95348                  20687237.8864
        51.2504         40.0004
  24651518.7924   -1628945.10249  -1266843.93046                  24651520.3564
        36.7504         21.0004
  20868132.3204   -3416832.61749  -2653957.93048                  20868130.5254
        50.5004         40.2504
  21011811.0564   -3595590.07849  -2794571.40648                  21011809.0184
        52.2504         40.0004
  20712778.3834   -6273783.26249  -4870172.85248                  20712775.4644
        52.0004         41.7504
  24385054.7144   -1476718.04749  -1136672.33246                  24385057.3654
        39.7504         21.5004
 04  7 15 15 43 45.0000000  0  9G 3G 6G14G15G16G18G21G22G 9
  22132627.8334   -8379814.39549  -6505491.02347                  22132628.0824
        48.2504         34.7504
  24389161.4334     761109.19149    586859.47346                  24389165.1494
        41.5004         22.5004
  22907616.9584  -10917424.10249  -8471870.34847                  22907617.2444
        42.0004         30.2504
  20673986.6714   -7751897.94549  -6019308.96948                  20673985.9334
        51.0004         40.5004
  24648983.6894   -1642269.53149  -1277226.67646                  24648984.5244
        38.2504         20.5004
  20862670.2844   -3445533.50449  -2676322.26648                  20862668.6214
        51.0004         40.2504
  21006088.6464   -3625661.18049  -2818003.44948                  21006086.8294
        52.5004         39.7504
  20702379.8394   -6328428.61749  -4912753.65648                  20702376.8894
        51.0004         41.2504
  24370028.9214   -1555677.84849  -1198199.42246                  24370031.6924
        40.5004         20.5004
 04  7 15 15 44  0.0000000  0  9G 3G 6G14G15G16G18G21G22G 9
  22118919.8294   -8451852.03149  -6561624.24647                  22118919.3014
        49.0004         34.2504
  24390673.1714     769053.56649    593049.83246                  24390677.0124
        42.5004         22.5004
  22888607.4794  -11017318.23449  -8549709.87947                  22888608.1924
        43.2504         30.0004
  20660744.4734   -7821486.44549  -6073533.76648                  20660743.8434
        51.0004         40.5004
  24646452.6564   -1655569.18049  -1287590.09046                  24646453.9964
        36.5004         20.0004
  20857219.8044   -3474178.16449  -2698642.80148                  20857218.1424
        50.5004         40.5004
  21000379.9964   -3655661.37149  -2841380.23048                  21000377.9354
        52.0004         40.2504
  20691995.3844   -6382998.90249  -4955275.94548                  20691992.3584
        51.2504         41.0004
  24355015.7264   -1634571.30949  -1259674.81246                  24355018.8574
        41.5004         22.5004
 04  7 15 15 44 15.0000000  0  9G 3G 6G14G15G16G18G21G22G 9
  22105233.8764   -8523772.27349  -6617665.99647                  22105233.1684
        48.5004         34.7504
  24392186.6104     777004.40649    599245.24246                  24392190.1744
        42.0004         22.2504
  22869607.5954  -11117163.90649  -8627511.68447                  22869608.1574
        42.2504         30.0004
  20647512.5704   -7891022.41449  -6127717.64548                  20647511.7304
        51.0004         40.0004
  24643926.0504   -1668843.72749  -1297934.00046                  24643928.1644
        36.2504         21.2504
  20851779.6294   -3502765.99649  -2720919.03948                  20851777.8144
        50.5004         41.2504
  20994684.7544   -3685589.84849  -2864701.14148                  20994683.0204
        52.5004         40.5004
  20681625.2554   -6437493.48849  -4997739.26648                  20681621.9744
        50.2504         41.5004
  24340016.1744   -1713397.31649  -1321097.62146                  24340019.0804
        40.5004         22.2504
 04  7 15 15 44 30.0000000  0  9G 3G 6G14G15G16G18G21G22G 9
  22091569.6874   -8595575.46149  -6673616.53147                  22091569.1654
        48.7504         34.7504
  24393699.9864     784961.08649    605445.17646                  24393704.2484
        41.5004         22.2504
  22850616.8414  -11216961.17649  -8705275.75847                  22850617.0104
        43.2504         30.5004
  20634290.1884   -7960506.09449  -6181860.77348                  20634289.1994
        50.2504         40.5004
  24641405.6954   -1682094.02749  -1308259.01246                  24641406.5734
        36.7504         21.0004
  20846350.4644   -3531297.71149  -2743151.55148                  20846348.5924
        50.7504         40.5004
  20989002.9134   -3715447.13749  -2887966.57448                  20989000.9864
        52.2504         40.5004
  20671269.4804   -6491912.86749  -5040143.97748                  20671266.7314
        50.7504         41.2504
  24325028.3164   -1792156.02349  -1382468.01246                  24325032.2184
        39.7504         22.5004
 04  7 15 15 44 45.0000000  0  9G 3G 6G14G15G16G18G21G22G 9
  22077929.0394   -8667260.47349  -6729474.98447                  22077928.6284
        49.0004         35.0004
  24395215.6464     792924.10549    611650.05946                  24395220.0224
        41.7504         21.7504
  22831635.0634  -11316708.92649  -8783001.23447                  22831636.0434
        43.0004         31.0004
  20621077.8594   -8029936.43449  -6235962.33648                  20621077.0084
        50.5004         40.2504
  24638887.5034   -1695319.60249  -1318564.73846                  24638890.0824
        36.2504         20.0004
  20840931.7214   -3559772.55549  -2765339.75448                  20840930.0684
        51.0004         40.5004
  20983335.0444   -3745232.27749  -2911175.78548                  20983333.2334
        52.0004         39.5004
  20660928.3774   -6546256.27349  -5082489.48448                  20660925.5034
        50.2504         41.5004
  24310054.2284   -1870846.17249  -1443784.94946                  24310056.8744
        40.2504         22.0004
 04  7 15 15 45  0.0000000  0  9G 3G 6G14G15G16G18G21G22G 9
  22064310.4334   -8738825.83649  -6785240.20747                  22064309.9734
        47.5004         36.0004
  24396732.4164     800894.57049    617860.71946                  24396736.2154
        41.7504         23.0004
  22812663.8044  -11416405.46149  -8860686.80147                  22812664.8054
        43.2504         30.5004
  20607875.9944   -8099311.92249  -6290021.16448                  20607875.2424
        49.7504         40.2504
  24636376.0644   -1708519.48448  -1328850.43446                  24636378.8584
        34.2504         20.0004
  20835524.1564   -3588189.31249  -2787482.69548                  20835522.3984
        50.5004         40.7504
  20977680.9574   -3774943.79349  -2934327.64148                  20977679.1644
        52.0004         40.0004
  20650601.9394   -6600522.45749  -5124774.82048                  20650599.0224
        51.0004         41.0004
  24295093.5644   -1949465.92649  -1505047.04746                  24295096.7994
        41.0004         21.5004
 04  7 15 15 45 15.0000000  0  9G 3G 6G14G15G16G18G21G22G 9
  22050714.4374   -8810272.71549  -6840913.10247                  22050714.4684
        49.5004         35.2504
  24398251.2994     808870.67249    624075.82046                  24398254.0234
        42.5004         21.7504
  22793701.7234  -11516051.83649  -8938333.29347                  22793702.5654
        42.0004         31.2504
  20594684.8074   -8168633.87949  -6344038.26648                  20594683.9664
        50.2504         39.7504
  24633868.8074   -1721695.48049  -1339117.51646                  24633870.8124
        37.5004         20.5004
  20830127.2974   -3616549.60549  -2809581.63348                  20830125.6554
        50.7504         40.5004
  20972040.8444   -3804583.16849  -2957423.26648                  20972039.0644
        51.7504         39.7504
  20640289.6244   -6654713.00049  -5167001.21948                  20640286.6544
        49.5004         41.5004
  24280145.6154   -2028016.31649  -1566255.08246                  24280148.9374
        40.2504         21.5004
 04  7 15 15 45 30.0000000  0  9G 3G 6G14G15G16G18G21G22G 9
  22037141.1694   -8881600.80549  -6896493.43047                  22037140.8414
        48.5004         36.0004
  24399769.5354     816852.38749    630295.28546                  24399772.5154
        42.2504         21.5004
  22774749.1264  -11615647.66049  -9015940.39547                  22774749.6404
        44.2504         31.0004
  20581503.4604   -8237901.91449  -6398013.37148                  20581502.5834
        50.2504         40.5004
  24631366.3544   -1734847.70749  -1349366.10246                  24631367.7064
        37.7504         21.5004
  20824741.1434   -3644853.66449  -2831636.76248                  20824739.5534
        51.0004         40.5004
  20966414.6204   -3834150.14149  -2980462.47748                  20966412.7374
        51.5004         39.5004
  20629992.2304   -6708827.97749  -5209168.72748                  20629988.8724
        50.0004         41.7504
  24265211.4144   -2106496.80549  -1627408.66446                  24265214.5444
        39.5004         22.0004
 04  7 15 15 45 45.0000000  0  9G 3G 6G14G15G16G18G21G22G 9
  22023590.5294   -8952809.97749  -6951981.10547                  22023590.5404
        48.2504         35.5004
  24401289.3504     824839.25049    636518.78546                  24401292.5844
        41.0004         21.7504
  22755806.6224  -11715192.63349  -9093507.87147                  22755807.4144
        42.7504         31.2504
  20568332.3084   -8307115.95749  -6451946.37948                  20568331.7654
        50.2504         40.0004
  24628868.4524   -1747976.79749  -1359596.66046                  24628869.6894
        37.2504         21.0004
  20819365.9494   -3673101.53549  -2853648.08648                  20819364.2774
        51.2504         40.5004
  20960801.9894   -3863644.73449  -3003445.28548                  20960799.8154
        52.2504         40.0004
  20619708.7504   -6762867.38749  -5251277.36348                  20619705.7164
        50.2504         41.2504
  24250289.9334   -2184907.14149  -1688507.57846                  24250293.1734
        39.0004         20.5004
 04  7 15 15 46  0.0000000  0  9G 3G 6G14G15G16G18G21G22G 9
  22010062.5314   -9023899.94549  -7007375.87947                  22010062.3334
        48.2504         35.7504
  24402810.0374     832831.09449    642746.14146                  24402813.2544
        41.5004         22.2504
  22736873.3694  -11814686.20749  -9171035.30147                  22736874.2514
        45.5004         31.5004
  20555171.7354   -8376275.69949  -6505837.09848                  20555170.5124
        50.5004         40.2504
  24626373.9314   -1761082.87949  -1369809.26246                  24626375.7354
        37.0004         21.0004
  20814000.7314   -3701293.36749  -2875615.75848                  20813999.4894
        51.0004         40.2504
  20955203.0654   -3893066.84049  -3026371.61348                  20955201.5454
        51.7504         39.5004
  20609439.7244   -6816831.33249  -5293327.20348                  20609436.6514
        49.5004         41.5004
  24235382.4884   -2263246.79349  -1749551.42246                  24235385.0524
        39.0004         19.2504
 04  7 15 15 46 15.0000000  0  9G 3G 6G14G15G16G18G21G22G 9
  21996557.0494   -9094870.71549  -7062677.78947                  21996556.9684
        48.5004         35.5004
  24404331.8604     840827.28949    648976.91046                  24404335.1384
        40.7504         21.5004
  22717950.3924  -11914128.50449  -9248522.77047                  22717950.7404
        43.5004         31.0004
  20542021.6314   -8445381.29749  -6559685.61748                  20542020.7094
        48.7504         40.7504
  24623884.3874   -1774166.62949  -1380004.46946                  24623885.5744
        37.2504         21.2504
  20808647.0754   -3729429.65649  -2897540.14548                  20808645.5754
        51.0004         41.0004
  20949617.9124   -3922416.55949  -3049241.53948                  20949616.3774
        52.0004         40.5004
  20599184.8114   -6870720.26249  -5335318.57848                  20599182.0864
        48.7504         41.2504
  24220488.1954   -2341515.76249  -1810540.17246                  24220491.0834
        38.7504         20.5004
 04  7 15 15 46 30.0000000  0  9G 3G 6G14G15G16G18G21G22G 9
  21983074.7844   -9165721.77749  -7117886.41047                  21983074.6574
        47.5004         35.7504
  24405854.2774     848827.82049    655211.05546                  24405857.9744
        41.2504         21.2504
  22699037.0424  -12013518.80149  -9325969.72347                  22699037.1084
        45.0004         31.5004
  20528881.6624   -8514432.16849  -6613491.49648                  20528880.4124
        49.7504         40.0004
  24621399.1554   -1787228.19149  -1390182.39146                  24621399.6644
        39.5004         21.0004
  20803303.1314   -3757510.14849  -2919421.06248                  20803301.8844
        50.2504         40.7504
  20944047.0154   -3951693.76249  -3072054.96548                  20944045.0204
        51.7504         40.0004
  20588944.5444   -6924533.80149  -5377251.20348                  20588941.8954
        50.0004         41.2504
  24205608.0744   -2419713.11349  -1871473.10946                  24205610.3714
        40.2504         21.0004
 04  7 15 15 46 45.0000000  0  9G 3G 6G14G15G16G18G21G22G 9
  21969614.9284   -9236454.43049  -7173002.76247                  21969614.9734
        48.5004         35.5004
  24407376.6964     856830.96949    661447.28946                  24407380.5304
        39.5004         20.5004
  22680133.6334  -12112858.25049  -9403377.05147                  22680133.7994
        43.7504         32.2504
  20515751.9294   -8583429.71149  -6667255.81648                  20515750.6844
        50.2504         40.2504
  24618917.0434   -1800269.32849  -1400344.39546                  24618917.9554
        39.2504         21.0004
  20797970.1344   -3785536.54349  -2941259.82048                  20797968.6294
        51.0004         40.7504
  20938489.4304   -3980899.60249  -3094812.77348                  20938487.5574
        52.0004         39.7504
  20578718.1734   -6978273.62949  -5419126.39548                  20578715.6044
        49.5004         41.7504
  24190740.3164   -2497840.05149  -1932351.18046                  24190743.3344
        40.0004         21.0004
 04  7 15 15 47  0.0000000  0  8G 3G14G15G16G18G21G22G 9
  21956177.7304   -9307066.96549  -7228025.52747                  21956177.9904
        47.5004         35.5004
  22661239.5904  -12212145.01649  -9480743.32447                  22661240.0004
        45.0004         31.2504
  20502632.2404   -8652372.18049  -6720977.21948                  20502631.2214
        48.5004         39.7504
  24616439.4554   -1813289.02049  -1410489.65246                  24616440.3594
        39.0004         20.0004
  20792647.3534   -3813507.59449  -2963055.44948                  20792645.7904
        50.7504         40.7504
  20932945.4994   -4010032.64549  -3117513.86348                  20932943.5194
        52.0004         40.0004
  20568506.4074   -7031938.38349  -5460943.09048                  20568503.1834
        48.5004         41.2504
  24175887.6874   -2575894.71949  -1993172.95746                  24175890.2624
        40.5004         21.0004
 04  7 15 15 47 15.0000000  0  8G 3G14G15G16G18G21G22G 9
  21942763.1084   -9377560.18049  -7282955.30147                  21942762.8184
        48.7504         35.0004
  22642356.0914  -12311379.75449  -9558069.07047                  22642356.2334
        44.2504         32.7504
  20489523.4074   -8721260.32449  -6774656.29748                  20489522.4984
        49.5004         39.7504
  24613966.1664   -1826288.60949  -1420619.29346                  24613965.8654
        39.2504         21.0004
  20787335.2974   -3841424.43049  -2984808.83648                  20787333.2764
        51.0004         40.2504
  20927415.1404   -4039093.71949  -3140158.87548                  20927413.6754
        52.0004         40.0004
  20558308.2664   -7085529.16849  -5502702.14548                  20558305.2544
        49.0004         41.0004
  24161047.4994   -2653877.66049  -2053938.84446                  24161050.2204
        40.5004         21.7504
 04  7 15 15 47 30.0000000  0  8G 3G14G15G16G18G21G22G 9
  21929371.5074   -9447932.46549  -7337790.86347                  21929371.4684
        48.2504         35.0004
  22623482.2014  -12410560.63749  -9635352.84447                  22623482.7034
        44.2504         32.0004
  20476425.2754   -8790092.55949  -6828291.80948                  20476424.0684
        49.7504         40.0004
  24611496.5414   -1839266.97749  -1430732.34446                  24611496.3264
        39.7504         20.0004
  20782033.1944   -3869285.72749  -3006518.94148                  20782031.8444
        50.7504         39.5004
  20921899.0784   -4068081.52749  -3162746.78948                  20921897.2104
        52.0004         40.0004
  20548124.6584   -7139044.69149  -5544402.55148                  20548121.6074
        50.5004         41.5004
  24146221.5614   -2731787.19549  -2114647.47746                  24146224.5754
        41.7504         21.7504
 04  7 15 15 47 45.0000000  0  8G 3G14G15G16G18G21G22G 9
  21916003.6524   -9518182.79349  -7392531.37147                  21916003.5574
        48.7504         35.2504
  22604618.6394  -12509686.65649  -9712593.86747                  22604619.4684
        44.5004         32.0004
  20463337.4874   -8858867.88749  -6881882.97748                  20463336.7694
        49.2504         40.7504
  24609030.4884   -1852223.61749  -1440828.50446                  24609030.9214
        38.2504         20.0004
  20776741.7764   -3897090.91849  -3028185.33648                  20776740.2214
        50.7504         40.0004
  20916397.1284   -4096995.17649  -3185276.92648                  20916395.2664
        51.2504         39.7504
  20537955.3064   -7192484.18749  -5586043.72748                  20537952.6994
        49.5004         41.2504
  24131410.8574   -2809621.99649  -2175297.91446                  24131413.9054
        41.7504         22.5004
 04  7 15 15 48  0.0000000  0  7G 3G14G15G18G21G22G 9
  21902658.7894   -9588310.28549  -7447176.17647                  21902659.1224
        49.0004         36.0004
  22585766.8894  -12608756.57049  -9789791.16447                  22585767.3904
        44.0004         32.0004
  20450261.1134   -8927585.50449  -6935429.17248                  20450260.0744
        49.5004         40.7504
  20771461.5364   -3924839.45749  -3049807.57848                  20771460.0764
        51.0004         40.0004
  20910909.0294   -4125833.83649  -3207748.60948                  20910907.5144
        51.5004         40.0004
  20527800.5994   -7245847.15249  -5627625.25848                  20527798.0064
        49.5004         41.7504
  24116613.8814   -2887380.88749  -2235889.19546                  24116617.2924
        42.5004         23.0004
 04  7 15 15 48 15.0000000  0  7G 3G14G15G18G21G22G 9
  21889337.2864   -9658314.97349  -7501725.28547                  21889337.6614
        49.0004         35.5004
  22566925.0564  -12707770.49249  -9866944.83647                  22566925.3094
        43.7504         32.0004
  20437195.4274   -8996245.50449  -6988930.47748                  20437194.5554
        49.5004         41.0004
  20766191.6554   -3952531.95349  -3071386.16448                  20766190.5674
        50.7504         39.5004
  20905435.5084   -4154597.76249  -3230162.08248                  20905433.9864
        51.5004         39.7504
  20517660.7384   -7299133.91449  -5669147.41448                  20517657.9864
        49.0004         42.2504
  24101831.2734   -2965063.87949  -2296421.34846                  24101834.2374
        42.5004         22.5004
 04  7 15 15 48 30.0000000  0  7G 3G14G15G18G21G22G 9
  21876038.7284   -9728197.69149  -7556179.35247                  21876038.5084
        49.0004         35.2504
  22548094.1244  -12806729.00449  -9944055.32447                  22548094.0954
        43.0004         32.2504
  20424140.8054   -9064848.64549  -7042387.47748                  20424139.9744
        49.0004         40.0004
  20760933.1314   -3980169.40249  -3092921.85548                  20760931.6694
        51.0004         40.5004
  20899975.8984   -4183287.87149  -3252518.02048                  20899974.6274
        51.0004         39.7504
  20507534.9054   -7352345.55549  -5710611.03548                  20507531.7964
        48.7504         41.2504
  24087063.3884   -3042671.50049  -2356894.74646                  24087065.1264
        42.2504         22.5004
 04  7 15 15 48 45.0000000  0  7G 3G14G15G18G21G22G 9
  21862764.6674   -9797955.57849  -7610536.15647                  21862764.5024
        48.7504         35.5004
  22529273.9664  -12905629.16449 -10021120.34847                  22529273.8274
        44.0004         32.5004
  20411097.3564   -9133392.07449  -7095797.93048                  20411096.5214
        48.5004         40.5004
  20755684.3354   -4007749.37149  -3114412.74248                  20755683.0224
        50.7504         40.5004
  20894531.1494   -4211901.40249  -3274814.29748                  20894529.5434
        51.2504         40.0004
  20497424.0524   -7405479.43749  -5752014.06648                  20497421.2104
        48.5004         41.5004
  24072309.7734   -3120200.76249  -2417307.12146                  24072312.3624
        42.5004         22.5004
 04  7 15 15 49  0.0000000  0  7G 3G14G15G18G21G22G 9
  21849513.8694   -9867589.25049  -7664796.16847                  21849513.5814
        44.5004         35.0004
  22510464.8354  -13004471.42649 -10098140.25847                  22510464.7464
        43.0004         32.0004
  20398065.1584   -9201876.45749  -7149162.39548                  20398064.5634
        48.2504         40.0004
  20750446.7354   -4035272.83649  -3135859.60948                  20750445.1524
        48.2504         40.2504
  20889100.2564   -4240439.12949  -3297051.50848                  20889099.4304
        49.0004         39.7504
  20487327.5254   -7458536.61749  -5793357.32048                  20487324.4634
        49.5004         42.0004
  24057571.2574   -3197652.07849  -2477658.73846                  24057574.2584
        43.0004         22.2504
 04  7 15 15 49 15.0000000  0  7G 3G14G15G18G21G22G 9
  21836286.5934   -9937098.61349  -7718959.30547                  21836286.9384
        48.0004         36.0004
  22491666.8564  -13103255.59449 -10175114.89847                  22491666.9604
        43.7504         31.5004
  20385044.3934   -9270301.73049  -7202480.78948                  20385043.5014
        47.7504         40.5004
  20745220.1654   -4062740.02349  -3157262.61748                  20745218.6454
        49.0004         40.5004
  20883683.9384   -4268901.26649  -3319229.81248                  20883682.5794
        49.5004         39.7504
  20477245.2714   -7511517.29749  -5834640.96948                  20477242.3654
        48.0004         41.5004
  24042847.2664   -3275025.05949  -2537949.32446                  24042850.2174
        42.0004         22.7504
 04  7 15 15 49 30.0000000  0  7G 3G14G15G18G21G22G 9
  22122876.6154  -10006478.52749  -7773021.58247                  22122876.6154
        47.5004         35.5004
  22772673.5764  -13201974.33649 -10252038.55547                  22772673.3614
        42.5004         32.0004
  20671828.3034   -9338662.76649  -7255749.12548                  20671827.1874
        47.7504         40.5004
  21039797.1854   -4090149.00849  -3178620.28148                  21039795.4664
        50.7504         40.2504
  21178075.5654   -4297285.41049  -3341347.34448                  21178073.7724
        51.2504         40.0004
  20766971.5084   -7564417.73049  -5875862.08248                  20766968.6074
        47.7504         41.5004
  24327931.6394   -3352313.89849  -2598174.34446                  24327933.9154
        42.0004         22.2504
 04  7 15 15 49 45.0000000  0  7G 3G14G15G18G21G22G 9
  22109697.0354  -10075738.05949  -7826990.05147                  22109696.7774
        43.5004         35.5004
  22753897.4814  -13300640.41849 -10328921.19147                  22753897.8634
        43.0004         31.2504
  20658830.0464   -9406968.40249  -7308974.30148                  20658829.2824
        47.0004         41.0004
  21034591.3844   -4117503.45749  -3199935.45348                  21034590.3294
        51.0004         40.2504
  21172688.3594   -4325595.17649  -3363406.90648                  21172686.7614
        51.5004         39.5004
  20756918.5914   -7617244.85549  -5917026.08648                  20756915.6434
        49.7504         41.5004
  24313237.5114   -3429528.41049  -2658341.38346                  24313240.2994
        41.7504         21.7504
 04  7 15 15 50  0.0000000  0  7G 3G14G15G18G21G22G 9
  22096540.8424  -10144873.85249  -7880862.09847                  22096540.5174
        47.0004         36.0004
  22735133.9074  -13399248.31249 -10405758.47347                  22735133.5114
        43.0004         31.5004
  20645843.2754   -9475215.33249  -7362153.73448                  20645842.2974
        47.0004         40.2504
  21029396.6024   -4144803.16849  -3221207.96548                  21029395.0944
        51.0004         40.5004
  21167315.2454   -4353830.16449  -3385408.21947                  21167313.5924
        51.0004         39.0004
  20746880.2334   -7669996.88749  -5958131.55948                  20746877.3784
        48.0004         42.0004
  24298560.2464   -3506664.53949  -2718447.44946                  24298562.2574
        42.2504         22.0004
 04  7 15 15 50 15.0000000  0  7G 3G14G15G18G21G22G 9
  22083408.1224  -10213886.38349  -7934638.10247                  22083408.1294
        48.0004         36.0004
  22716379.7994  -13497798.42249 -10482550.72747                  22716379.9344
        43.7504         32.0004
  20632867.1804   -9543404.07049  -7415287.81648                  20632866.3854
        45.7504         40.5004
  21024211.8494   -4172049.08649  -3242438.55548                  21024210.1014
        50.7504         40.2504
  21161956.2464   -4381990.98449  -3407351.73448                  21161954.9584
        51.7504         39.5004
  20736856.1034   -7722674.46949  -5999179.02748                  20736853.2014
        46.0004         41.7504
  24283896.4124   -3583722.52749  -2778492.58246                  24283898.6174
        42.2504         21.5004
 04  7 15 15 50 30.0000000  0  7G 3G14G15G18G21G22G 9
  22070298.9134  -10282775.43749  -7988317.88347                  22070298.6204
        47.5004         35.0004
  22697637.7084  -13596290.33649 -10559297.64547                  22697637.2524
        43.7504         32.2504
  20619902.4524   -9611534.35249  -7468376.34848                  20619901.6804
        48.5004         40.5004
  21019037.4624   -4199241.30949  -3263627.30948                  21019035.7264
        51.0004         40.5004
  21156611.8224   -4410077.60949  -3429237.43447                  21156610.4174
        51.0004         39.2504
  20726845.9494   -7775277.68449  -6040168.54748                  20726843.1374
        49.2504         42.0004
  24269246.9874   -3660701.89149  -2838476.43746                  24269249.4824
        42.5004         22.2504
 04  7 15 15 50 45.0000000  0  7G 3G14G15G18G21G22G 9
  22057213.0314  -10351540.98449  -8041901.44147                  22057212.8244
        48.7504         36.0004
  22678906.2164  -13694723.92649 -10635999.10247                  22678906.0594
        41.7504         31.7504
  20606948.6634   -9679606.29349  -7521419.42248                  20606947.9754
        48.0004         40.5004
  21013873.1874   -4226380.24249  -3284774.53948                  21013871.3344
        51.0004         40.0004
  21151281.3194   -4438090.05949  -3451065.33247                  21151279.6024
        51.0004         39.2504
  20716850.0494   -7827806.84449  -6081100.35248                  20716846.8184
        48.7504         41.5004
  24254613.9854   -3737602.50849  -2898398.93446                  24254615.4544
        42.5004         22.7504
 04  7 15 15 51  0.0000000  0  8G 3G19G14G15G18G21G22G 9
  22044151.2824  -10420182.67649  -8095388.47747                  22044151.2144
        45.5004         35.2504
  24870175.2914
        30.7504
  22660186.0884  -13793098.75849 -10712654.79747                  22660186.0454
        42.2504         31.2504
  20594006.1824   -9747619.45749  -7574416.69148                  20594005.2284
        48.2504         41.0004
  21008718.6904   -4253465.98849  -3305880.32448                  21008717.2524
        48.0004         40.0004
  21145964.9194   -4466028.34049  -3472835.43447                  21145963.5304
        48.7504         39.2504
  20706868.0494   -7880262.02749  -6121974.52748                  20706865.2494
        50.0004         42.0004
  24239995.4524   -3814423.82049  -2958259.64546                  24239997.3274
        43.0004         22.7504
 04  7 15 15 51 15.0000000  0  8G 3G19G14G15G18G21G22G 9
  22031112.5084  -10488701.38749  -8148779.68047                  22031112.2624
        43.7504         35.7504
  24851675.3304    -282699.99248
        32.5004
  22641476.7744  -13891415.56249 -10789265.26247                  22641476.9054
        43.5004         31.5004
  20581074.8374   -9815574.73849  -7627368.85948                  20581073.7454
        46.0004         40.7504
  21003574.5894   -4280499.64549  -3326945.52348                  21003572.7554
        45.5004         39.7504
  21140662.4814   -4493893.12949  -3494548.27348                  21140660.8654
        46.0004         40.0004
  20696900.5274   -7932644.42249  -6162791.98448                  20696897.1034
        47.5004         41.7504
  24225391.6694   -3891166.59849  -3018059.14546                  24225393.4974
        44.0004         22.5004
 04  7 15 15 51 30.0000000  0  8G 3G19G14G15G18G21G22G 9
  22018096.7474  -10557098.66449  -8202076.26647                  22018096.7984
        43.5004         36.0004
  24833182.6994    -379875.28958
        32.0004
  22622778.6554  -13989675.58249 -10865831.47747                  22622778.6634
        44.7504         31.5004
  20568154.0204   -9883473.63349  -7680277.09448                  20568152.7904
        46.7504         41.0004
  20998439.8024   -4307483.04749  -3347971.56248                  20998437.9454
        49.2504         40.0004
  21135373.5074   -4521686.17649  -3516205.20748                  21135372.0574
        49.7504         39.7504
  20686945.8264   -7984955.78549  -6203554.08648                  20686942.7694
        48.0004         42.0004
  24210802.8764   -3967832.05949  -3077798.39546                  24210804.3794
        44.2504         23.5004
 04  7 15 15 51 45.0000000  0  8G 3G19G14G15G18G21G22G 9
  22005104.8854  -10625373.63349  -8255277.54747                  22005104.7694
        46.5004         35.7504
  24814698.8504
        30.2504
  22604091.4604  -14087877.98049 -10942352.80147                  22604091.4244
        44.2504         31.7504
  20555244.3154   -9951315.40249  -7733140.80948                  20555243.3924
        48.2504         41.2504
  20993314.6474   -4334415.77349  -3368958.10948                  20993312.7604
        51.2504         40.0004
  21130098.5334   -4549406.81249  -3537805.72348                  21130096.9104
        51.7504         39.5004
  20677004.7934   -8037195.59049  -6244260.43048                  20677001.6754
        48.2504         42.2504
  24196228.9314   -4044419.19149  -3137476.62146                  24196230.2084
        44.5004         25.0004
 04  7 15 15 52  0.0000000  0  8G 3G19G14G15G18G21G22G 9
  21992134.8394  -10693526.42249  -8308383.61747                  21992135.7374
        46.0004         36.2504
  24796220.2054
        29.0004
  22585415.3654  -14186022.68449 -11018829.16047                  22585414.6694
        45.0004         31.7504
  20542345.6504  -10019099.94149  -7785959.93448                  20542344.6494
        49.2504         41.0004
  20988198.8374   -4361298.21949  -3389905.48048                  20988197.3324
        51.5004         39.7504
  21124837.1344   -4577055.24249  -3559349.96148                  21124835.6454
        51.5004         39.5004
  20667077.5024   -8089364.09049  -6284911.20748                  20667074.5924
        48.7504         41.5004
  24181669.0274   -4120927.91849  -3197093.75846                  24181671.7234
        44.0004         24.0004
 04  7 15 15 52 15.0000000  0  8G 3G19G14G15G18G21G22G 9
  21979189.9354  -10761555.66049  -8361393.41047                  21979190.1674
        48.0004         35.7504
  24777750.8204
        30.0004
  22566749.6684  -14284108.18449 -11095259.38347                  22566749.7634
        44.5004         32.0004
  20529457.6294  -10086825.92249  -7838733.42248                  20529456.7144
        49.0004         41.5004
  20983093.4574   -4388129.40649  -3410812.91448                  20983091.5934
        51.0004         40.0004
  21119589.6924   -4604630.20349  -3580836.96147                  21119588.2204
        51.0004         39.0004
  20657163.8554   -8141460.28149  -6325505.64548                  20657160.6384
        48.2504         42.0004
  24167125.5094   -4197356.66449  -3256648.57046                  24167127.6504
        44.0004         25.5004
 04  7 15 15 52 30.0000000  0  8G 3G19G14G15G18G21G22G 9
  21966268.3174  -10829460.87149  -8414306.57447                  21966267.6674
        47.5004         36.2504
  24759289.3854    -768165.95758
        29.5004
  22548096.6434  -14382133.73049 -11171642.90247                  22548096.0784
        43.5004         32.5004
  20516581.0984  -10154492.87949  -7891460.92648                  20516580.0384
        48.2504         41.2504
  20977997.1624   -4414909.23049  -3431680.31648                  20977995.9394
        46.0004         40.0004
  21114356.7494   -4632131.46149  -3602266.52747                  21114354.8524
        47.7504         39.0004
  20647264.0034   -8193483.98849  -6366043.60548                  20647261.0984
        48.2504         42.2504
  24152596.3064   -4273704.72349  -3316140.53146                  24152598.7554
        44.5004         25.5004
 04  7 15 15 52 45.0000000  0  8G 3G19G14G15G18G21G22G 9
  21953369.4244  -10897243.34449  -8467124.07847                  21953369.6064
        47.5004         35.7504
  24740836.8264    -865134.02358
        30.7504
  22529453.6644  -14480100.49649 -11247980.60947                  22529453.4934
        44.0004         31.5004
  20503715.4604  -10222102.06649  -7944143.41448                  20503714.5594
        48.7504         40.5004
  20972910.7794   -4441639.24649  -3452508.91448                  20972909.3204
        45.5004         40.0004
  21109136.8974   -4659560.40649  -3623639.74647                  21109135.2284
        45.5004         38.5004
  20637377.8184   -8245436.82849  -6406526.34848                  20637374.8124
        47.5004         42.0004
  24138083.4774   -4349973.05149  -3375570.35946                  24138085.0774
        43.5004         25.5004
 04  7 15 15 53  0.0000000  0  7G 3G14G15G18G21G22G 9
  21940494.5704  -10964901.88349  -8519845.03547                  21940493.9894
        47.2504         36.0004
  22510822.6954  -14578007.07049 -11324271.41447                  22510822.6454
        43.2504         31.5004
  20490860.9454  -10289652.25049  -7996779.92248                  20490859.9254
        49.5004         41.0004
  20967833.6764   -4468318.56249  -3473298.01248                  20967832.2604
        45.0004         40.0004
  21103931.6184   -4686915.91449  -3644955.74247                  21103929.9324
        45.5004         39.2504
  20627505.4474   -8297317.78149  -6446953.06248                  20627502.3024
        47.5004         42.0004
  24123585.3694   -4426160.34849  -3434937.05547                  24123587.7904
        44.5004         26.0004
 04  7 15 15 53 15.0000000  0  7G 3G14G15G18G21G22G 9
  21927643.2224  -11032435.18449  -8572468.39147                  21927643.0524
        47.7504         36.0004
  22492203.6084  -14675852.07049 -11400514.24247                  22492203.4084
        43.5004         32.0004
  20478018.1414  -10357142.23049  -8049369.52348                  20478017.1544
        48.5004         41.7504
  20962766.6624   -4494946.40249  -3494046.98048                  20962765.2024
        45.2504         39.7504
  21098740.0674   -4714197.03149  -3666213.77747                  21098738.4214
        45.5004         39.0004
  20617646.4604   -8349125.98449  -6487323.10248                  20617643.7464
        48.5004         42.5004
  24109103.1194   -4502265.16449  -3494239.48046                  24109105.5804
        43.5004         24.0004
 04  7 15 15 53 30.0000000  0  8G 3G19G14G15G18G21G22G 9
  21914816.2094  -11099842.70349  -8624993.72347                  21914816.2424
        47.7504         36.0004
  24685532.4734
        33.2504
  22473595.7274  -14773634.92249 -11476708.64547                  22473595.7554
        43.0004         31.5004
  20465186.5024  -10424571.54749  -8101911.85248                  20465186.0994
        47.5004         41.2504
  20957709.4284   -4521522.53149  -3514755.67248                  20957707.8244
        45.2504         39.7504
  21093562.9554   -4741403.28549  -3687413.47747                  21093561.1984
        45.2504         39.0004
  20607801.2954   -8400861.31649  -6527636.34848                  20607798.4344
        48.0004         42.5004
  24094636.7564   -4578286.81249  -3553477.10947                  24094638.8654
        44.2504         26.2504
 04  7 15 15 53 45.0000000  0  8G 3G19G14G15G18G21G22G 9
  21902012.9164  -11167125.03949  -8677421.53147                  21902012.6734
        46.5004         36.2504
  24667114.7704
        31.5004
  22455000.6164  -14871355.94549 -11552854.87547                  22455000.3764
        44.2504         31.7504
  20452366.8794  -10491940.56649  -8154407.19948                  20452365.8384
        49.5004         41.5004
  20952662.0224   -4548047.85249  -3535424.76248                  20952660.3034
        45.2504         39.5004
  21088399.8554   -4768535.10949  -3708555.16047                  21088398.3634
        45.2504         38.7504
  20597970.5514   -8452524.34449  -6567893.25448                  20597967.3494
        48.0004         42.5004
  24080185.8844   -4654225.46949  -3612650.05546                  24080188.6034
        43.0004         24.7504
 04  7 15 15 54  0.0000000  0  8G 3G19G14G15G18G21G22G 9
  21889233.1094  -11234280.93049  -8729750.80947                  21889232.9974
        46.0004         35.7504
  24648707.8284   -1349313.91858
        30.0004
  22436416.5964  -14969013.66049 -11628951.79747                  22436416.6374
        43.0004         32.0004
  20439558.8474  -10559248.03549  -8206854.57848                  20439557.9184
        48.7504         41.7504
  20947624.3344   -4574521.28549  -3556053.42648                  20947622.5364
        45.0004         40.0004
  21083251.1334   -4795591.45749  -3729638.05147                  21083249.6914
        45.5004         39.2504
  20588153.3794   -8504114.18049  -6608093.12948                  20588150.2874
        48.5004         42.2504
  24065751.1954   -4730079.71149  -3671757.22746                  24065753.3314
        43.0004         23.5004
 04  7 15 15 54 15.0000000  0  8G 3G19G14G15G18G21G22G 9
  21876478.2274  -11301311.24649  -8781982.23047                  21876478.2424
        44.7504         35.7504
  24630308.3644
        28.0004
  22417844.7644  -15066608.79749 -11704999.89847                  22417844.8434
        43.0004         32.5004
  20426762.2644  -10626494.86749  -8259254.70748                  20426761.3224
        48.2504         41.2504
  20942596.1534   -4600944.09049  -3576642.63748                  20942594.1764
        47.2504         39.5004
  21078116.6664   -4822573.45349  -3750663.00047                  21078115.4684
        46.7504         39.0004
  20578349.5574   -8555632.06249  -6648236.93748                  20578346.7204
        47.5004         42.5004
  24051332.4104   -4805850.25849  -3730799.16846                  24051335.2254
        43.5004         24.7504
 04  7 15 15 54 30.0000000  0  7G 3G14G15G18G21G22G 9
  21863746.3344  -11368215.35249  -8834115.30147                  21863746.4444
        45.7504         36.0004
  22399285.1804  -15164140.66049 -11780998.71547                  22399285.2134
        45.0004         31.5004
  20413977.1194  -10693680.35249  -8311607.03948                  20413976.0174
        49.2504         41.2504
  20937577.6054   -4627315.97349  -3597192.16048                  20937576.4394
        50.7504         39.7504
  21072996.4814   -4849480.46149  -3771629.52047                  21072995.3124
        50.0004         39.0004
  20568559.9444   -8607077.51249  -6688324.30148                  20568556.8604
        47.5004         42.7504
  24036929.6534   -4881536.16849  -3789775.19946                  24036932.6734
        43.5004         24.7504
 04  7 15 15 54 45.0000000  0  7G 3G14G15G18G21G22G 9
  21851039.4914  -11434992.79349  -8886149.66847                  21851038.8144
        46.5004         35.7504
  22380737.4044  -15261608.55549 -11856947.69547                  22380737.4864
        43.0004         32.0004
  20401204.0884  -10760804.04349  -8363911.21548                  20401202.9894
        49.5004         41.2504
  20932568.8844   -4653637.03149  -3617702.09848                  20932567.3044
        51.2504         39.7504
  21067890.7294   -4876312.18049  -3792537.36747                  21067889.0224
        51.2504         38.0004
  20558784.0714   -8658450.41849  -6728355.13748                  20558780.8584
        49.7504         42.2504
  24022544.0544   -4957136.85949  -3848684.79746                  24022546.4964
        43.0004         25.5004
 04  7 15 15 55  0.0000000  0  7G 3G14G15G18G21G22G 9
  21838356.1134  -11501642.69149  -8938084.67247                  21838356.1304
        44.0004         36.0004
  22362202.1474  -15359011.43049 -11932846.00847                  22362202.2944
        43.2504         31.7504
  20388442.6154  -10827865.08649  -8416166.57048                  20388441.5504
        48.5004         41.2504
  20927569.9294   -4679906.52049  -3638171.83248                  20927568.5554
        51.0004         40.0004
  21062799.0864   -4903068.01649  -3813386.08247                  21062797.6024
        51.7504         38.0004
  20549021.8424   -8709750.23849  -6768329.02748                  20549019.1344
        49.0004         42.2504
  24008173.9734   -5032651.23449  -3907527.12546                  24008176.5184
        42.5004         25.2504
 04  7 15 15 55 15.0000000  0  7G 3G14G15G18G21G22G 9
  21825697.4324  -11568165.21149  -8989920.39847                  21825697.0184
        43.2504         35.0004
  22343679.7834  -15456349.37949 -12008693.72747                  22343679.1974
        42.5004         32.5004
  20375693.1294  -10894863.56249  -8468373.17648                  20375691.9444
        47.0004         41.5004
  20922580.6534   -4706124.97349  -3658601.81248                  20922579.0914
        50.5004         39.5004
  21057721.7724   -4929748.15649  -3834175.82447                  21057720.4084
        50.5004         38.5004
  20539273.9234   -8760977.35249  -6808246.26648                  20539270.8064
        47.7504         42.7504
  23993820.0294   -5108079.34449  -3966302.22747                  23993822.7504
        43.5004         25.7504
 04  7 15 15 55 30.0000000  0  7G 3G14G15G18G21G22G 9
  21813063.2674  -11634559.35549  -9041656.10247                  21813062.9724
        44.0004         35.5004
  22325168.8274  -15553621.00449 -12084489.76247                  22325169.0674
        44.0004         32.2504
  20362955.8594  -10961798.30149  -8520530.12548                  20362955.0814
        47.0004         41.5004
  20917601.3364   -4732291.57449  -3678991.39147                  20917599.9114
        50.7504         39.0004
  21052659.3444   -4956351.64849  -3854905.83247                  21052658.3984
        51.0004         39.0004
  20529539.5794   -8812130.90249  -6848106.17648                  20529536.2904
        49.7504         42.5004
  23979483.7704   -5183419.75849  -4025009.02347                  23979486.3174
        43.0004         26.7504
 04  7 15 15 55 45.0000000  0  7G 3G14G15G18G21G22G 9
  21800452.8094  -11700825.24649  -9093291.86347                  21800452.8854
        46.5004         35.0004
  22306671.5854  -15650826.45349 -12160234.23847                  22306671.3774
        45.2504         32.7504
  20350230.5044  -11028669.52749  -8572637.57448                  20350230.0244
        49.2504         41.2504
  20912631.7714   -4758407.00849  -3699341.08248                  20912630.3684
        51.0004         39.7504
  21047611.5634   -4982878.82449  -3875576.37947                  21047610.4884
        50.7504         38.0004
  20519819.2724   -8863211.52049  -6887909.24648                  20519816.2154
        49.5004         42.2504
  23965163.4444   -5258672.51249  -4083647.52047                  23965166.1314
        43.5004         26.0004
 04  7 15 15 56  0.0000000  0  8G 3G19G14G15G18G21G22G 9
  21787866.9864  -11766964.08649  -9144828.62547                  21787867.1534
        48.0004         35.5004
  24501742.9594    -222364.21958
        31.5004
  22288186.7524  -15747966.68749 -12235927.90247                  22288186.3494
        44.2504         33.0004
  20337517.6204  -11095478.39549  -8624696.42648                  20337516.6674
        49.0004         41.0004
  20907671.8384   -4784472.66849  -3719652.00848                  20907669.8524
        51.0004         39.7504
  21042577.6844   -5009330.86349  -3896188.37147                  21042576.9324
        50.0004         38.0004
  20510112.3954   -8914220.54349  -6927656.54348                  20510109.6764
        50.0004         43.0004
  23950859.9524   -5333838.48449  -4142218.34847                  23950862.7324
        44.0004         26.0004
 04  7 15 15 56 15.0000000  0  8G 3G19G14G15G18G21G22G 9
  21775306.0744  -11832973.47749  -9196264.52347                  21775305.9044
        48.7504         36.0004
  24483413.3944    -318679.78558
        28.2504
  22269713.9694  -15845039.18449 -12311568.78147                  22269714.2214
        44.5004         33.0004
  20324816.2444  -11162222.53549  -8676704.84848                  20324815.9114
        49.0004         41.0004
  20902721.2874   -4810486.59449  -3739922.61348                  20902720.0864
        50.5004         39.5004
  21037558.7164   -5035705.67649  -3916740.19547                  21037557.6494
        50.7504         38.2504
  20500419.8354   -8965155.89549  -6967346.43748                  20500417.1374
        49.7504         42.2504
  23936573.2964   -5408915.05949  -4200719.55147                  23936576.4724
        43.7504         25.7504
 04  7 15 15 56 30.0000000  0  8G 3G19G14G15G18G21G22G 9
  21762769.0664  -11898854.61749  -9247600.47347                  21762769.7854
        48.7504         36.5004
  24465093.3554
        26.0004
  22251254.8864  -15942044.98449 -12387157.69147                  22251254.4154
        47.0004         32.2504
  20312127.7934  -11228903.04749  -8728663.69548                  20312126.5544
        50.0004         41.2504
  20897780.2884   -4836450.22749  -3760154.01647                  20897779.0344
        50.2504         39.0004
  21032554.6974   -5062004.50849  -3937232.80947                  21032553.1744
        51.0004         37.5004
  20490741.1484   -9016019.11749  -7006980.11348                  20490738.2674
        49.2504         42.7504
  23922302.7764   -5483903.18749  -4259151.83247                  23922306.1984
        44.2504         27.0004
 04  7 15 15 56 45.0000000  0  7G 3G14G15G18G21G22G 9
  21750256.6964  -11964608.14849  -9298836.99647                  21750256.9824
        44.7504         36.2504
  22232807.6774  -16038984.49649 -12462694.94147                  22232807.2944
        45.2504         32.5004
  20299450.8724  -11295520.50449  -8780573.40648                  20299449.9054
        48.0004         41.2504
  20892849.5034   -4862364.54749  -3780347.01647                  20892847.7884
        50.5004         39.0004
  21027564.2324   -5088228.10249  -3957666.80547                  21027562.7734
        51.5004         37.5004
  20481075.5964   -9066811.12949  -7046558.30948                  20481072.4554
        49.2504         42.5004
  23908050.6564   -5558803.44549  -4317515.63347                  23908052.5414
        44.2504         26.0004
 04  7 15 15 57  0.0000000  0  7G 3G14G15G18G21G22G 9
  21737768.6384  -12030233.38749  -9349973.54347                  21737768.4564
        43.7504         35.5004
  22214373.7244  -16135856.81649 -12538179.82847                  22214373.2874
        47.0004         33.5004
  20286785.7204  -11362074.16449  -8832433.39848                  20286785.1604
        48.2504         41.5004
  20887927.4204   -4888229.17649  -3800501.28547                  20887925.9554
        50.7504         39.2504
  21022588.6374   -5114375.73849  -3978041.59847                  21022587.5934
        51.0004         38.0004
  20471423.7544   -9117531.34449  -7086080.55948                  20471420.6574
        50.0004         42.5004
  23893814.0164   -5633614.79349  -4375810.16046                  23893816.7184
        44.7504         25.5004
 04  7 15 15 57 15.0000000  0  7G 3G14G15G18G21G22G 9
  21725304.7994  -12095730.17249  -9401010.00847                  21725305.0454
        47.5004         36.0004
  22195952.4894  -16232661.57449 -12613612.07847                  22195951.6964
        46.0004         33.7504
  20274133.3094  -11428563.91849  -8884243.60248                  20274132.4524
        49.5004         41.5004
  20883014.9844   -4914044.28949  -3820616.96547                  20883013.7484
        51.0004         39.2504
  21017627.2094   -5140447.52049  -3998357.28547                  21017625.8444
        51.2504         38.2504
  20461785.5754   -9168179.99649  -7125547.04348                  20461782.7314
        49.0004         43.0004
  23879594.9474   -5708336.95349  -4434035.19146                  23879597.4544
        43.5004         25.5004
 04  7 15 15 57 30.0000000  0  7G 3G14G15G18G21G22G 9
  21712865.7554  -12161097.49649  -9451945.57847                  21712866.4294
        46.0004         35.5004
  22177543.7114  -16329397.71949 -12688990.86347                  22177543.4884
        46.0004         33.5004
  20261493.1834  -11494988.62949  -8936003.12148                  20261492.6734
        48.7504         41.2504
  20878112.3294   -4939809.10949  -3840693.46547                  20878110.8714
        50.7504         39.2504
  21012680.5574   -5166442.57849  -4018613.20747                  21012678.6544
        51.0004         37.2504
  20452161.4424   -9218756.29749  -7164957.14548                  20452158.3704
        49.5004         43.0004
  23865393.2384   -5782968.62549  -4492189.71146                  23865395.6784
        43.7504         25.5004
 04  7 15 15 57 45.0000000  0  8G 3G19G14G15G18G21G22G 9
  22000244.8664  -12226331.48449  -9502777.26247                  22000244.8154
        45.5004         35.5004
  24673441.5544    -116503.43758
        33.7504
  22458942.2714  -16426059.04749 -12764311.34447                  22458941.9544
        46.2504         33.5004
  20548658.7264  -11561344.27049  -8987708.81648                  20548657.7834
        49.5004         41.5004
  21173011.5194   -4965522.82449  -3860730.14148                  21173010.0754
        51.0004         39.5004
  21307541.0054   -5192359.68049  -4038808.36347                  21307539.2974
        51.2504         37.5004
  20742343.6694   -9269257.66849  -7204308.85948                  20742340.7474
        50.5004         42.7504
  24151001.3494   -5857505.09049  -4550270.05547                  24151003.8344
        43.5004         26.2504
 04  7 15 15 58  0.0000000  0  8G 3G19G14G15G18G21G22G 9
  21987855.1724  -12291439.48049  -9553510.77047                  21987855.5384
        47.2504         35.7504
  24655178.8534    -212465.46148
        33.0004
  22440560.2704  -16522656.97749 -12839582.42247                  22440559.6234
        46.7504         33.2504
  20536043.2794  -11627638.37549  -9039366.55948                  20536042.2944
        50.5004         41.2504
  21168127.8794   -4991187.73049  -3880728.78547                  21168125.8834
        50.7504         39.2504
  21302623.9634   -5218200.85949  -4058944.36347                  21302622.1334
        50.5004         37.0004
  20732746.6744   -9319689.72349  -7243606.57048                  20732743.6774
        50.2504         42.7504
  24136834.0804   -5931954.78149  -4608282.76247                  24136836.5394
        44.0004         26.0004
 04  7 15 15 58 15.0000000  0  8G 3G19G14G15G18G21G22G 9
  21975490.2214  -12356417.49649  -9604143.00047                  21975490.1704
        46.0004         35.2504
  24636926.3914    -308374.89848  -1456163.05956                  24636917.5134
        33.5004         17.5004
  22422191.3454  -16619185.19549 -12914799.19147                  22422191.0984
        46.0004         33.5004
  20523440.3274  -11693866.84849  -9090973.16848                  20523439.2944
        50.2504         42.0004
  21163253.1694   -5016802.89549  -3900688.65648                  21163251.5474
        51.2504         39.5004
  21297721.0114   -5243965.20349  -4079020.50047                  21297719.4574
        50.5004         37.2504
  20723163.4234   -9370049.76249  -7282848.16048                  20723160.3264
        49.5004         43.5004
  24122683.9774   -6006312.81649  -4666224.05546                  24122686.9404
        42.7504         25.2504
 04  7 15 15 58 30.0000000  0  8G 3G19G14G15G18G21G22G 9
  21963150.2224  -12421265.30549  -9654673.76247                  21963150.1704
        48.0004         35.5004
  24618685.8644    -404231.60548  -1530856.51646                  24618680.5304
        34.0004         17.7504
  22403835.9564  -16715643.31649 -12989961.33247                  22403835.5424
        46.2504         33.2504
  20510850.1704  -11760029.32449  -9142528.34448                  20510849.1314
        49.5004         41.2504
  21158388.3694   -5042368.27349  -3920609.74247                  21158386.7194
        50.5004         39.2504
  21292832.9884   -5269652.58649  -4099036.65647                  21292831.4654
        50.5004         37.2504
  20713594.0604   -9420337.78149  -7322033.63348                  20713591.3244
        50.0004         42.5004
  24108551.9744   -6080578.70749  -4724093.55546                  24108554.2904
        42.7504         24.2504
 04  7 15 15 58 45.0000000  0  8G 3G19G14G15G18G21G22G 9
  21950834.5454  -12485982.39149  -9705102.66047                  21950834.8104
        46.7504         36.0004
  24600454.1574    -500034.76648  -1605508.35946                  24600450.8924
        32.5004         17.7504
  22385494.3584  -16812030.62549 -13065068.29347                  22385493.6084
        46.2504         33.2504
  20498272.6174  -11826125.18049  -9194031.61348                  20498271.5864
        49.5004         41.5004
  21153532.5994   -5067883.72349  -3940491.92647                  21153531.3584
        50.5004         38.5004
  21287959.4684   -5295262.35249  -4118992.34447                  21287958.2074
        50.7504         37.5004
  20704038.3004   -9470553.39549  -7361162.68048                  20704035.7634
        48.7504         42.0004
  24094436.9804   -6154751.69149  -4781890.65246                  24094439.5724
        41.7504         24.0004
 04  7 15 15 59  0.0000000  0  8G 3G19G14G15G18G21G22G 9
  21938544.6274  -12550568.86749  -9755429.78547                  21938544.5914
        46.5004         36.5004
  24582233.6074    -595784.38348  -1680118.43746                  24582230.7684
        35.0004         17.7504
  22367165.6724  -16908347.15649 -13140120.10547                  22367164.8804
        46.5004         34.0004
  20485707.3634  -11892154.62549  -9245483.13748                  20485706.4444
        49.5004         41.5004
  21148686.8114   -5093349.67649  -3960335.53548                  21148685.6204
        50.2504         39.5004
  21283101.1744   -5320794.78549  -4138887.76647                  21283099.3144
        50.5004         37.5004
  20694496.3904   -9520697.11749  -7400235.71548                  20694493.5514
        49.0004         42.0004
  24080339.5294   -6228831.78949  -4839615.35946                  24080343.0744
        42.5004         25.0004
 04  7 15 15 59 15.0000000  0  8G 3G19G14G15G18G21G22G 9
  21926278.8864  -12615024.17649  -9805654.70347                  21926279.1074
        46.7504         35.7504
  24564023.5274    -691479.60948  -1754686.16846                  24564020.1854
        34.0004         17.0004
  22348851.2884  -17004592.02049 -13215116.07447                  22348850.0764
        46.0004         32.7504
  20473155.2054  -11958116.96149  -9296882.35948                  20473154.4714
        48.2504         41.7504
  21143850.4224   -5118765.84849  -3980140.35947                  21143849.1264
        50.5004         39.0004
  21278256.9604   -5346249.54749  -4158722.66447                  21278255.2424
        50.5004         37.5004
  20684967.9864   -9570768.58649  -7439252.45348                  20684965.4644
        47.5004         42.0004
  24066260.4014   -6302818.03149  -4897266.94946                  24066263.5764
        41.2504         22.2504
 04  7 15 15 59 30.0000000  0  8G 3G19G14G15G18G21G22G 9
  21914038.7704  -12679348.35949  -9855777.44947                  21914038.8544
        47.2504         35.5004
  24545824.7804    -787120.39848  -1829211.44546                  24545820.2444
        34.0004         15.5004
  22330549.4964  -17100765.10949 -13290056.11347                  22330548.7644
        46.5004         33.0004
  20460615.6484  -12024012.32849  -9348229.40248                  20460614.9864
        51.2504         42.0004
  21139023.3714   -5144132.68049  -3999906.74248                  21139021.5654
        50.5004         39.5004
  21273427.7424   -5371626.87949  -4178497.23447                  21273426.1874
        51.0004         37.5004
  20675453.5254   -9620768.25849  -7478213.23848                  20675450.4364
        51.0004         42.7504
  24052199.1504   -6376710.39849  -4954845.39546                  24052202.2004
        42.5004         24.0004
 04  7 15 15 59 45.0000000  0  8G 3G19G14G15G18G21G22G 9
  21901823.1694  -12743541.15649  -9905797.81247                  21901823.6494
        46.2504         36.2504
  24527635.5534    -882706.39548  -1903694.02046                  24527630.0174
        35.5004         16.2504
  22312261.8784  -17196865.99649 -13364939.88747                  22312261.5924
        47.5004         33.0004
  20448089.0664  -12089840.37549  -9399523.98848                  20448088.2474
        50.2504         41.5004
  21134205.3114   -5169450.18049  -4019634.67647                  21134204.0354
        51.0004         39.2504
  21268613.4374   -5396926.50849  -4198211.25447                  21268611.8094
        50.7504         37.5004
  20665952.6044   -9670696.05549  -7517118.01648                  20665949.8124
        49.7504         42.7504
  24038156.6134   -6450508.31249  -5012350.21546                  24038159.1974
        42.5004         25.2504
 04  7 15 16  0  0.0000000  0  8G 3G19G14G15G18G21G22G 9
  21889632.4674  -12807604.96149  -9955717.65647                  21889632.9544
        47.2504         35.5004
  24509458.4604    -978239.61348  -1978135.50446                  24509450.5574
        35.7504         14.7504
  22293988.1414  -17292896.98049 -13439769.19547                  22293987.2654
        47.0004         33.5004
  20435574.7324  -12155603.49249  -9450767.98448                  20435573.7244
        50.0004         41.5004
  21129396.7464   -5194720.96149  -4039326.20748                  21129394.8424
        50.2504         39.5004
  21263813.6674   -5422150.98449  -4217866.70747                  21263812.3204
        50.7504         37.5004
  20656465.0594   -9720554.57849  -7555968.81648                  20656462.2224
        50.5004         42.5004
  24024130.4294   -6524214.09049  -5069783.25446                  24024132.7104
        41.7504         24.0004
 04  7 15 16  0 15.0000000  0  8G 3G19G14G15G18G21G22G 9
  21877465.9094  -12871538.01649 -10005535.62547                  21877465.9684
        46.2504         35.5004
  24491290.7034   -1073718.21149  -2052534.41846                  24491281.9824
        36.7504         16.2504
  22275727.5044  -17388855.98849 -13514542.41447                  22275726.9034
        47.0004         33.2504
  20423073.3614  -12221299.67249  -9501959.80948                  20423072.4674
        49.5004         41.5004
  21124597.0854   -5219943.69949  -4058980.29747                  21124595.1124
        51.0004         39.0004
  21259028.0734   -5447298.48049  -4237462.18747                  21259026.2024
        51.0004         37.0004
  20646990.4194   -9770342.45349  -7594764.56248                  20646987.5494
        49.5004         43.0004
  24010122.7694   -6597825.61349  -5127142.87546                  24010125.3304
        41.0004         24.2504
 04  7 15 16  0 30.0000000  0  8G 3G19G14G15G18G21G22G 9
  21865324.8644  -12935340.85549 -10055252.12547                  21865324.7704
        47.0004         35.0004
  24473130.4874   -1169142.42648  -2126890.94946                  24473124.2154
        35.7504         16.2504
  22257480.9524  -17484743.49249 -13589259.92247                  22257480.2904
        45.7504         33.2504
  20410584.1044  -12286929.47749  -9553099.92248                  20410583.2844
        50.2504         42.0004
  21119806.0134   -5245119.10549  -4078597.51647                  21119804.7354
        51.0004         38.7504
  21254257.2924   -5472369.78949  -4256998.28947                  21254255.4904
        50.2504         37.5004
  20637529.3774   -9820060.47349  -7633505.88348                  20637526.4294
        50.0004         42.7504
  23996132.4434   -6671343.19549  -5184429.27046                  23996136.0214
        41.7504         25.0004
 04  7 15 16  0 45.0000000  0  8G 3G19G14G15G18G21G22G 9
  21853208.9124  -12999012.19949 -10104866.16047                  21853208.6324
        45.7504         36.0004
  24454981.6644   -1264510.90248  -2201204.05146                  24454976.6184
        35.5004         18.5004
  22239248.2814  -17580558.01649 -13663920.55947                  22239247.1584
        46.5004         33.0004
  20398108.0744  -12352491.54749  -9604187.25448                  20398107.6664
        51.0004         42.0004
  21115024.3984   -5270246.14849  -4098177.03147                  21115023.0154
        51.0004         38.5004
  21249501.2304   -5497363.73849  -4276474.12147                  21249499.4804
        50.5004         38.0004
  20628081.8754   -9869707.55549  -7672191.91848                  20628078.9604
        49.7504         42.5004
  23982160.8794   -6744765.37149  -5241641.33246                  23982163.9084
        41.0004         24.5004
 04  7 15 16  1  0.0000000  0  8G 3G19G14G15G18G21G22G 9
  21841117.2424  -13062552.18749 -10154377.84447                  21841117.2824
        48.0004         35.7504
  24436844.1394   -1359823.51248  -2275473.61346                  24436839.9824
        35.5004         19.0004
  22221029.1414  -17676299.33249 -13738524.16047                  22221027.9604
        45.7504         32.7504
  20385644.9794  -12417985.89849  -9655221.81248                  20385644.8014
        49.5004         41.5004
  21110252.2224   -5295325.35549  -4117719.29347                  21110250.5804
        50.5004         38.5004
  21244759.6074   -5522280.52749  -4295889.82047                  21244758.2484
        50.7504         37.5004
  20618647.9764   -9919284.03549  -7710822.94148                  20618644.7984
        50.0004         43.0004
  23968207.6284   -6818092.00449  -5298778.94947                  23968210.1784
        42.2504         26.0004
 04  7 15 16  1 15.0000000  0  8G 3G19G14G15G18G21G22G 9
  21829051.2864  -13125960.39549 -10203786.84447                  21829051.2504
        47.5004         35.5004
  24418716.5774   -1455079.49249  -2349699.05146                  24418713.0744
        37.0004         19.2504
  22202824.0364  -17771966.88349 -13813070.28147                  22202823.0104
        47.2504         33.5004
  20373194.7824  -12483412.07449  -9706203.25448                  20373194.0884
        51.2504         41.7504
  21105488.6654   -5320356.63349  -4137224.19947                  21105487.3184
        50.7504         38.7504
  21240032.8624   -5547119.66049  -4315245.02047                  21240031.5464
        52.0004         37.2504
  20609227.3764   -9968789.53949  -7749398.66448                  20609224.2734
        50.2504         42.7504
  23954271.7494   -6891322.44149  -5355841.59446                  23954275.0074
        41.5004         25.5004
 04  7 15 16  1 30.0000000  0  8G 3G19G14G15G18G21G22G 9
  21817010.0834  -13189236.61749 -10253092.98847                  21817010.3244
        47.5004         36.0004
  24400599.3114   -1550278.69149  -2423880.25446                  24400596.8204
        37.0004         19.5004
  22184633.3324  -17867560.46149 -13887558.75447                  22184632.0964
        45.7504         32.5004
  20360757.5284  -12548769.94549  -9757131.46548                  20360756.8614
        50.2504         41.2504
  21100734.7304   -5345340.05549  -4156691.80947                  21100733.3444
        50.5004         38.5004
  21235320.9184   -5571881.19949  -4334539.75047                  21235319.6564
        51.5004         37.0004
  20599820.0764  -10018224.47349  -7787919.38748                  20599817.0064
        50.7504         42.5004
  23940355.2044   -6964456.40249  -5412829.04746                  23940358.3674
        42.5004         25.5004
 04  7 15 16  1 45.0000000  0  8G 3G19G14G15G18G21G22G 9
  21804993.9144  -13252383.03149 -10302297.99647                  21804993.7964
        47.5004         35.7504
  24382494.5674   -1645423.03549  -2498018.68446                  24382491.4344
        39.0004         21.2504
  22166456.2154  -17963082.10549 -13961991.18047                  22166454.8694
        47.0004         33.5004
  20348333.0134  -12614061.59849  -9808008.07848                  20348331.9984
        50.7504         41.2504
  21095989.0274   -5370278.10949  -4176124.08247                  21095987.6564
        50.7504         39.0004
  21230623.2804   -5596567.50049  -4353775.84847                  21230621.8564
        51.0004         37.5004
  20590425.5984  -10067591.25449  -7826387.00848                  20590422.9874
        51.0004         42.2504
  23926455.9244   -7037495.73449  -5469742.79346                  23926458.6784
        41.5004         23.5004
 04  7 15 16  2  0.0000000  0  8G 3G19G14G15G18G21G22G 9
  21793002.5194  -13315398.34449 -10351400.83247                  21793002.2184
        47.7504         36.0004
  24364399.7544   -1740510.88749  -2572113.11346                  24364396.8194
        39.5004         22.2504
  22148293.0304  -18058530.09849 -14036366.21147                  22148292.1434
        47.5004         33.7504
  20335921.5274  -12679285.58249  -9858831.95748                  20335920.5344
        50.2504         41.5004
  21091252.6084   -5395169.73449  -4195520.16847                  21091250.8634
        50.7504         38.5004
  21225940.3284   -5621177.24249  -4372952.30547                  21225938.9294
        51.2504         37.5004
  20581045.0244  -10116888.63749  -7864800.55548                  20581041.9694
        51.0004         42.0004
  23912575.5884   -7110438.83649  -5526581.56246                  23912578.5704
        42.0004         25.0004
 04  7 15 16  2 15.0000000  0  8G 3G19G14G15G18G21G22G 9
  21781036.2404  -13378281.77049 -10400400.91847                  21781036.3074
        48.5004         36.0004
  24346316.3094   -1835541.47749  -2646162.94546                  24346312.6264
        38.2504         22.0004
  22130143.9404  -18153903.62549 -14110683.22347                  22130143.0524
        46.7504         34.2504
  20323522.7784  -12744441.07849  -9909602.47348                  20323521.6894
        51.0004         41.2504
  21086524.8764   -5420014.48449  -4214879.72347                  21086523.2024
        50.7504         38.5004
  21221272.0694   -5645709.82849  -4392068.62547                  21221270.5884
        51.0004         38.0004
  20571677.2004  -10166116.10549  -7903159.62948                  20571674.3994
        51.0004         42.7504
  23898712.8044   -7183284.75449  -5583344.57046                  23898715.5884
        42.5004         24.5004
 04  7 15 16  2 30.0000000  0  8G 3G19G14G15G18G21G22G 9
  21769094.6384  -13441033.74249 -10449298.56247                  21769094.7274
        48.5004         36.5004
  24328242.7254   -1930514.88349  -2720168.17646                  24328239.9344
        36.5004         22.2504
  22112008.9684  -18249202.72349 -14184942.22347                  22112008.3544
        46.0004         33.2504
  20311136.9034  -12809528.45749  -9960319.91048                  20311135.8354
        49.0004         41.5004
  21081805.7164   -5444812.88749  -4234203.17247                  21081804.5254
        51.0004         38.7504
  21216618.1714   -5670165.56649  -4411125.07847                  21216616.8054
        50.7504         38.0004
  20562322.6354  -10215274.45349  -7941464.83648                  20562319.4384
        50.0004         42.2504
  23884869.3914   -7256033.56249  -5640031.96946                  23884872.3994
        42.2504         25.2504
 04  7 15 16  2 45.0000000  0  8G 3G19G14G15G18G21G22G 9
  21757178.7014  -13503653.94149 -10498093.52047                  21757178.5284
        48.5004         36.5004
  24310180.4064   -2025430.62549  -2794128.47746                  24310178.1834
        36.5004         22.2504
  22093888.7284  -18344427.05149 -14259142.96947                  22093887.5834
        46.5004         33.2504
  20298764.0284  -12874547.34049 -10010983.98048                  20298763.0934
        50.7504         41.2504
  21077095.7514   -5469565.09449  -4253490.61747                  21077093.9924
        51.0004         38.7504
  21211979.1224   -5694544.42649  -4430121.62547                  21211977.5904
        50.7504         37.2504
  20552981.3904  -10264363.56649  -7979716.09848                  20552978.0764
        51.0004         42.2504
  23871044.5224   -7328684.77749  -5696643.23446                  23871047.3194
        42.2504         25.5004
 04  7 15 16  3  0.0000000  0  8G 3G19G14G15G18G21G22G 9
  21745287.2124  -13566142.68749 -10546786.05147                  21745287.1764
        48.2504         36.0004
  24292129.3974   -2120288.94148  -2868044.03546                  24292127.1104
        35.0004         21.7504
  22075781.9204  -18439576.76649 -14333285.57847                  22075781.2144
        45.5004         33.5004
  20286404.6544  -12939497.94549 -10061594.84848                  20286403.5304
        50.2504         41.7504
  21072394.2714   -5494271.66049  -4272742.50447                  21072392.7824
        50.2504         39.0004
  21207354.2124   -5718846.91849  -4449058.66047                  21207353.0754
        51.0004         37.2504
  20543653.1724  -10313384.05949  -8017913.89148                  20543649.8794
        50.7504         42.5004
  23857238.4404   -7401238.55549  -5753178.61346                  23857240.3654
        43.7504         24.0004
 04  7 15 16  3 15.0000000  0  8G 3G19G14G15G18G21G22G 9
  21733421.7444  -13628498.20749 -10595374.76247                  21733421.4354
        48.7504         35.5004
  24274089.4964   -2215087.68048  -2941913.19146                  24274087.5764
        34.7504         21.7504
  22057690.5344  -18534649.84049 -14407368.46547                  22057689.6564
        47.2504         33.5004
  20274058.2604  -13004378.42649 -10112151.07048                  20274057.4324
        51.0004         41.5004
  21067701.7644   -5518931.07849  -4291957.65247                  21067700.1014
        51.0004         39.0004
  21202744.8364   -5743071.37149  -4467934.87547                  21202743.5014
        51.2504         37.5004
  20534338.3794  -10362334.34049  -8056056.97348                  20534335.0874
        51.5004         42.2504
  23843450.3014   -7473692.81649  -5809636.44946                  23843453.3864
        43.5004         25.2504
 04  7 15 16  3 30.0000000  0  8G 3G19G14G15G18G21G22G 9
  21721581.1004  -13690720.58649 -10643859.74647                  21721580.9944
        49.0004         36.0004
  24256060.6374   -2309826.72749  -3015735.81646                  24256059.9704
        36.2504         21.7504
  22039613.1344  -18629646.05149 -14481391.46147                  22039612.0694
        47.0004         33.2504
  20261725.3934  -13069188.78149 -10162652.64848                  20261724.4794
        48.5004         42.0004
  21063018.0704   -5543543.61349  -4311136.26247                  21063016.8634
        51.0004         39.0004
  21198149.9434   -5767217.71949  -4486750.23847                  21198148.6694
        50.7504         37.5004
  20525036.4014  -10411214.73049  -8094145.59048                  20525033.3734
        48.2504         42.2504
  23829682.4764   -7546047.40649  -5866016.63747                  23829684.0604
        43.7504         27.0004
 04  7 15 16  3 45.0000000  0  8G 3G19G14G15G18G21G22G 9
  21709766.0694  -13752808.65249 -10692240.05547                  21709765.9154
        49.2504         36.5004
  24238043.5014   -2404504.64149  -3089510.80546                  24238043.1014
        38.5004         22.5004
  22021550.6104  -18724564.08249 -14555353.53547                  22021549.7764
        46.0004         34.7504
  20249405.8044  -13133927.69549 -10213098.55148                  20249405.0454
        49.5004         42.0004
  21058343.6594   -5568108.48849  -4330277.73847                  21058341.9724
        51.5004         39.0004
  21193569.8464   -5791284.94949  -4505503.95347                  21193568.8024
        51.0004         37.2504
  20515748.5194  -10460024.26249  -8132178.99248                  20515745.2904
        49.0004         42.5004
  23815933.0924   -7618300.93449  -5922318.05946                  23815934.8464
        43.5004         25.2504
 04  7 15 16  4  0.0000000  0  8G 3G19G14G15G18G21G22G 9
  21697976.5594  -13814763.15249 -10740516.29347                  21697976.1404
        49.0004         36.0004
  24220039.0114   -2499121.91049  -3163238.55146                  24220037.6074
        38.5004         22.5004
  22003503.2954  -18819404.47349 -14629255.10247                  22003502.0474
        46.0004         34.5004
  20237099.8434  -13198595.80949 -10263489.29748                  20237099.0154
        49.2504         41.5004
  21053677.9314   -5592626.69949  -4349382.84847                  21053676.0134
        50.7504         39.0004
  21189004.9894   -5815273.87149  -4524196.64547                  21189003.6604
        50.5004         37.2504
  20506473.4244  -10508763.85949  -8170157.90648                  20506470.7414
        49.2504         43.0004
  23802202.5264   -7690453.90649  -5978541.10246                  23802204.5934
        43.5004         25.5004
 04  7 15 16  4 15.0000000  0  8G 3G19G14G15G18G21G22G 9
  21686212.9434  -13876582.39149 -10788687.13747                  21686212.6084
        49.0004         36.0004
  24202045.6244   -2593676.78549  -3236917.66446                  24202043.9684
        36.0004         22.5004
  21985470.7634  -18914165.31649 -14703094.70347                  21985469.9974
        47.2504         34.0004
  20224807.7844  -13263191.43449 -10313823.55148                  20224807.0424
        49.0004         41.5004
  21049021.4594   -5617096.88749  -4368450.54747                  21049019.4624
        51.0004         38.5004
  21184455.4724   -5839182.87149  -4542827.05547                  21184453.6824
        51.0004         37.0004
  20497211.8734  -10557432.10549  -8208081.21948                  20497209.4084
        49.0004         43.0004
  23788490.8704   -7762504.35549  -6034684.28146                  23788493.3464
        42.7504         24.5004
 04  7 15 16  4 30.0000000  0  8G 3G19G14G15G18G21G22G 9
  21674474.6214  -13938267.80149 -10836753.68747                  21674474.9444
        49.0004         36.0004
  24184063.9924   -2688170.57048  -3310549.17246                  24184061.6234
        34.2504         22.2504
  21967453.1734  -19008848.00449 -14776873.39147                  21967452.3514
        48.0004         34.5004
  20212529.2864  -13327716.02049 -10364102.45348                  20212528.2864
        50.0004         41.5004
  21044373.3974   -5641520.83649  -4387482.21147                  21044371.5624
        48.2504         38.2504
  21179920.5564   -5863013.71549  -4561396.56647                  21179919.4034
        47.2504         37.7504
  20487964.3144  -10606030.83649  -8245950.35548                  20487961.4794
        50.5004         43.0004
  23774800.0764   -7834453.60249  -6090748.58246                  23774801.5394
        43.5004         24.7504
 04  7 15 16  4 45.0000000  0  8G 3G19G14G15G18G21G22G 9
  21662762.3324  -13999816.88349 -10884714.00047                  21662761.8784
        48.7504         36.2504
  24166094.0264   -2782600.48448  -3384130.91046                  24166091.7294
        33.0004         22.2504
  21949450.6014  -19103449.82849 -14850589.05147                  21949450.2904
        47.0004         34.0004
  20200264.7194  -13392166.90649 -10414323.93048                  20200263.8284
        49.7504         41.0004
  21039735.1714   -5665896.15649  -4406475.96947                  21039733.6064
        45.2504         38.0004
  21175401.0984   -5886763.88749  -4579903.22747                  21175399.5864
        45.0004         37.5004
  20478729.8564  -10654557.68449  -8283763.48848                  20478726.9084
        50.0004         42.5004
  23761128.8564   -7906298.86749  -6146731.90647                  23761130.1134
        43.7504         26.2504
 04  7 15 16  5  0.0000000  0  8G 3G19G14G15G18G21G22G 9
  21651075.3754  -14061230.41049 -10932568.70747                  21651075.0774
        49.5004         36.0004
  24148136.0244   -2876967.07448  -3457663.30546                  24148134.3964
        35.0004         21.2504
  21931464.0204  -19197971.22349 -14924242.07047                  21931463.2294
        47.0004         34.2504
  20188013.9684  -13456544.70349 -10464488.44148                  20188013.0914
        51.5004         41.0004
  21035105.5814   -5690223.80949  -4425432.60547                  21035104.4414
        45.0004         38.2504
  21170896.9534   -5910434.10249  -4598347.57847                  21170895.2354
        44.5004         37.0004
  20469509.0534  -10703013.61349  -8321521.35948                  20469506.3954
        50.7504         42.5004
  23747476.6044   -7978040.68749  -6202634.59046                  23747478.1554
        44.2504         25.2504
 04  7 15 16  5 15.0000000  0  8G 3G19G14G15G18G21G22G 9
  21639414.7964  -14122508.43749 -10980317.82447                  21639414.5894
        49.2504         36.5004
  24130191.3534   -2971270.12548  -3531146.19946                  24130188.7794
        35.7504         22.0004
  21913492.5304  -19292412.13349 -14997832.36347                  21913491.9454
        47.0004         34.7504
  20175777.0044  -13520849.49649 -10514596.07848                  20175776.3534
        50.0004         41.7504
  21030485.3844   -5714504.19949  -4444352.40247                  21030484.0284
        45.0004         39.0004
  21166407.5494   -5934024.59849  -4616729.80547                  21166406.2154
        44.5004         37.0004
  20460301.4974  -10751398.97749  -8359224.24648                  20460299.2074
        49.5004         42.5004
  23733844.5974   -8049678.86749  -6258456.48847                  23733845.6494
        44.5004         26.5004
 04  7 15 16  5 30.0000000  0  8G 3G19G14G15G18G21G22G 9
  21627779.4944  -14183651.07849 -11027961.44547                  21627779.2504
        49.5004         36.7504
  24112257.8584   -3065509.53149  -3604579.49246                  24112256.2314
        36.0004         22.2504
  21895536.3814  -19386772.37549 -15071359.79747                  21895536.0684
        46.0004         33.7504
  20163554.2614  -13585081.21149 -10564646.76648                  20163553.2464
        50.0004         42.0004
  21025873.6724   -5738737.72349  -4463235.68747                  21025872.6704
        45.0004         38.7504
  21161933.7184   -5957535.44149  -4635049.96547                  21161931.9994
        45.0004         37.5004
  20451107.6304  -10799714.07849  -8396872.38348                  20451105.0144
        49.7504         42.5004
  23720231.8414   -8121213.19149  -6314197.49246                  23720232.9604
        44.5004         23.5004
 04  7 15 16  5 45.0000000  0  8G 3G19G14G15G18G21G22G 9
  21616170.5214  -14244657.47349 -11075498.89547                  21616169.8264
        50.0004         36.7504
  24094337.6654   -3159684.20749  -3677962.35546                  24094335.3664
        38.0004         22.5004
  21877595.5154  -19481050.93749 -15144823.58247                  21877595.1474
        46.5004         34.0004
  20151345.0114  -13649239.02049 -10614639.86348                  20151344.3794
        49.5004         41.5004
  21021271.6884   -5762923.89549  -4482082.07447                  21021269.5184
        45.0004         38.7504
  21157475.2654   -5980966.20349  -4653307.73047                  21157473.5614
        45.0004         37.2504
  20441927.1804  -10847958.32449  -8434465.29748                  20441923.7514
        50.0004         41.7504
  23706639.4694   -8192642.69149  -6369856.81246                  23706640.6994
        45.0004         25.0004
 04  7 15 16  6  0.0000000  0  8G 3G19G14G15G18G21G22G 9
  21904380.4844  -14305524.12149 -11122927.45747                  21904379.8214
        50.5004         36.5004
  24376222.5494   -3253788.27749  -3751290.18446                  24376220.1584
        38.5004         22.5004
  22159464.3904  -19575241.94949 -15218219.14847                  22159463.7854
        45.0004         34.5004
  20438943.8624  -13713319.07449 -10664572.37548                  20438942.9474
        48.2504         41.2504
  21316470.5354   -5787061.83249  -4500890.87147                  21316469.2084
        46.2504         38.5004
  21452824.2644   -6004315.79349  -4671502.23847                  21452822.6824
        45.5004         37.2504
  20732552.8064  -10896129.29349  -8472001.12148                  20732549.8914
        47.5004         42.0004
  23992860.1064   -8263962.87949  -6425430.95346                  23992861.2624
        45.0004         25.5004
 04  7 15 16  6 15.0000000  0  8G 3G19G14G15G18G21G22G 9
  21892823.4894  -14366256.78149 -11170251.60547                  21892823.2334
        49.7504         36.2504
  24358326.9214   -3347831.50949  -3824570.68046                  24358324.4214
        39.5004         23.0004
  22141555.2504  -19669355.28149 -15291554.19547                  22141554.8764
        46.2504         35.5004
  20426763.3124  -13777327.28949 -10714448.91448                  20426762.4674
        50.0004         41.2504
  21311886.5124   -5811152.50449  -4519662.84847                  21311884.6384
        49.5004         38.5004
  21448396.2934   -6027584.93749  -4689634.07047                  21448394.9694
        49.7504         37.2504
  20723399.3424  -10944231.14849  -8509483.09448                  20723396.4444
        49.7504         42.5004
  23979307.3214   -8335180.50049  -6480925.17246                  23979309.0014
        44.2504         22.5004
 04  7 15 16  6 30.0000000  0  8G 3G19G14G15G18G21G22G 9
  21881292.4984  -14426851.41849 -11217468.21547                  21881292.1344
        49.5004         35.5004
  24340443.6034   -3441807.67249  -3897798.82846                  24340440.7144
        38.7504         24.5004
  22123661.6774  -19763384.57849 -15364823.75047                  22123661.2034
        46.2504         35.0004
  20414597.4644  -13841259.53549 -10764266.25048                  20414596.4864
        50.0004         42.0004
  21307311.6514   -5835194.70749  -4538397.04747                  21307309.6834
        50.5004         38.7504
  21443983.4494   -6050772.19149  -4707702.08247                  21443982.1764
        50.5004         37.2504
  20714259.4884  -10992261.04749  -8546908.99248                  20714256.7394
        49.0004         42.5004
  23965775.8644   -8406290.71949  -6536335.69546                  23965776.8574
        44.5004         24.7504
 04  7 15 16  6 45.0000000  0  8G 3G19G14G15G18G21G22G 9
  21869787.7234  -14487310.28949 -11264579.03147                  21869787.1174
        50.0004         36.0004
  24322572.8994   -3535718.79049  -3970976.36746                  24322571.1454
        39.5004         24.7504
  22105783.9404  -19857331.89149 -15438029.42647                  22105783.5444
        47.5004         34.5004
  20402445.8004  -13905117.87149 -10814025.98848                  20402444.6834
        50.7504         42.0004
  21302744.8664   -5859191.12949  -4557095.57047                  21302743.4024
        50.7504         39.2504
  21439586.7804   -6073879.89549  -4725708.10947                  21439584.9404
        50.5004         36.7504
  20705133.0864  -11040221.58649  -8584280.84448                  20705130.0174
        50.0004         42.2504
  23952263.7214   -8477295.59449  -6591664.14847                  23952265.7694
        45.0004         26.0004
 04  7 15 16  7  0.0000000  0  8G 3G19G14G15G18G21G22G 9
  21858308.8514  -14547633.92649 -11311584.46947                  21858308.0954
        49.2504         36.2504
  24304715.1444   -3629565.12149  -4044103.32847                  24304713.2354
        39.0004         26.0004
  22087921.8924  -19951197.52349 -15511171.46147                  22087921.7664
        47.0004         35.0004
  20390307.8914  -13968902.82049 -10863728.55548                  20390306.9134
        48.7504         42.0004
  21298187.2064   -5883142.29749  -4575758.83647                  21298185.8114
        50.0004         38.2504
  21435204.5684   -6096908.81249  -4743652.75447                  21435202.9384
        48.7504         37.2504
  20696019.3484  -11088113.41049  -8621599.14148                  20696016.2524
        48.0004         42.0004
  23938772.4524   -8548195.35549  -6646910.69546                  23938773.3374
        44.7504         23.0004
 04  7 15 16  7 15.0000000  0  8G 3G19G14G15G18G21G22G 9
  21846855.2444  -14607820.82049 -11358483.35247                  21846854.7984
        50.2504         36.0004
  24286869.5754   -3723344.92249  -4117178.49647                  24286867.6284
        40.0004         26.2504
  22070076.1094  -20044979.78949 -15584248.52047                  22070075.6164
        46.2504         34.5004
  20378184.1384  -14032612.77349 -10913372.67248                  20378183.7154
        49.5004         41.7504
  21293638.2454   -5907046.98849  -4594385.88747                  21293636.9614
        47.2504         38.2504
  21430837.7944   -6119857.37949  -4761534.77047                  21430836.0864
        46.5004         37.0004
  20686919.1974  -11135935.22749  -8658862.89848                  20686916.2314
        48.0004         42.0004
  23925300.1914   -8618988.30949  -6702074.00446                  23925302.0744
        44.0004         23.0004
 04  7 15 16  7 30.0000000  0  8G 3G19G14G15G18G21G22G 9
  21835427.9424  -14667870.70749 -11405275.47347                  21835427.9684
        50.2504         36.2504
  24269037.0834   -3817057.65249  -4190201.38347                  24269034.4854
        40.2504         26.5004
  22052245.6774  -20138678.19149 -15657260.25047                  22052245.2674
        47.2504         35.0004
  20366075.2864  -14096247.33249 -10962958.04748                  20366074.4424
        50.7504         42.5004
  21289097.7404   -5930905.31649  -4612976.79747                  21289096.7994
        50.0004         38.0004
  21426485.7074   -6142725.59849  -4779354.18447                  21426484.5224
        49.7504         36.7504
  20677832.4724  -11183686.94149  -8696072.02748                  20677829.3974
        50.0004         42.0004
  23911849.1864   -8689673.94149  -6757153.65646                  23911851.5644
        44.0004         23.0004
 04  7 15 16  7 45.0000000  0  8G 3G19G14G15G18G21G22G 9
  21824026.5304  -14727786.78549 -11451963.32847                  21824026.4114
        50.0004         36.0004
  24251216.3344   -3910706.36349  -4263174.39546                  24251213.5894
        41.0004         25.5004
  22034430.9564  -20232295.78549 -15730209.00047                  22034430.4624
        46.0004         34.5004
  20353979.4954  -14159809.64849 -11012487.12948                  20353978.9754
        50.0004         41.5004
  21284566.2534   -5954720.78949  -4631534.32847                  21284564.7934
        50.5004         38.5004
  21422149.1724   -6165516.56249  -4797113.40647                  21422147.5184
        50.0004         37.0004
  20668758.1244  -11231372.06249  -8733229.27348                  20668755.0024
        49.2504         41.7504
  23898418.4044   -8760255.19949  -6812152.02746                  23898419.8224
        43.7504         24.0004
 04  7 15 16  8  0.0000000  0  8G 3G19G14G15G18G21G22G 9
  21812650.5614  -14787565.89149 -11498544.46147                  21812650.7194
        49.2504         36.2504
  24233408.3984   -4004287.52349  -4336094.77346                  24233405.1364
        40.5004         24.0004
  22016632.2544  -20325829.20349 -15803092.15647                  22016631.5954
        47.2504         35.0004
  20341898.4154  -14223296.46549 -11061957.38348                  20341897.6764
        49.0004         42.0004
  21280042.8104   -5978490.40249  -4650056.11747                  21280041.8354
        50.7504         38.2504
  21417827.0864   -6188227.24649  -4814810.06647                  21417825.5754
        50.2504         37.0004
  20659697.2184  -11278987.61349  -8770332.30148                  20659694.1964
        48.2504         42.2504
  23885007.6884   -8830728.74249  -6867066.46946                  23885009.1364
        43.5004         24.2504
 04  7 15 16  8 15.0000000  0  8G 3G19G14G15G18G21G22G 9
  21801301.2284  -14847208.84049 -11545019.48047                  21801301.0584
        49.0004         37.0004
  24215612.9704   -4097801.77749  -4408963.03146                  24215609.1264
        41.5004         25.5004
  21998849.3624  -20419278.85949 -15875910.05547                  21998848.8164
        47.0004         35.0004
  20329831.6624  -14286708.42249 -11111369.29348                  20329831.1414
        49.5004         42.2504
  21275528.5044   -6002215.09449  -4668542.91447                  21275526.8474
        51.0004         38.0004
  21413520.9354   -6210858.46149  -4832444.80947                  21413519.1684
        50.5004         36.7504
  20650649.4514  -11326534.59449  -8807381.89848                  20650646.1464
        48.7504         42.0004
  23871616.9514   -8901095.09849  -6921897.32846                  23871619.1474
        44.2504         22.5004
 04  7 15 16  8 30.0000000  0  8G 3G19G14G15G18G21G22G 9
  21789977.4334  -14906716.30549 -11591388.93047                  21789977.2294
        50.0004         36.7504
  24197831.5274   -4191249.49649  -4481779.44147                  24197828.2574
        42.0004         27.5004
  21981081.9074  -20512645.27749 -15948663.09047                  21981081.8494
        46.7504         35.5004
  20317778.8724  -14350045.92649 -11160723.19548                  20317777.5614
        49.5004         42.2504
  21271022.0964   -6025895.86349  -4686995.48047                  21271020.3264
        51.0004         38.0004
  21409229.3444   -6233410.91449  -4850018.16847                  21409227.9464
        50.2504         36.5004
  20641614.4444  -11374013.87949  -8844378.74648                  20641611.3594
        49.0004         42.0004
  23858247.2744   -8971354.55949  -6976644.93746                  23858249.0454
        44.0004         23.0004
 04  7 15 16  8 45.0000000  0  8G 3G19G14G15G18G21G22G 9
  21778678.9344  -14966089.24649 -11637653.56647                  21778678.9054
        50.5004         36.7504
  24180061.2274   -4284631.52749  -4554544.66047                  24180058.3544
        41.5004         26.7504
  21963330.8254  -20605929.23449 -16021351.86747                  21963330.2274
        46.0004         35.5004
  20305740.2694  -14413310.05549 -11210019.93448                  20305739.1174
        48.5004         42.5004
  21266524.0384   -6049533.87949  -4705414.72747                  21266522.8084
        51.0004         38.0004
  21404952.2224   -6255885.78949  -4867531.08247                  21404950.9754
        51.0004         36.7504
  20632591.9994  -11421426.77049  -8881323.86748                  20632588.8644
        47.5004         41.7504
  23844897.7214   -9041507.92249  -7031309.85946                  23844899.7484
        43.2504         23.0004
 04  7 15 16  9  0.0000000  0  8G 3G19G14G15G18G21G22G 9
  21767406.9494  -15025325.94149 -11683812.03547                  21767406.3384
        49.5004         36.7504
  24162304.2434   -4377945.87949  -4627257.14547                  24162301.3484
        40.5004         26.7504
  21945595.8034  -20699128.86349 -16093974.93047                  21945594.7844
        45.0004         35.7504
  20293715.5584  -14476498.96149 -11259258.04348                  20293714.3284
        47.7504         42.2504
  21262034.0504   -6073127.69949  -4723799.53947                  21262033.1174
        50.5004         38.2504
  21400690.6014   -6278281.46949  -4884982.28547                  21400689.3904
        50.0004         37.2504
  20623582.5874  -11468771.61349  -8918215.95348                  20623579.4594
        48.0004         41.2504
  23831568.5364   -9111553.23849  -7085890.58646                  23831570.2864
        42.7504         22.7504
 04  7 15 16  9 15.0000000  0  8G 3G19G14G15G18G21G22G 9
  21756159.9754  -15084428.64149 -11729866.09447                  21756159.8394
        50.0004         37.0004
  24144559.5334   -4471194.46949  -4699918.39547                  24144556.7204
        39.7504         27.0004
  21927875.7794  -20792246.12549 -16166533.81247                  21927875.0224
        47.0004         35.2504
  20281705.4054  -14539614.69949 -11308439.14148                  20281704.1704
        50.2504         42.0004
  21257552.2204   -6096679.77749  -4742151.82047                  21257550.8544
        50.7504         38.7504
  21396443.1734   -6300600.21949  -4902373.54747                  21396442.1334
        50.7504         37.5004
  20614585.6454  -11516050.87149  -8955056.94148                  20614582.2764
        49.0004         41.5004
  23818259.0494   -9181492.52749  -7140388.68046                  23818261.3624
        44.0004         22.7504
 04  7 15 16  9 30.0000000  0  8G 3G19G14G15G18G21G22G 9
  21744938.5454  -15143396.24649 -11775814.87947                  21744938.5234
        50.2504         36.7504
  24126827.4204   -4564376.11749  -4772527.45746                  24126824.6394
        38.0004         24.7504
  21910172.3934  -20885279.71949 -16239027.49647                  21910171.6824
        46.5004         36.0004
  20269708.7494  -14602656.07049 -11357562.29748                  20269707.7364
        50.0004         42.0004
  21253078.7574   -6120189.25449  -4760470.90247                  21253077.2364
        50.7504         38.5004
  21392211.1294   -6322840.90649  -4919703.97347                  21392209.6644
        50.2504         37.2504
  20605601.3274  -11563263.75849  -8991846.19548                  20605598.1894
        48.0004         41.7504
  23804970.1684   -9251324.42649  -7194803.13746                  23804972.7164
        43.0004         22.5004
 04  7 15 16  9 45.0000000  0  8G 3G19G14G15G18G21G22G 9
  21733743.0094  -15202229.53149 -11821659.00447                  21733742.7274
        49.7504         36.7504
  24109108.2024   -4657491.17549  -4845084.60947                  24109106.3684
        38.0004         25.7504
  21892484.0004  -20978230.18449 -16311456.41047                  21892483.4244
        46.7504         35.7504
  20257726.5984  -14665623.76249 -11406628.03148                  20257725.4474
        50.5004         41.5004
  21248612.7094   -6143657.14149  -4778757.59047                  21248611.5284
        51.2504         38.0004
  21387993.5224   -6345004.46949  -4936974.30947                  21387992.2644
        50.0004         36.5004
  20596629.4114  -11610411.22349  -9028584.48448                  20596626.1864
        50.0004         41.7504
  23791702.1044   -9321049.44549  -7249134.29346                  23791704.3444
        41.7504         22.2504
 04  7 15 16 10  0.0000000  0  8G 3G19G14G15G18G21G22G 9
  21722573.2834  -15260928.75849 -11867398.66447                  21722572.3634
        50.0004         37.0004
  24091401.3544   -4750539.67649  -4917589.99247                  24091400.1384
        38.7504         26.7504
  21874812.4904  -21071097.57849 -16383820.59047                  21874811.7554
        46.5004         35.5004
  20245758.0364  -14728517.98449 -11455636.52348                  20245757.2884
        51.0004         41.5004
  21244155.1314   -6167083.85949  -4797012.19147                  21244153.7254
        51.0004         38.0004
  21383790.7484   -6367091.31649  -4954184.85947                  21383789.2064
        50.5004         36.2504
  20587670.0124  -11657493.76249  -9065272.18048                  20587667.0814
        50.0004         41.7504
  23778454.7524   -9390667.69149  -7303382.23046                  23778456.0954
        42.7504         22.5004
 04  7 15 16 10 15.0000000  0  8G 3G19G14G15G18G21G22G 9
  21711428.5494  -15319493.51649 -11913033.54747                  21711428.2894
        51.0004         36.2504
  24073707.9214   -4843520.98849  -4990042.91447                  24073705.9554
        39.7504         25.7504
  21857155.9754  -21163881.28949 -16456119.55947                  21857155.0704
        47.0004         35.5004
  20233803.8304  -14791338.21549 -11504587.34448                  20233802.7404
        50.5004         41.5004
  21239705.1524   -6190469.31249  -4815234.64147                  21239703.5874
        51.0004         38.2504
  21379602.2884   -6389100.93049  -4971335.23447                  21379601.0014
        50.7504         36.2504
  20578722.9174  -11704511.04749  -9101909.02748                  20578719.6164
        49.5004         41.2504
  23765226.0754   -9460178.50449  -7357546.46946                  23765228.3344
        40.7504         23.0004
 04  7 15 16 10 30.0000000  0  8G 3G19G14G15G18G21G22G 9
  21700309.9794  -15377922.65649 -11958562.75047                  21700309.2964
        49.7504         36.5004
  24056026.1564   -4936433.82849  -5062442.53547                  24056024.2574
        40.5004         25.7504
  21839516.1974  -21256580.00849 -16528352.30547                  21839515.2714
        48.0004         35.5004
  20221863.8274  -14854083.13749 -11553479.50048                  20221862.7794
        48.0004         42.0004
  21235263.2024   -6213812.75049  -4833424.35247                  21235261.2994
        51.0004         38.2504
  21375429.1734   -6411032.44549  -4988424.75447                  21375427.3924
        50.5004         37.0004
  20569788.1554  -11751462.27749  -9138494.41048                  20569785.3814
        48.2504         41.5004
  23752020.0114   -9529580.44149  -7411625.85946                  23752021.5934
        41.7504         22.5004
 04  7 15 16 10 45.0000000  0  8G 3G19G14G15G18G21G22G 9
  21689216.4644  -15436217.37149 -12003987.21147                  21689215.9344
        49.5004         36.2504
  24038357.9774   -5029279.21949  -5134789.58647                  24038356.7864
        39.7504         27.0004
  21821892.1904  -21349194.61749 -16600519.51247                  21821891.0474
        46.5004         35.7504
  20209938.0904  -14916753.87149 -11602313.84448                  20209937.0094
        51.2504         42.0004
  21230828.7514   -6237115.50449  -4851582.35947                  21230826.9424
        51.2504         38.5004
  21371269.9374   -6432887.20349  -5005454.46547                  21371268.7614
        50.0004         35.5004
  20560866.4254  -11798348.82049  -9175029.38348                  20560863.0474
        50.7504         41.7504
  23738833.8524   -9598874.46949  -7465621.19946                  23738835.2094
        40.7504         22.2504
 04  7 15 16 11  0.0000000  0  8G 3G19G14G15G18G21G22G 9
  21678149.3604  -15494377.23049 -12049306.59047                  21678148.6834
        49.7504         36.2504
  24020703.7564   -5122056.31249  -5207083.42247                  24020701.3924
        38.5004         26.5004
  21804284.1044  -21441724.42249 -16672620.63347                  21804283.4694
        46.5004         36.2504
  20198026.2234  -14979349.82849 -11651089.91848                  20198025.2384
        50.0004         41.7504
  21226401.9014   -6260377.30949  -4869708.45347                  21226399.8754
        51.5004         38.2504
  21367125.8434   -6454664.54349  -5022423.84047                  21367124.6924
        50.0004         36.7504
  20551956.3414  -11845170.32049  -9211513.67648                  20551953.0184
        49.0004         41.7504
  23725667.7274   -9668059.85949  -7519531.86746                  23725669.1554
        40.5004         21.5004
 04  7 15 16 11 15.0000000  0  8G 3G19G14G15G18G21G22G 9
  21667107.1094  -15552403.77749 -12094522.08647                  21667106.7714
        50.2504         36.7504
  24003061.7564   -5214766.37549  -5279325.02046                  24003060.2234
        37.5004         25.2504
  21786691.7824  -21534170.91849 -16744656.84447                  21786691.4844
        46.2504         35.5004
  20186128.8554  -15041872.35249 -11699808.77048                  20186127.8884
        48.0004         42.5004
  21221982.9144   -6283599.91849  -4887804.00447                  21221981.3374
        51.2504         38.2504
  21362996.6974   -6476366.13349  -5039334.20347                  21362995.4064
        50.2504         36.2504
  20543058.5744  -11891928.66049  -9247948.74648                  20543055.3804
        47.5004         41.2504
  23712522.4884   -9737138.02749  -7573358.98046                  23712524.2744
        40.0004         22.7504
 04  7 15 16 11 30.0000000  0  8G 3G19G14G15G18G21G22G 9
  21656090.8064  -15610295.05549 -12139632.18747                  21656090.1674
        49.5004         37.2504
  23985432.2284   -5307407.30549  -5351512.73447                  23985431.1534
        38.0004         26.7504
  21769116.6654  -21626531.87949 -16816626.39547                  21769116.1844
        45.5004         36.0004
  20174245.5664  -15104319.48449 -11748468.87548                  20174244.2834
        50.0004         42.0004
  21217571.4654   -6306781.71549  -4905867.75447                  21217569.6004
        51.5004         37.7504
  21358881.4224   -6497990.12149  -5056184.07847                  21358880.4174
        49.5004         36.0004
  20534173.3184  -11938622.03549  -9284333.20348                  20534170.0064
        48.5004         41.7504
  23699398.6354   -9806106.61349  -7627100.69546                  23699400.6654
        39.5004         21.7504
 04  7 15 16 11 45.0000000  0  8G 3G19G14G15G18G21G22G 9
  21645100.3514  -15668051.50449 -12184637.21947                  21645099.6444
        50.5004         36.7504
  23967816.7624   -5399979.29749  -5423646.75047                  23967815.4554
        39.0004         27.0004
  21751556.7304  -21718807.50049 -16888529.45347                  21751556.4694
        47.2504         36.2504
  20162376.4304  -15166691.50849 -11797070.45748                  20162375.2184
        50.5004         42.2504
  21213167.6024   -6329923.33249  -4923900.19547                  21213166.2654
        50.5004         38.0004
  21354781.0804   -6519537.04349  -5072973.91847                  21354779.9064
        49.7504         36.0004
  20525299.8704  -11985251.14549  -9320667.58248                  20525296.6084
        49.0004         42.0004
  23686295.3094   -9874965.80149  -7680757.16846                  23686296.7044
        41.2504         22.7504
 04  7 15 16 12  0.0000000  0  8G 3G19G14G15G18G21G22G 9
  21634134.9364  -15725673.91049 -12229537.80547                  21634134.7154
        49.5004         36.7504
  23950213.9534   -5492482.80149  -5495727.40647                  23950212.4554
        40.2504         26.7504
  21734013.5784  -21810998.32849 -16960366.43447                  21734013.2944
        47.0004         36.0004
  20150521.4364  -15228989.04349 -11845614.00048                  20150520.7724
        48.2504         42.2504
  21208771.6944   -6353025.61749  -4941901.99647                  21208770.2494
        51.0004         38.0004
  21350695.1014   -6541007.65249  -5089704.28147                  21350694.0564
        50.2504         36.7504
  20516438.6104  -12031816.95349  -9356952.63748                  20516435.8764
        47.7504         41.0004
  23673211.8194   -9943716.28149  -7734328.94146                  23673213.9054
        40.5004         22.7504
 04  7 15 16 12 15.0000000  0  8G 3G19G14G15G18G21G22G 9
  21623195.3604  -15783161.79749 -12274333.56247                  21623194.8524
        50.0004         36.7504
  23932624.1064   -5584917.20349  -5567754.23847                  23932622.5064
        40.5004         28.0004
  21716486.5654  -21903103.77749 -17032136.89547                  21716486.0984
        46.5004         36.2504
  20138681.0594  -15291211.56249 -11894099.07848                  20138680.4754
        49.7504         42.5004
  21204383.0654   -6376088.34849  -4959872.98047                  21204381.6144
        51.0004         38.0004
  21346624.3724   -6562401.67249  -5106374.97747                  21346623.3354
        50.5004         36.2504
  20507590.0454  -12078319.22749  -9393188.17648                  20507586.5894
        48.5004         41.7504
  23660149.9124  -10012357.32049  -7787815.44946                  23660151.9744
        39.5004         21.5004
 04  7 15 16 12 30.0000000  0  8G 3G19G14G15G18G21G22G 9
  21612281.7964  -15840513.93449 -12319023.54747                  21612281.4314
        49.5004         36.5004
  23915047.8934   -5677281.02349  -5639726.02347                  23915046.6734
        40.0004         26.7504
  21698975.7864  -21995122.29349 -17103839.60547                  21698975.6224
        46.5004         35.5004
  20126855.1524  -15353357.73049 -11942524.67248                  20126853.9144
        49.5004         42.5004
  21200001.8014   -6399110.64149  -4977812.44547                  21200000.1964
        51.2504         38.0004
  21342568.0974   -6583718.13749  -5122985.23047                  21342567.0114
        50.0004         36.0004
  20498752.6364  -12124756.90249  -9429373.38748                  20498749.6684
        48.2504         42.0004
  23647109.3684  -10080887.32449  -7841215.41046                  23647110.8604
        39.2504         22.0004
 04  7 15 16 12 45.0000000  0  8G 3G19G14G15G18G21G22G 9
  21601393.6704  -15897729.91049 -12363607.43447                  21601393.2504
        50.2504         37.0004
  23897484.7444   -5769573.54749  -5711642.28147                  23897483.7424
        40.5004         27.0004
  21681482.1404  -22087053.20749 -17175474.06247                  21681481.7664
        46.7504         36.0004
  20115043.7504  -15415426.94549 -11990890.29748                  20115042.4944
        48.5004         42.0004
  21195628.9394   -6422092.23449  -4995720.19547                  21195626.9464
        51.2504         38.2504
  21338526.2104   -6604956.32049  -5139534.49647                  21338525.2744
        49.7504         36.0004
  20489928.4034  -12171129.71149  -9465508.04348                  20489925.3724
        46.7504         42.0004
  23634089.4844  -10149305.59449  -7894528.30546                  23634091.3244
        39.0004         21.2504
 04  7 15 16 13  0.0000000  0  8G 3G19G14G15G18G21G22G 9
  21590531.8244  -15954810.13749 -12408085.54347                  21590531.7924
        50.0004         36.5004
  23879935.3504   -5861794.91049  -5783503.05547                  23879934.6054
        39.0004         27.7504
  21664004.6814  -22178896.80549 -17247040.48047                  21664004.5634
        46.2504         36.0004
  20103246.6504  -15477419.52049 -12039196.19948                  20103245.6134
        50.5004         42.0004
  21191263.3644   -6445033.80549  -5013596.76647                  21191261.1284
        51.5004         38.0004
  21334499.8524   -6626116.71949  -5156023.14147                  21334498.7534
        50.0004         36.2504
  20481116.0654  -12217438.23849  -9501592.61348                  20481112.7504
        49.5004         41.7504
  23621090.6584  -10217612.32449  -7947754.28946                  23621092.6334
        38.5004         20.0004
 04  7 15 16 13 15.0000000  0  8G 3G19G14G15G18G21G22G 9
  21579695.8594  -16011753.94949 -12452457.34047                  21579695.4304
        50.0004         36.7504
  23862399.5394   -5953944.18049  -5855307.68047                  23862399.0954
        37.5004         26.5004
  21646544.1234  -22270652.10949 -17318538.10247                  21646543.8054
        45.7504         36.5004
  20091464.7124  -15539334.68049 -12087441.79748                  20091463.9124
        49.7504         41.5004
  21186905.1804   -6467934.92249  -5031441.80147                  21186903.6004
        51.5004         37.7504
  21330488.1574   -6647198.91049  -5172450.85247                  21330487.2934
        50.5004         36.2504
  20472316.3754  -12263682.04349  -9537626.74648                  20472313.0634
        48.5004         41.5004
  23608114.1354  -10285806.70749  -8000892.73046                  23608115.7224
        38.5004         21.7504
 04  7 15 16 13 30.0000000  0  8G 3G19G14G15G18G21G22G 9
  21568885.6594  -16068563.12949 -12496724.24647                  21568885.0514
        49.5004         37.0004
  23844878.5444   -6046023.02049  -5927057.40647                  23844876.3454
        37.5004         26.5004
  21629100.2314  -22362320.74249 -17389968.17647                  21629100.0614
        46.5004         36.0004
  20079697.2114  -15601174.09449 -12135628.35248                  20079696.2494
        50.2504         41.2504
  21182554.5834   -6490797.59849  -5049256.88747                  21182552.7514
        50.7504         38.0004
  21326490.6014   -6668204.73449  -5188819.05147                  21326489.7064
        49.5004         35.7504
  20463528.4964  -12309863.17249  -9573612.05148                  20463525.0644
        49.2504         41.5004
  23595158.3254  -10353890.20349  -8053944.79746                  23595159.8934
        40.0004         21.7504
 04  7 15 16 13 45.0000000  0  8G 3G19G14G15G18G21G22G 9
  21558100.9024  -16125236.91049 -12540885.63347                  21558100.4494
        50.0004         37.0004
  23827370.0364   -6138030.22749  -5998751.34447                  23827367.5614
        38.2504         27.2504
  21611673.1724  -22453901.66049 -17461329.90647                  21611672.7814
        46.2504         36.7504
  20067944.1714  -15662936.76249 -12183755.10548                  20067943.2374
        50.2504         41.5004
  21178211.6014   -6513621.16449  -5067041.50447                  21178209.7034
        51.0004         38.0004
  21322508.3384   -6689133.40249  -5205127.12947                  21322506.9384
        50.0004         36.0004
  20454752.4044  -12355981.01649  -9609548.03948                  20454749.4504
        49.2504         42.0004
  23582223.6004  -10421861.79749  -8106909.64146                  23582225.2314
        39.5004         22.2504
 04  7 15 16 14  0.0000000  0  8G 3G19G14G15G18G21G22G 9
  21847135.3074  -16181770.89549 -12584938.09447                  21847134.8404
        50.0004         36.5004
  24109669.1854   -6229958.73049  -6070383.96147                  24109666.8834
        40.0004         27.7504
  21894056.4344  -22545387.78949 -17532617.77747                  21894055.7334
        46.0004         36.2504
  20355999.1174  -15724617.80549 -12231818.26648                  20355998.0444
        50.0004         42.0004
  21473668.6704   -6536403.52349  -5084794.01647                  21473667.1044
        51.5004         38.2504
  21618333.2954   -6709982.78549  -5221373.42647                  21618332.4564
        50.0004         36.0004
  20745781.5854  -12402032.00449  -9645431.94148                  20745778.3994
        49.2504         42.5004
  23869104.0734  -10489715.97349  -8159783.00046                  23869105.1494
        40.5004         22.2504
 04  7 15 16 14 15.0000000  0  8G 3G19G14G15G18G21G22G 9
  21836402.3354  -16238173.33649 -12628888.05147                  21836401.6644
        49.7504         36.5004
  24092188.3914   -6321821.29349  -6141965.15647                  24092186.3754
        39.2504         28.2504
  21876662.5664  -22636791.88349 -17603841.71947                  21876662.4754
        46.2504         36.2504
  20344275.0704  -15786226.01649 -12279824.66848                  20344274.3584
        48.2504         42.2504
  21469340.5914   -6559148.68749  -5102517.53547                  21469338.3124
        51.7504         38.5004
  21614380.0714   -6730756.54349  -5237560.79347                  21614378.9784
        51.2504         36.0004
  20737029.8624  -12448023.11749  -9681269.17248                  20737026.6084
        47.2504         41.7504
  23856212.6554  -10557462.20349  -8212572.23446                  23856213.0364
        41.0004         22.0004
 04  7 15 16 14 30.0000000  0  8G 3G19G14G15G18G21G22G 9
  21825695.0654  -16294439.94949 -12672732.17647                  21825694.6404
        50.2504         37.0004
  24074721.9974   -6413611.04749  -6213489.64147                  24074720.0644
        41.2504         28.5004
  21859285.8314  -22728107.18049 -17674996.47347                  21859285.1994
        46.7504         37.0004
  20332566.5304  -15847756.74249 -12327770.69148                  20332565.5044
        49.5004         42.2504
  21465019.8904   -6581855.08249  -5120210.84447                  21465017.8704
        51.5004         38.7504
  21610441.6314   -6751452.94549  -5253687.88347                  21610440.4074
        49.2504         36.0004
  20728289.9454  -12493951.08649  -9717057.20348                  20728286.5154
        49.2504         41.0004
  23843341.9864  -10625095.40249  -8265273.39546                  23843343.6284
        39.0004         22.0004
 04  7 15 16 14 45.0000000  0  8G 3G19G14G15G18G21G22G 9
  21815013.6664  -16350570.55949 -12716470.32047                  21815013.2234
        49.7504         36.5004
  24057268.4554   -6505327.56649  -6284957.05947                  24057266.3104
        41.2504         29.5004
  21841926.1034  -22819333.22749 -17746081.67647                  21841925.6584
        46.0004         36.7504
  20320872.4614  -15909209.61749 -12375656.05548                  20320871.6024
        49.7504         42.0004
  21460706.4694   -6604522.57449  -5137873.83647                  21460704.3714
        51.2504         38.2504
  21606518.1834   -6772071.72349  -5269754.49247                  21606516.8864
        49.7504         36.0004
  20719561.9694  -12539815.92249  -9752796.04348                  20719559.0994
        48.5004         41.2504
  23830492.9994  -10692614.97749  -8317885.96146                  23830494.7564
        38.7504         21.7504
 04  7 15 16 15  0.0000000  0  8G 3G19G14G15G18G21G22G 9
  21804358.6344  -16406564.28949 -12760101.80547                  21804358.1564
        50.5004         36.7504
  24039829.4374   -6596969.67249  -6356366.49247                  24039826.8644
        41.0004         27.5004
  21824583.4214  -22910468.90649 -17817096.46547                  21824582.9854
        47.7504         37.0004
  20309193.3434  -15970583.71949 -12423480.03548                  20309192.5064
        47.2504         41.5004
  21456400.2264   -6627150.55949  -5155506.05147                  21456398.3574
        51.7504         38.5004
  21602609.6224   -6792612.04749  -5285759.96947                  21602608.2694
        49.7504         35.7504
  20710846.1684  -12585616.87949  -9788485.10948                  20710843.2584
        46.7504         41.7504
  23817666.7604  -10760019.99649  -8370409.29746                  23817667.6454
        39.2504         22.0004
 04  7 15 16 15 15.0000000  0  8G 3G19G14G15G18G21G22G 9
  21793729.2674  -16462421.13349 -12803626.62547                  21793728.9454
        49.5004         36.5004
  24022404.9084   -6688536.90249  -6427717.57447                  24022402.0944
        40.7504         28.7504
  21807258.2034  -23001513.84449 -17888040.54347                  21807257.7924
        47.2504         36.7504
  20297529.4384  -16031878.62149 -12471242.29748                  20297528.4664
        47.5004         41.7504
  21452101.8724   -6649739.06249  -5173107.49247                  21452100.1854
        52.0004         38.5004
  21598715.8834   -6813073.99249  -5301704.36747                  21598714.4214
        50.0004         35.2504
  20702143.2844  -12631353.93449  -9824124.37948                  20702140.3054
        47.5004         41.5004
  23804861.8704  -10827309.94149  -8422842.97346                  23804862.6374
        39.5004         21.7504
 04  7 15 16 15 30.0000000  0  8G 3G19G14G15G18G21G22G 9
  21783126.2844  -16518140.51249 -12847044.33647                  21783125.9744
        49.7504         37.0004
  24004993.9354   -6780028.65249  -6499009.83647                  24004992.2584
        40.5004         28.5004
  21789950.1204  -23092467.35249 -17958913.39147                  21789950.1194
        47.5004         37.2504
  20285880.1544  -16093093.77349 -12518942.43048                  20285879.3034
        49.2504         41.5004
  21447810.9124   -6672287.71149  -5190677.89147                  21447808.9964
        51.7504         38.0004
  21594837.0204   -6833457.06649  -5317587.30947                  21594835.8524
        49.0004         35.0004
  20693451.6894  -12677026.84849  -9859713.67248                  20693449.2204
        49.5004         41.7504
  23792078.7554  -10894484.19949  -8475186.48446                  23792079.6364
        39.5004         21.5004
 04  7 15 16 15 45.0000000  0  8G 3G19G14G15G18G21G22G 9
  21772548.8054  -16573724.31249 -12890356.39147                  21772548.8744
        50.7504         37.2504
  23987598.0914   -6871446.39549  -6570244.43447                  23987595.7414
        40.0004         28.5004
  21772658.9774  -23183331.09449 -18029716.27047                  21772658.8144
        46.5004         37.0004
  20274245.9684  -16154230.93449 -12566581.77348                  20274245.5224
        48.0004         41.2504
  21443527.4214   -6694798.66849  -5208218.90647                  21443525.5114
        51.2504         38.0004
  21590972.9024   -6853763.21949  -5333410.31247                  21590971.6014
        50.5004         35.5004
  20684772.4034  -12722637.74249  -9895254.63348                  20684769.3004
        48.5004         42.0004
  23779317.8164  -10961544.22349  -8527441.02746                  23779318.7454
        38.5004         21.5004
 04  7 15 16 16  0.0000000  0  8G 3G19G14G15G18G21G22G 9
  21761997.7384  -16629170.55149 -12933561.26247                  21761998.0064
        49.5004         37.0004
  23970216.7714   -6962787.99649  -6641419.71547                  23970214.5464
        39.7504         30.0004
  21755385.9454  -23274102.81649 -18100447.46547                  21755385.7384
        46.0004         36.7504
  20262627.3634  -16215287.94149 -12614158.67248                  20262626.9444
        48.0004         41.0004
  21439251.2184   -6717270.10549  -5225729.13347                  21439249.2194
        51.0004         38.5004
  21587123.7564   -6873990.58249  -5349171.91447                  21587122.8344
        49.7504         35.2504
  20676104.9654  -12768184.85949  -9930745.89848                  20676102.0204
        47.5004         42.0004
  23766578.4294  -11028487.85549  -8579604.84446                  23766579.5204
        38.5004         22.5004
 04  7 15 16 16 15.0000000  0  8G 3G19G14G15G18G21G22G 9
  21751473.0314  -16684479.86749 -12976659.43747                  21751472.8164
        50.5004         36.5004
  23952849.3214   -7054053.78949  -6712535.91847                  23952846.7594
        42.0004         30.7504
  21738130.3774  -23364783.10549 -18171107.39847                  21738129.9844
        46.2504         36.5004
  20251023.6584  -16276265.41849 -12661673.59448                  20251022.8764
        48.5004         41.5004
  21434982.4574   -6739702.91449  -5243209.26647                  21434980.4394
        52.0004         37.7504
  21583289.4944   -6894139.78949  -5364872.61347                  21583288.5434
        50.0004         35.5004
  20667449.4444  -12813668.96549  -9966188.06248                  20667446.8264
        49.2504         41.7504
  23753861.3174  -11095315.52349  -8631678.32446                  23753862.5714
        38.0004         21.5004
 04  7 15 16 16 30.0000000  0  8G 3G19G14G15G18G21G22G 9
  21740973.9344  -16739651.68449 -13019650.46947                  21740974.0874
        50.5004         36.7504
  23935496.4434   -7145242.99649  -6783592.44147                  23935494.8094
        43.5004         31.0004
  21720891.8234  -23455371.13349 -18241695.44147                  21720891.6024
        47.5004         36.5004
  20239435.4634  -16337162.64149 -12709125.98048                  20239434.7574
        48.5004         41.2504
  21430720.8914   -6762096.85949  -5260659.10547                  21430718.5774
        50.7504         37.7504
  21579470.2424   -6914210.68749  -5380512.30947                  21579468.8154
        48.7504         35.5004
  20658806.6224  -12859089.64149 -10001580.80948                  20658803.7154
        48.0004         41.7504
  23741167.2284  -11162026.49649  -8683660.90646                  23741168.4294
        37.5004         21.2504
 04  7 15 16 16 45.0000000  0  8G 3G19G14G15G18G21G22G 9
  21730501.3154  -16794685.83249 -13062534.22347                  21730501.1784
        50.0004         36.7504
  23918158.7834   -7236355.09849  -6854588.89547                  23918156.6614
        44.0004         31.0004
  21703671.2844  -23545866.37549 -18312211.18747                  21703671.0884
        46.5004         37.0004
  20227862.4184  -16397979.18449 -12756515.50448                  20227861.5794
        47.2504         41.2504
  21426466.7454   -6784451.59449  -5278078.39547                  21426464.9574
        49.7504         37.7504
  21575665.8344   -6934202.75449  -5396090.56247                  21575664.7404
        48.7504         35.2504
  20650175.1934  -12904446.88749 -10036924.12948                  20650172.4914
        47.7504         41.5004
  23728494.4734  -11228620.24649  -8735552.08646                  23728496.0904
        38.7504         22.5004
 04  7 15 16 17  0.0000000  0  8G 3G19G14G15G18G21G22G 9
  21720054.8644  -16849581.63349 -13105310.18047                  21720054.8894
        49.5004         36.5004
  23900835.6504   -7327389.10549  -6925524.47747                  23900834.0734
        41.7504         32.5004
  21686468.1594  -23636267.94549 -18382653.94547                  21686467.9304
        45.5004         37.2504
  20216304.9904  -16458714.18449 -12803841.47348                  20216304.6944
        48.0004         41.0004
  21422220.5134   -6806766.93449  -5295467.00047                  21422218.2744
        51.5004         38.0004
  21571876.2844   -6954115.22749  -5411606.80147                  21571875.6544
        49.7504         35.0004
  20641555.9234  -12949740.19149 -10072217.61748                  20641553.4294
        48.0004         41.5004
  23715844.3554  -11295095.82049  -8787351.20746                  23715846.0884
        37.2504         22.5004
 04  7 15 16 17 15.0000000  0  8G 3G19G14G15G18G21G22G 9
  21709634.5244  -16904340.13749 -13147979.14847                  21709634.5314
        50.0004         36.7504
  23883526.9874   -7418345.83249  -6996399.84847                  23883525.7764
        40.5004         32.0004
  21669283.1364  -23726576.55549 -18453024.26647                  21669282.9504
        45.2504         37.0004
  20204762.4824  -16519368.57449 -12851104.64848                  20204762.5154
        47.7504         41.2504
  21417981.4294   -6829044.05549  -5312825.81247                  21417979.0714
        51.0004         37.5004
  21568102.1984   -6973949.28149  -5427061.94147                  21568101.3454
        49.5004         35.2504
  20632949.1834  -12994970.71949 -10107462.18748                  20632946.1734
        48.7504         41.7504
  23703216.8604  -11361453.94149  -8839058.80146                  23703218.3944
        39.7504         22.5004
 04  7 15 16 17 30.0000000  0  8G 3G19G14G15G18G21G22G 9
  21699240.7604  -16958960.68449 -13190540.62147                  21699240.5374
        49.7504         36.7504
  23866233.7934   -7509224.16849  -7067214.12147                  23866232.7944
        42.0004         32.0004
  21652115.6154  -23816791.34449 -18523321.47747                  21652115.4764
        48.0004         36.5004
  20193236.3134  -16579941.34049 -12898304.21148                  20193236.1134
        49.5004         41.7504
  21413749.3964   -6851282.22349  -5330154.26647                  21413747.2194
        51.5004         38.0004
  21564343.0774   -6993704.22349  -5442455.42647                  21564341.9034
        49.7504         35.5004
  20624354.1514  -13040137.82449 -10142657.34448                  20624351.2544
        49.5004         41.5004
  23690612.2494  -11427693.62149  -8890674.11746                  23690613.8064
        39.7504         23.0004
 04  7 15 16 17 45.0000000  0  8G 3G19G14G15G18G21G22G 9
  21688873.1074  -17013444.24249 -13232995.34847                  21688872.6144
        49.5004         37.2504
  23848954.2854   -7600025.03549  -7137968.03147                  23848953.5554
        41.7504         32.0004
  21634966.5584  -23906913.11749 -18593546.21947                  21634966.0234
        47.2504         37.7504
  20181724.9774  -16640433.57049 -12945441.02048                  20181724.4204
        48.5004         41.7504
  21409524.8244   -6873482.95749  -5347453.55947                  21409522.7644
        50.7504         37.5004
  21560598.5044   -7013381.31649  -5457788.25447                  21560597.2704
        48.5004         35.7504
  20615770.7304  -13085242.95749 -10177804.21148                  20615768.0534
        49.2504         41.7504
  23678029.3894  -11493815.75449  -8942197.82446                  23678031.0814
        39.5004         22.2504
 04  7 15 16 18  0.0000000  0  8G 3G19G14G15G18G21G22G 9
  21678531.4694  -17067790.28949 -13275342.93047                  21678531.2944
        50.0004         36.7504
  23831690.1494   -7690747.51249  -7208660.85547                  23831689.3034
        41.2504         30.5004
  21617834.4234  -23996941.02349 -18663697.80547                  21617834.0714
        46.5004         37.0004
  20170228.9884  -16700844.47349 -12992514.45748                  20170228.8994
        47.5004         41.5004
  21405307.6904   -6895645.60949  -5364723.17247                  21405305.6704
        51.5004         37.7504
  21556869.3354   -7032979.98449  -5473059.97747                  21556868.2584
        49.7504         36.0004
  20607199.6104  -13130285.55149 -10212902.34048                  20607196.5694
        49.2504         41.7504
  23665468.8114  -11559819.43749  -8993629.23046                  23665470.5244
        40.0004         23.5004
 04  7 15 16 18 15.0000000  0  8G 3G19G14G15G18G21G22G 9
  21668215.8454  -17121998.85549 -13317583.37947                  21668215.5054
        50.5004         36.7504
  23814441.5554   -7781391.35249  -7279292.40247                  23814440.2194
        39.5004         31.0004
  21600720.7424  -24086874.85249 -18733776.09847                  21600720.5664
        46.2504         37.7504
  20158748.7294  -16761173.98049 -13039524.46948                  20158748.6694
        50.0004         41.5004
  21401097.3434   -6917770.51249  -5381963.37547                  21401095.3034
        51.5004         38.0004
  21553154.9824   -7052500.33249  -5488270.66847                  21553153.2704
        50.2504         35.5004
  20598640.1504  -13175265.90249 -10247951.97348                  20598636.8454
        49.5004         41.5004
  23652930.7544  -11625704.51649  -9044968.25446                  23652932.8714
        40.0004         22.7504
 04  7 15 16 18 30.0000000  0  8G 3G19G14G15G18G21G22G 9
  21657926.4564  -17176069.70349 -13359716.52047                  21657926.5904
        49.5004         37.0004
  23797207.3324   -7871956.06249  -7349862.30147                  23797205.6344
        41.7504         30.7504
  21583624.7204  -24176714.23049 -18803780.77747                  21583624.4624
        46.7504         37.2504
  20147284.0364  -16821421.74649 -13086470.78548                  20147283.4804
        49.0004         41.2504
  21396894.3144   -6939857.77749  -5399174.25047                  21396892.4814
        51.2504         37.5004
  21549455.2154   -7071942.18049  -5503420.18447                  21549453.5174
        49.5004         34.7504
  20590092.5294  -13220183.98849 -10282953.07848                  20590089.5944
        49.2504         41.7504
  23640417.2264  -11691470.57049  -9096214.48846                  23640418.1714
        39.2504         22.5004
 04  7 15 16 18 45.0000000  0  8G 3G19G14G15G18G21G22G 9
  21647663.2174  -17230003.52349 -13401742.88347                  21647662.9134
        50.2504         36.7504
  23779988.7804   -7962442.11349  -7420370.91847                  23779986.8554
        41.5004         31.0004
  21566546.8064  -24266459.56249 -18873712.18047                  21566546.2544
        45.7504         37.0004
  20135834.5714  -16881588.27749 -13133353.80148                  20135834.0274
        49.2504         41.2504
  21392698.4204   -6961908.03149  -5416356.27747                  21392696.6454
        51.5004         38.2504
  21545770.2314   -7091306.21949  -5518509.08247                  21545768.6104
        50.2504         35.0004
  20581556.4474  -13265040.64549 -10317906.32048                  20581553.6154
        49.2504         41.7504
  23627925.3544  -11757117.99249  -9147368.30946                  23627926.2444
        40.5004         23.2504
 04  7 15 16 19  0.0000000  0  8G 3G19G14G15G18G21G22G 9
  21637426.4154  -17283799.66049 -13443661.95347                  21637425.8524
        49.7504         37.2504
  23762784.9474   -8052848.44549  -7490817.39847                  23762783.3164
        41.5004         31.0004
  21549486.8064  -24356109.87949 -18943569.54747                  21549486.5174
        47.7504         37.5004
  20124400.9134  -16941672.60949 -13180172.76648                  20124400.6274
        49.7504         41.0004
  21388509.1254   -6983920.67249  -5433509.00847                  21388507.6284
        51.0004         37.5004
  21542100.4464   -7110591.73849  -5533536.78547                  21542098.8924
        50.2504         35.0004
  20573032.4094  -13309835.18449 -10352811.17248                  20573029.6844
        49.2504         42.0004
  23615455.1664  -11822645.73849  -9198428.85246                  23615456.4804
        40.7504         22.5004
 04  7 15 16 19 15.0000000  0  8G 3G19G14G15G18G21G22G 9
  21627214.9324  -17337458.80149 -13485474.28147                  21627215.0544
        49.5004         36.7504
  23745596.1974   -8143175.32849  -7561201.98847                  23745594.7864
        42.7504         31.0004
  21532444.9084  -24445665.55149 -19013353.17247                  21532444.5584
        47.2504         37.7504
  20112982.6294  -17001675.25049 -13226928.07848                  20112982.3264
        49.0004         41.7504
  21384327.7134   -7005896.65649  -5450633.16847                  21384326.0744
        52.0004         37.5004
  21538445.6994   -7129799.43749  -5548503.85547                  21538443.8804
        50.2504         35.0004
  20564519.4574  -13354568.48049 -10387668.28548                  20564516.9894
        49.5004         42.0004
  23603007.6524  -11888054.25849  -9249396.49646                  23603009.8274
        41.2504         23.7504
 04  7 15 16 19 30.0000000  0  8G 3G19G14G15G18G21G22G 9
  21617030.4134  -17390980.39149 -13527179.42247                  21617029.9044
        49.7504         37.0004
  23728422.8384   -8233422.09049  -7631524.14147                  23728421.4384
        42.0004         31.2504
  21515421.2564  -24535125.86349 -19083062.48047                  21515420.7604
        46.7504         36.5004
  20101580.3104  -17061595.53949 -13273619.22748                  20101579.9104
        48.5004         41.2504
  21380152.6214   -7027835.55549  -5467728.43447                  21380150.8694
        51.5004         38.0004
  21534805.3664   -7148928.85249  -5563409.92247                  21534803.5894
        50.0004         35.0004
  20556019.1884  -13399240.20349 -10422477.43448                  20556016.2254
        49.0004         42.0004
  23590584.6824  -11953342.65249  -9300270.59046                  23590585.5434
        40.5004         22.2504
 04  7 15 16 19 45.0000000  0  8G 3G19G14G15G18G21G22G 9
  21606871.7674  -17444364.34049 -13568777.30947                  21606871.2494
        50.7504         37.5004
  23711264.5404   -8323588.35549  -7701783.55547                  23711263.1294
        40.2504         31.0004
  21498415.4544  -24624490.56649 -19152697.28947                  21498415.2954
        45.7504         36.5004
  20090193.8014  -17121433.34449 -13320246.09448                  20090193.4284
        49.0004         41.2504
  21375984.9774   -7049737.50849  -5484794.91447                  21375982.8634
        51.5004         37.5004
  21531180.0104   -7167979.99249  -5578254.99247                  21531178.3614
        49.7504         35.5004
  20547530.0234  -13443850.48449 -10457238.70748                  20547527.2654
        49.2504         41.7504
  23578183.4794  -12018510.78549  -9351050.92246                  23578184.1824
        41.0004         22.5004
 04  7 15 16 20  0.0000000  0  8G 3G19G14G15G18G21G22G 9
  21596739.5044  -17497609.75449 -13610267.25447                  21596739.7024
        50.2504         37.0004
  23694122.7124   -8413672.97749  -7771979.35947                  23694120.8514
        42.0004         31.0004
  21481428.4214  -24713758.39149 -19222256.60947                  21481428.3384
        47.7504         37.0004
  20078822.6904  -17181187.56249 -13366807.82448                  20078822.6434
        50.0004         41.7504
  21371824.2894   -7071601.92649  -5501832.14547                  21371822.4444
        51.5004         38.0004
  21527569.2614   -7186951.91449  -5593038.34047                  21527567.9344
        50.0004         35.2504
  20539053.0754  -13488398.46149 -10491951.42248                  20539050.1764
        50.0004         41.7504
  23565804.9714  -12083557.49649  -9401736.62946                  23565806.6354
        40.7504         23.0004
 04  7 15 16 20 15.0000000  0  8G 3G19G14G15G18G21G22G 9
  21586633.1834  -17550717.85949 -13651650.19947                  21586633.3504
        50.2504         37.0004
  23676995.2754   -8503676.76249  -7842112.15247                  23676993.3854
        41.5004         30.5004
  21464459.5154  -24802930.39849 -19291741.25847                  21464459.0604
        45.5004         37.2504
  20067467.4494  -17240859.23849 -13413305.24248                  20067467.2874
        49.0004         41.7504
  21367670.3564   -7093430.16049  -5518841.18747                  21367669.0544
        51.0004         37.5004
  21523974.3524   -7205846.02349  -5607761.05547                  21523972.8324
        49.5004         34.5004
  20530587.1984  -13532885.55949 -10526616.69948                  20530584.6364
        49.0004         42.0004
  23553450.3134  -12148483.64549  -9452328.40246                  23553451.5754
        40.0004         22.7504
 04  7 15 16 20 30.0000000  0  8G 3G19G14G15G18G21G22G 9
  21576553.6424  -17603687.80949 -13692925.48847                  21576553.1814
        49.7504         37.2504
  23659883.1584   -8593598.61749  -7912181.13347                  23659881.6874
        41.0004         31.0004
  21447509.4074  -24892005.57449 -19361150.46947                  21447508.8524
        45.2504         37.5004
  20056128.4114  -17300447.36749 -13459737.56248                  20056128.1344
        49.0004         42.0004
  21363523.8944   -7115221.39849  -5535821.39147                  21363521.8494
        51.2504         38.0004
  21520394.0084   -7224661.48849  -5622422.48447                  21520392.7124
        49.5004         35.0004
  20522133.2974  -13577311.14149 -10561234.03948                  20522130.5384
        49.0004         41.7504
  23541118.2854  -12213288.18749  -9502825.43746                  23541120.0924
        41.0004         22.2504
 04  7 15 16 20 45.0000000  0  8G 3G19G14G15G18G21G22G 9
  21566499.6624  -17656520.17649 -13734093.56647                  21566499.7784
        49.2504         37.0004
  23642787.0124   -8683438.85549  -7982186.50447                  23642785.7974
        43.2504         31.7504
  21430577.2074  -24980984.21149 -19430484.45347                  21430576.6944
        47.2504         37.2504
  20044805.1594  -17359952.36749 -13506105.10548                  20044804.5934
        50.7504         41.7504
  21359383.9394   -7136976.38749  -5552773.36747                  21359382.1804
        50.0004         37.7504
  21516828.0174   -7243398.86349  -5637023.06247                  21516827.2604
        49.5004         34.5004
  20513691.1404  -13621675.90649 -10595803.99248                  20513688.3134
        49.5004         41.5004
  23528809.9994  -12277971.52749  -9553228.04746                  23528811.0554
        40.7504         22.5004
 04  7 15 16 21  0.0000000  0  8G 3G19G14G15G18G21G22G 9
  21556472.4854  -17709213.30949 -13775153.16447                  21556472.9914
        49.0004         37.0004
  23625707.7884   -8773195.53149  -8052126.78147                  23625705.2644
        42.5004         31.0004
  21413663.7224  -25069864.34049 -19499741.67247                  21413663.4784
        45.0004         38.0004
  20033497.7024  -17419372.32849 -13552406.37948                  20033497.1634
        48.7504         41.5004
  21355251.3704   -7158693.56649  -5569695.86747                  21355249.4474
        49.7504         38.2504
  21513277.9024   -7262056.61749  -5651561.60247                  21513276.6724
        49.5004         35.0004
  20505260.5624  -13665978.33649 -10630325.37948                  20505257.8254
        49.7504         41.7504
  23516524.0624  -12342531.56649  -9603534.53946                  23516525.7934
        39.5004         22.5004
 04  7 15 16 21 15.0000000  0  8G 3G19G14G15G18G21G22G 9
  21546471.5854  -17761769.16849 -13816105.78547                  21546471.4204
        49.0004         37.0004
  23608642.6794   -8862870.35949  -8122003.27047                  23608640.7024
        43.7504         31.0004
  21396768.3234  -25158647.71949 -19568923.50847                  21396768.2594
        45.5004         37.5004
  20022206.4664  -17478709.09849 -13598642.83248                  20022206.0454
        49.2504         41.2504
  21351125.4744   -7180375.11749  -5586590.60547                  21351124.0674
        49.0004         37.5004
  21509741.9374   -7280636.69949  -5666039.61747                  21509740.9144
        50.0004         35.0004
  20496841.7174  -13710220.58649 -10664799.86748                  20496838.8884
        49.0004         41.7504
  23504262.6054  -12406970.15249  -9653746.38346                  23504262.9984
        40.5004         22.2504
 04  7 15 16 21 30.0000000  0  8G 3G19G14G15G18G21G22G 9
  21536496.6204  -17814187.44949 -13856951.20747                  21536496.1924
        47.5004         37.0004
  23591594.1654   -8952462.66449  -8191815.45747                  23591591.5394
        41.0004         31.0004
  21379892.4544  -25247333.72349 -19638029.46547                  21379892.1674
        44.5004         37.0004
  20010930.9744  -17537962.18749 -13644814.07448                  20010930.3724
        49.5004         41.5004
  21347006.3064   -7202020.88749  -5603457.47347                  21347005.0734
        49.2504         37.2504
  21506221.3394   -7299138.77349  -5680456.84847                  21506220.4684
        49.5004         35.0004
  20488434.0394  -13754402.49249 -10699227.32848                  20488431.2404
        49.0004         42.0004
  23492022.3024  -12471286.68749  -9703863.15646                  23492024.1814
        40.0004         22.7504
 04  7 15 16 21 45.0000000  0  8G 3G19G14G15G18G21G22G 9
  21526547.9484  -17866468.34849 -13897689.58647                  21526547.8024
        48.0004         36.7504
  23574561.0524   -9041972.27349  -8261563.20747                  23574559.3344
        42.5004         32.0004
  21363034.3954  -25335922.23849 -19707059.45347                  21363034.0424
        45.0004         37.5004
  19999671.4534  -17597131.41449 -13690919.97348                  19999670.6674
        49.2504         41.5004
  21342893.6974   -7223631.19549  -5620296.66847                  21342892.4604
        48.0004         36.7504
  21502715.5994   -7317562.97749  -5694813.39547                  21502714.3744
        49.2504         34.5004
  20480037.9564  -13798524.28149 -10733607.94948                  20480034.9034
        49.5004         42.0004
  23479807.9074  -12535480.91049  -9753884.60946                  23479808.7684
        40.0004         22.5004
 04  7 15 16 22  0.0000000  0  8G 3G19G14G15G18G21G22G 9
  21516625.3944  -17918611.38749 -13938320.52047                  21516625.8454
        48.0004         36.5004
  23557543.7494   -9131398.62949  -8331246.08647                  23557541.6564
        42.5004         32.0004
  21346195.3914  -25424412.70349 -19776013.03147                  21346194.8264
        45.2504         37.2504
  19988427.5224  -17656216.34449 -13736960.18448                  19988427.0974
        49.0004         41.5004
  21338788.4134   -7245205.83649  -5637108.09047                  21338787.0234
        48.7504         37.2504
  21499223.9874   -7335909.04349  -5709109.05947                  21499223.0004
        49.5004         34.7504
  20471653.4104  -13842585.70349 -10767941.54348                  20471650.3034
        49.5004         41.5004
  23467614.1994  -12599552.32049  -9803810.35946                  23467616.2554
        40.2504         22.2504
 04  7 15 16 22 15.0000000  0  8G 3G19G14G15G18G21G22G 9
  21806522.3574  -17970612.97749 -13978841.24647                  21806522.3814
        48.0004         37.5004
  23840336.2974   -9220735.06649  -8400858.89847                  23840334.0114
        43.7504         31.2504
  21629168.6124  -25512798.71549 -19844885.23447                  21629167.9114
        45.0004         37.5004
  20276993.7084  -17715212.69949 -13782931.37948                  20276993.6484
        48.0004         41.5004
  21634482.1544   -7266743.30149  -5653890.54747                  21634481.1994
        49.2504         37.7504
  21795540.9264   -7354175.51649  -5723342.71147                  21795539.3744
        49.5004         35.0004
  20763073.2644  -13886583.71549 -10802225.70348                  20763070.5954
        49.7504         42.0004
  23755239.0814  -12663496.07449  -9853636.67246                  23755240.7834
        40.0004         22.5004
 04  7 15 16 22 30.0000000  0  8G 3G19G14G15G18G21G22G 9
  21796652.1284  -18022480.41849 -14019257.45747                  21796651.9944
        48.5004         37.0004
  23823350.7174   -9309993.66049  -8470411.05947                  23823348.2554
        41.5004         31.5004
  21612366.8154  -25601092.42649 -19913685.50447                  21612366.3404
        46.7504         37.7504
  20265782.7124  -17774128.67649 -13828839.94548                  20265782.3604
        50.0004         41.0004
  21630390.4204   -7288247.05549  -5670646.73047                  21630389.2624
        49.0004         37.5004
  21792079.6584   -7372365.42649  -5737516.69547                  21792078.1254
        49.0004         35.2504
  20754711.4104  -13930524.84449 -10836465.55548                  20754708.6314
        50.0004         42.0004
  23743093.4024  -12727320.96949  -9903370.34846                  23743095.0974
        38.7504         22.7504
 04  7 15 16 22 45.0000000  0  8G 3G19G14G15G18G21G22G 9
  21786808.4224  -18074210.68749 -14059566.75847                  21786808.4874
        48.2504         37.5004
  23806381.2634   -9399168.57049  -8539897.98847                  23806378.1444
        39.5004         30.5004
  21595583.6374  -25689287.75449 -19982409.12147                  21595582.8774
        45.0004         37.7504
  20254587.6014  -17832960.40249 -13874682.84848                  20254586.6694
        51.0004         41.5004
  21626304.9894   -7309716.03149  -5687375.82047                  21626303.5844
        49.5004         37.2504
  21788632.7324   -7390477.79349  -5751630.25447                  21788630.8654
        49.2504         34.5004
  20746361.0984  -13974406.54349 -10870659.10248                  20746358.5284
        48.5004         42.0004
  23730971.6564  -12791022.76649  -9953008.10546                  23730973.2664
        40.5004         22.2504
 04  7 15 16 23  0.0000000  0  8G 3G19G14G15G18G21G22G 9
  21776990.7154  -18125803.53549 -14099768.99247                  21776990.7094
        49.0004         36.7504
  23789427.5794   -9488259.19949  -8609319.24647                  23789425.1564
        41.7504         30.0004
  21578819.5664  -25777384.33649 -20051055.78147                  21578818.8214
        45.5004         37.5004
  20243408.0814  -17891707.46949 -13920459.78948                  20243407.4194
        49.2504         41.7504
  21622226.1834   -7331150.23849  -5704077.84847                  21622224.9814
        50.5004         37.0004
  21785200.8244   -7408512.48449  -5765683.28947                  21785199.1074
        49.0004         35.0004
  20738022.0754  -14018228.81249 -10904806.32048                  20738019.1554
        49.5004         42.0004
  23718873.0354  -12854601.08649 -10002549.62546                  23718874.7004
        40.5004         24.5004
 04  7 15 16 23 15.0000000  0  8G 3G19G14G15G18G21G22G 9
  21767198.6704  -18177259.16849 -14139864.28947                  21767198.8664
        49.2504         36.7504
  23772490.3884   -9577265.56249  -8678674.86347                  23772488.9954
        42.0004         31.5004
  21562074.0914  -25865382.20749 -20119625.53947                  21562073.5134
        46.2504         37.7504
  20232244.9124  -17950369.91449 -13966170.79348                  20232244.3584
        49.7504         41.7504
  21618154.0524   -7352549.98449  -5720752.98847                  21618152.6134
        50.5004         37.0004
  21781783.7014   -7426469.66849  -5779675.93447                  21781781.9934
        50.0004         34.7504
  20729694.4784  -14061992.01649 -10938907.52348                  20729691.2204
        49.5004         41.5004
  23706797.7254  -12918055.87549 -10051994.90646                  23706800.1554
        39.7504         25.2504
 04  7 15 16 23 30.0000000  0  8G 3G19G14G15G18G21G22G 9
  21757433.4424  -18228577.65649 -14179852.72747                  21757433.0694
        50.2504         37.0004
  23755569.4764   -9666187.43749  -8747964.61747                  23755568.1434
        40.7504         33.0004
  21545347.5454  -25953281.06649 -20188118.13747                  21545346.9524
        46.0004         37.5004
  20221097.9434  -18008947.62949 -14011815.77048                  20221097.3664
        50.2504         42.2504
  21614088.2524   -7373915.39549  -5737401.37547                  21614087.0384
        49.7504         36.7504
  21778381.3424   -7444349.51249  -5793608.30947                  21778379.5544
        49.5004         34.5004
  20721377.5114  -14105696.30149 -10972962.81648                  20721374.4444
        48.7504         41.2504
  23694746.8434  -12981386.93449 -10101343.79346                  23694748.9054
        41.0004         23.5004
 04  7 15 16 23 45.0000000  0  8G 3G19G14G15G18G21G22G 9
  21747693.9564  -18279759.17249 -14219734.43747                  21747693.5854
        49.7504         37.2504
  23738664.0184   -9755024.58649  -8817188.37147                  23738662.5264
        42.0004         32.5004
  21528639.4704  -26041080.96549 -20256533.62147                  21528639.1294
        45.2504         37.7504
  20209967.1604  -18067440.60549 -14057394.71948                  20209967.0804
        49.7504         41.5004
  21610029.2094   -7395246.85949  -5754023.30947                  21610027.7784
        49.7504         36.7504
  21774993.5724   -7462152.24249  -5807480.59447                  21774992.1264
        49.5004         35.0004
  20713072.0844  -14149341.94149 -11006972.41448                  20713069.4364
        49.5004         41.2504
  23682718.4124  -13044594.09449 -10150596.12146                  23682721.1304
        40.7504         25.0004
 04  7 15 16 24  0.0000000  0  8G 3G19G14G15G18G21G22G 9
  21737980.3074  -18330803.66049 -14259509.36347                  21737980.5324
        49.2504         37.0004
  23721775.2904   -9843776.63749  -8886345.81247                  23721772.8464
        42.5004         31.7504
  21511950.6524  -26128781.43749 -20324871.63347                  21511950.3144
        45.5004         37.5004
  20198852.5384  -18125848.57049 -14102907.42648                  20198852.2254
        48.5004         41.7504
  21605976.6054   -7416544.51249  -5770618.89147                  21605975.0694
        49.7504         36.5004
  21771620.6924   -7479877.66849  -5821292.64847                  21771619.1674
        49.5004         34.2504
  20704777.8264  -14192929.03949 -11040936.39148                  20704774.8264
        49.5004         41.7504
  23670714.4414  -13107677.06649 -10199751.66846                  23670715.9204
        42.5004         25.5004
 04  7 15 16 24 15.0000000  0  8G 3G19G14G15G18G21G22G 9
  21728292.8214  -18381711.55549 -14299177.85947                  21728292.7334
        47.2504         37.5004
  23704902.2514   -9932443.75849  -8955437.08647                  23704900.2644
        41.5004         32.0004
  21495280.8114  -26216382.80949 -20393132.42647                  21495280.3474
        47.5004         37.7504
  20187754.1454  -18184171.88749 -14148354.17248                  20187753.4334
        50.2504         41.7504
  21601929.7114   -7437808.97749  -5787188.63747                  21601928.5824
        47.0004         36.5004
  21768262.1234   -7497526.28949  -5835044.85247                  21768260.9994
        49.0004         35.0004
  20696494.4164  -14236458.18449 -11074855.21148                  20696491.2144
        49.5004         42.0004
  23658733.8464  -13170636.07049 -10248810.62546                  23658735.5284
        41.2504         25.5004
 04  7 15 16 24 30.0000000  0  8G 3G19G14G15G18G21G22G 9
  21718631.2314  -18432483.40649 -14338740.34847                  21718631.5654
        47.7504         37.0004
  23688045.2424  -10021026.11349  -9024462.28947                  23688043.9024
        40.0004         31.5004
  21478629.8474  -26303885.21549 -20461316.09847                  21478628.7294
        45.5004         37.0004
  20176671.7184  -18242410.77049 -14193735.12948                  20176671.0984
        47.2504         42.0004
  21597889.6704   -7459040.78949  -5803732.90247                  21597888.4494
        48.5004         37.2504
  21764918.4334   -7515098.73049  -5848737.69147                  21764916.4844
        49.7504         34.5004
  20688222.1804  -14279929.92649 -11108729.30948                  20688219.0984
        47.7504         42.0004
  23646776.7944  -13233471.25849 -10297773.10946                  23646778.7914
        42.2504         25.5004
 04  7 15 16 24 45.0000000  0  8G 3G19G14G15G18G21G22G 9
  21708996.0554  -18483118.34049 -14378196.14547                  21708995.6524
        46.7504         37.0004
  23671204.9114  -10109522.67249  -9093420.63347                  23671203.7234
        40.5004         31.0004
  21461997.9294  -26391287.66049 -20529421.88347                  21461996.9674
        47.0004         38.0004
  20165605.2804  -18300564.25049 -14239049.53948                  20165604.7284
        50.2504         42.0004
  21593855.4364   -7480239.27349  -5820251.22747                  21593854.3644
        47.2504         37.5004
  21761589.0904   -7532594.25049  -5862370.59447                  21761587.4684
        50.0004         34.5004
  20679960.7464  -14323343.72749 -11142558.24248                  20679957.6864
        50.2504         41.7504
  23634842.9814  -13296181.60949 -10346638.31247                  23634845.3764
        41.7504         26.2504
 04  7 15 16 25  0.0000000  0  8G 3G19G14G15G18G21G22G 9
  21699386.5024  -18533616.22349 -14417545.15247                  21699386.2864
        48.0004         37.2504
  23654380.9024  -10197932.89149  -9162311.68447                  23654380.0454
        41.0004         31.7504
  21445384.1134  -26478589.80949 -20597449.51247                  21445384.1314
        46.7504         37.5004
  20154555.0894  -18358632.00049 -14284297.13748                  20154554.8344
        49.2504         42.5004
  21589828.0664   -7501404.48449  -5836743.61347                  21589826.8574
        48.7504         37.0004
  21758274.4324   -7550012.74649  -5875943.48847                  21758273.2324
        50.0004         34.7504
  20671710.4704  -14366699.56649 -11176342.02348                  20671707.3824
        49.5004         42.0004
  23622934.0514  -13358766.71149 -10395405.93447                  23622936.0264
        42.0004         25.7504
 04  7 15 16 25 15.0000000  0  8G 3G19G14G15G18G21G22G 9
  21689802.9304  -18583977.85249 -14456787.98447                  21689802.7344
        48.2504         37.0004
  23637573.4044  -10286257.26649  -9231135.85247                  23637571.8264
        39.5004         31.7504
  21428790.2144  -26565792.10949 -20665399.34447                  21428789.5194
        48.0004         37.2504
  20143521.8414  -18416614.63349 -14329478.41448                  20143521.1784
        49.7504         42.2504
  21585806.5244   -7522537.25849  -5853210.72747                  21585805.3124
        48.5004         37.0004
  21754974.4034   -7567354.91449  -5889456.89147                  21754972.9394
        49.2504         34.5004
  20663471.0754  -14409998.29349 -11210081.30548                  20663467.9864
        49.0004         41.7504
  23611047.9904  -13421227.03949 -10444076.30547                  23611050.7714
        42.0004         26.2504
 04  7 15 16 25 30.0000000  0  8G 3G19G14G15G18G21G22G 9
  21680245.4934  -18634202.64849 -14495924.19547                  21680245.2274
        48.7504         37.0004
  23620782.5554  -10374494.96149  -9299892.50047                  23620780.7804
        41.0004         32.0004
  21412215.4014  -26652893.78549 -20733270.75447                  21412214.8594
        47.0004         38.0004
  20132504.2954  -18474511.31649 -14374592.71948                  20132503.4314
        48.7504         41.7504
  21581791.4284   -7543637.20749  -5869652.25847                  21581790.3674
        49.2504         37.0004
  21751688.9494   -7584620.17249  -5902910.37147                  21751687.8084
        49.0004         34.2504
  20655242.5464  -14453239.44149 -11243775.71548                  20655239.4884
        49.2504         41.7504
  23599185.9154  -13483561.87149 -10492648.89147                  23599188.8004
        42.0004         26.2504
 04  7 15 16 25 45.0000000  0  8G 3G19G14G15G18G21G22G 9
  21670714.5994  -18684289.21149 -14534952.68447                  21670714.3024
        50.0004         37.5004
  23604007.8904  -10462644.25449  -9368580.24647                  23604006.5044
        42.0004         32.5004
  21395659.9604  -26739893.06649 -20801062.38747                  21395659.3174
        47.2504         38.2504
  20121503.4084  -18532320.43049 -14419638.78948                  20121503.1244
        48.5004         42.2504
  21577782.7564   -7564703.00449  -5886067.18747                  21577781.6854
        50.0004         36.2504
  21748418.2914   -7601807.07849  -5916302.79747                  21748417.3684
        49.0004         34.5004
  20647025.5324  -14496421.77349 -11277424.28148                  20647021.9604
        49.0004         41.5004
  23587348.3864  -13545769.52049 -10541122.36747                  23587351.1404
        42.0004         27.5004
 04  7 15 16 26  0.0000000  0  8G 3G19G14G15G18G21G22G 9
  21661209.1584  -18734238.51649 -14573874.23447                  21661209.3624
        50.0004         37.5004
  23587250.4594  -10550705.68449  -9437199.55147                  23587248.9394
        40.5004         31.7504
  21379123.8294  -26826790.78949 -20868774.88347                  21379123.0424
        47.2504         38.5004
  20110519.0954  -18590042.84449 -14464617.30148                  20110518.5384
        48.0004         42.0004
  21573780.1414   -7585735.84849  -5902456.44147                  21573779.2934
        49.7504         36.5004
  21745162.3964   -7618916.83649  -5929635.10947                  21745161.1794
        49.5004         33.5004
  20638818.9014  -14539546.31249 -11311027.82048                  20638816.1364
        48.2504         42.0004
  23575535.4314  -13607850.63749 -10589497.27346                  23575537.1984
        43.0004         25.2504
 04  7 15 16 26 15.0000000  0  8G 3G19G14G15G18G21G22G 9
  21651730.6754  -18784049.08649 -14612687.67247                  21651730.9574
        50.2504         37.5004
  23570510.3234  -10638677.48849  -9505749.00447                  23570508.4204
        39.5004         31.5004
  21362607.3514  -26913585.10949 -20936406.80547                  21362606.7184
        48.0004         38.0004
  20099552.0004  -18647676.77349 -14509526.86748                  20099551.2134
        49.0004         42.0004
  21569784.3714   -7606734.07049  -5918818.70747                  21569783.5774
        50.0004         36.7504
  21741921.4934   -7635947.71949  -5942905.96547                  21741920.4914
        49.2504         33.5004
  20630623.9684  -14582611.58249 -11344585.18448                  20630620.8124
        49.2504         41.7504
  23563746.0384  -13669803.42649 -10637772.15647                  23563747.9984
        42.5004         27.5004
 04  7 15 16 26 30.0000000  0  8G 3G19G14G15G18G21G22G 9
  21642278.4164  -18833721.73449 -14651393.63347                  21642278.3474
        50.0004         37.5004
  23553786.1384  -10726560.16049  -9574229.01247                  23553784.4104
        41.0004         30.7504
  21346110.4434  -27000276.46549 -21003958.48847                  21346109.5714
        48.0004         38.0004
  20088601.3354  -18705222.88349 -14554367.99248                  20088600.6754
        49.0004         41.5004
  21565795.4174   -7627698.65649  -5935154.76647                  21565793.6944
        50.0004         36.2504
  21738695.4334   -7652900.60249  -5956116.03547                  21738694.5924
        48.5004         34.0004
  20622439.9154  -14625618.56249 -11378097.12548                  20622436.7824
        49.5004         41.7504
  23551980.2784  -13731628.42649 -10685947.47347                  23551983.9394
        41.7504         26.0004
 04  7 15 16 26 45.0000000  0  8G 3G19G14G15G18G21G22G 9
  21632852.0544  -18883257.04349 -14689992.58647                  21632852.3634
        50.2504         37.0004
  23537079.6034  -10814353.90249  -9642639.70747                  23537078.5504
        39.2504         31.2504
  21329633.2164  -27086865.26249 -21071430.26647                  21329632.4904
        50.2504         38.0004
  20077667.5074  -18762681.46949 -14599140.92648                  20077666.4884
        49.2504         42.0004
  21561812.1694   -7648630.43449  -5951465.25847                  21561810.8644
        50.5004         36.7504
  21735484.3954   -7669776.11749  -5969265.82047                  21735482.9254
        49.2504         34.7504
  20614266.8244  -14668567.96949 -11411564.20348                  20614264.1124
        49.7504         42.0004
  23540239.5084  -13793326.00449 -10734023.50047                  23540242.6524
        41.0004         26.0004
 04  7 15 16 27  0.0000000  0  8G 3G19G14G15G18G21G22G 9
  21623452.2154  -18932653.46149 -14728483.30547                  21623452.6514
        49.5004         37.0004
  23520390.8434  -10902056.82449  -9710979.63747                  23520389.1304
        40.2504         31.5004
  21313175.7914  -27173349.68449 -21138820.70347                  21313175.2244
        46.0004         38.0004
  20066750.3704  -18820050.83649 -14643844.34048                  20066749.5074
        48.0004         41.7504
  21557835.2574   -7669527.80549  -5967748.93447                  21557834.2404
        50.5004         36.7504
  21732287.9294   -7686572.78149  -5982354.15647                  21732286.8504
        48.5004         33.7504
  20606105.1854  -14711458.31249 -11444985.25848                  20606102.1604
        50.0004         41.7504
  23528523.7974  -13854894.30149 -10781998.78946                  23528526.0214
        41.0004         25.5004
 04  7 15 16 27 15.0000000  0  8G 3G19G14G15G18G21G22G 9
  21614078.7714  -18981912.16849 -14766866.71947                  21614078.7354
        49.5004         37.2504
  23503718.5654  -10989669.92249  -9779249.57447                  23503717.1394
        40.5004         31.0004
  21296738.3054  -27259730.69949 -21206130.57047                  21296737.2334
        48.5004         37.5004
  20055850.0394  -18877331.97349 -14688478.99248                  20055849.6114
        49.0004         42.0004
  21553865.0364   -7690392.16049  -5984006.89547                  21553863.4364
        50.2504         36.5004
  21729106.3434   -7703291.80949  -5995382.01247                  21729105.2904
        48.5004         33.2504
  20597954.3394  -14754291.04749 -11478361.42248                  20597951.6324
        49.2504         41.5004
  23516832.1024  -13916334.32049 -10829874.11747                  23516835.1644
        41.5004         26.0004
 04  7 15 16 27 30.0000000  0  8G 3G19G14G15G18G21G22G 9
  21604731.6604  -19031031.77749 -14805141.75047                  21604731.5494
        50.7504         37.5004
  23487064.0104  -11077191.57049  -9847448.26647                  23487061.8494
        40.5004         31.7504
  21280320.2474  -27346006.58249 -21273358.52047                  21280319.7064
        48.0004         37.7504
  20044966.8574  -18934523.32849 -14733043.69148                  20044966.2534
        49.5004         42.0004
  21549901.6004   -7711222.29749  -6000238.19147                  21549899.8784
        50.2504         36.7504
  21725940.1584   -7719931.75049  -6008348.22747                  21725939.0854
        48.7504         34.0004
  20589814.8094  -14797064.78949 -11511691.62148                  20589811.8284
        50.0004         41.7504
  23505165.4004  -13977644.32849 -10877648.12547                  23505168.4114
        42.7504         26.0004
 04  7 15 16 27 45.0000000  0  8G 3G19G14G15G18G21G22G 9
  21595410.7594  -19080013.86349 -14843309.60547                  21595410.5474
        49.7504         37.5004
  23470426.0144  -11164622.77749  -9915576.48447                  23470424.2974
        41.5004         31.7504
  21263922.0324  -27432178.69949 -21340505.60547                  21263921.8004
        48.0004         38.0004
  20034100.4604  -18991626.27049 -14777539.49648                  20034099.7924
        48.7504         41.7504
  21545943.6994   -7732019.77749  -6016444.03547                  21545942.4454
        50.2504         37.0004
  21722788.1454   -7736494.20349  -6021254.06647                  21722787.5044
        48.2504         34.2504
  20581685.9504  -14839781.22749 -11544977.16448                  20581682.9454
        49.2504         41.5004
  23493522.8224  -14038825.75449 -10925321.95747                  23493526.0484
        40.7504         26.0004
 04  7 15 16 28  0.0000000  0  8G 3G19G14G15G18G21G22G 9
  21586115.7654  -19128857.60249 -14881369.68447                  21586115.8104
        50.0004         37.5004
  23453805.2374  -11251962.53149  -9983633.43747                  23453804.5114
        42.2504         31.5004
  21247544.2814  -27518246.07849 -21407571.08647                  21247543.5354
        48.0004         38.0004
  20023251.2634  -19048639.83249 -14821965.65248                  20023250.6804
        48.7504         41.7504
  21541992.4124   -7752784.10549  -6032624.05947                  21541991.2644
        50.0004         36.5004
  21719651.4294   -7752978.43449  -6034098.95747                  21719650.6574
        47.0004         34.5004
  20573568.1564  -14882439.63349 -11578217.48848                  20573565.0464
        49.7504         41.5004
  23481905.4974  -14099877.50049 -10972894.72347                  23481908.5974
        41.5004         26.7504
 04  7 15 16 28 15.0000000  0  8G 3G19G14G15G18G21G22G 9
  21576847.8724  -19177562.24249 -14919321.35947                  21576847.6944
        50.0004         37.5004
  23437203.1564  -11339209.73649 -10051618.21547                  23437201.9344
        39.0004         31.2504
  21231186.2594  -27604207.57449 -21474554.05147                  21231185.8044
        49.5004         38.0004
  20012419.3534  -19105562.96549 -14866321.34848                  20012418.5144
        48.7504         42.0004
  21538047.6504   -7773514.34049  -6048777.48847                  21538045.9884
        49.7504         36.5004
  21716529.6264   -7769383.65249  -6046882.27047                  21716529.0314
        47.5004         33.2504
  20565462.1234  -14925039.33649 -11611412.06648                  20565458.9664
        48.5004         41.7504
  23470312.2994  -14160798.51649 -11020365.62546                  23470314.9324
        40.7504         25.5004
 04  7 15 16 28 30.0000000  0  8G 3G19G14G15G18G21G22G 9
  21567605.7094  -19226129.18749 -14957165.73847                  21567605.3614
        50.0004         37.2504
  23420618.0464  -11426365.26249 -10119531.65647                  23420616.6104
        39.2504         31.2504
  21214848.5504  -27690064.23049 -21541455.32047                  21214847.5774
        48.7504         38.2504
  20001604.1924  -19162396.74649 -14910607.41448                  20001603.5134
        49.5004         41.5004
  21534108.8154   -7794211.88349  -6064905.46547                  21534107.7384
        50.0004         36.5004
  21713422.5124   -7785711.14849  -6059605.02347                  21713422.0454
        48.2504         33.7504
  20557366.4544  -14967581.85949 -11644562.09048                  20557363.2344
        50.0004         41.7504
  23458743.2284  -14221589.78949 -11067735.41046                  23458746.8414
        40.7504         25.0004
 04  7 15 16 28 45.0000000  0  8G 3G19G14G15G18G21G22G 9
  21558390.1724  -19274557.15249 -14994901.82047                  21558390.0484
        50.5004         37.7504
  23404050.4804  -11513427.57049 -10187372.40647                  23404049.4874
        41.0004         31.2504
  21198530.5774  -27775814.43749 -21608273.65647                  21198529.6234
        49.0004         38.5004
  19990806.2664  -19219139.64149 -14954822.66848                  19990805.7174
        50.2504         42.0004
  21530176.7024   -7814875.69949  -6081007.15647                  21530175.0974
        50.2504         36.0004
  21710330.6694   -7801959.61349  -6072266.20747                  21710330.5534
        47.7504         34.5004
  20549281.9994  -15010065.89149 -11677666.54748                  20549278.7934
        50.7504         41.7504
  23447200.7964  -14282249.80549 -11115002.95346                  23447203.2684
        41.0004         24.7504
 04  7 15 16 29  0.0000000  0  8G 3G19G14G15G18G21G22G 9
  21549201.0634  -19322846.85549 -15032530.18047                  21549200.7274
        49.5004         37.2504
  23387501.1024  -11600397.10949 -10255140.87547                  23387498.9034
        39.7504         29.0004
  21182233.0674  -27861458.82449 -21675009.52347                  21182232.0624
        49.5004         38.2504
  19980025.5594  -19275792.24649 -14998967.55548                  19980025.2354
        49.5004         42.5004
  21526250.6654   -7835506.70349  -6097083.28147                  21526249.3444
        50.0004         35.5004
  21707253.4434   -7818129.91049  -6084866.46547                  21707252.6734
        48.5004         34.2504
  20541208.4664  -15052492.31649 -11710726.10548                  20541205.5064
        49.7504         41.2504
  23435682.4064  -14342779.18449 -11162168.68746                  23435685.1584
        40.7504         23.2504
 04  7 15 16 29 15.0000000  0  8G 3G19G14G15G18G21G22G 9
  21540037.8624  -19370998.64849 -15070051.06247                  21540037.9194
        50.2504         37.0004
  23370968.1684  -11687273.95749 -10322837.11747                  23370967.0134
        39.0004         30.0004
  21165955.1674  -27946997.48449 -21741663.00847                  21165954.5104
        49.5004         38.2504
  19969262.0714  -19332354.74249 -15043042.23448                  19969261.6764
        49.7504         42.0004
  21522330.6424   -7856105.28949  -6113134.14147                  21522329.5824
        49.7504         36.0004
  21704191.3534   -7834222.34049  -6097406.06247                  21704190.7614
        47.0004         33.5004
  20533146.1264  -15094861.59449 -11743741.13748                  20533142.8234
        50.2504         41.2504
  23424188.6784  -14403177.87949 -11209232.58646                  23424191.3414
        40.7504         24.5004
 04  7 15 16 29 30.0000000  0  8G 3G19G14G15G18G21G22G 9
  21530901.1714  -19419013.08649 -15107464.92647                  21530901.2134
        50.5004         36.7504
  23354453.8614  -11774058.32049 -10390461.27347                  23354452.3754
        41.0004         29.7504
  21149698.0234  -28032430.67649 -21808234.30947                  21149697.2634
        49.2504         38.2504
  19958515.6804  -19388827.44949 -15087046.94948                  19958515.1924
        48.0004         42.0004
  21518417.2124   -7876672.05149  -6129160.21547                  21518416.0344
        49.7504         36.5004
  21701143.4324   -7850237.45749  -6109885.41047                  21701142.7524
        48.5004         33.5004
  20525094.0634  -15137174.40649 -11776712.16048                  20525090.7464
        49.0004         42.0004
  23412720.2154  -14463446.21149 -11256194.90647                  23412722.9114
        40.0004         25.7504
 04  7 15 16 29 45.0000000  0  8G 3G19G14G15G18G21G22G 9
  21521790.3594  -19466889.85549 -15144771.50847                  21521790.4864
        49.5004         36.7504
  23337957.2594  -11860749.46549 -10458012.81647                  23337956.5574
        39.7504         31.0004
  21133460.8244  -28117757.71949 -21874722.90647                  21133459.8214
        49.7504         37.7504
  19947786.4784  -19445209.81249 -15130981.26648                  19947785.9544
        49.7504         42.5004
  21514509.4834   -7897206.80949  -6145161.34047                  21514508.3034
        50.5004         36.0004
  21698110.6284   -7866174.94949  -6122304.27347                  21698110.2044
        48.0004         33.7504
  20517053.1694  -15179430.56249 -11809639.04748                  20517049.8714
        50.0004         42.0004
  23401276.2234  -14523583.63349 -11303055.21946                  23401279.2064
        40.7504         24.7504
 04  7 15 16 30  0.0000000  0  8G 3G19G14G15G18G21G22G 9
  21512706.1574  -19514629.50449 -15181971.23847                  21512706.1424
        49.7504         37.2504
  23321478.3774  -11947347.65649 -10525491.91847                  23321477.2654
        40.0004         31.2504
  21117243.8924  -28202978.91449 -21941129.01647                  21117242.9734
        50.2504         38.5004
  19937074.1814  -19501502.17249 -15174845.45348                  19937073.8354
        48.7504         41.7504
  21510608.1254   -7917710.17249  -6161138.01247                  21510606.7064
        50.5004         36.2504
  21695092.8444   -7882035.44149  -6134663.12547                  21695092.1174
        47.7504         34.0004
  20509023.0394  -15221630.65249 -11842522.24248                  20509019.6754
        50.0004         41.5004
  23389857.1024  -14583590.39149 -11349813.70746                  23389860.4104
        40.5004         25.2504
 04  7 15 16 30 15.0000000  0  8G 3G19G14G15G18G21G22G 9
  21503647.5134  -19562231.21149 -15219063.48447                  21503647.8334
        49.5004         37.2504
  23305017.1904  -12033851.64549 -10592897.60247                  23305016.1664
        39.5004         30.5004
  21101047.2224  -28288093.22749 -22007451.84847                  21101046.2254
        49.5004         38.2504
  19926379.6244  -19557703.53949 -15218638.72748                  19926379.4154
        49.2504         41.5004
  21506712.3604   -7938181.29749  -6177089.55947                  21506710.9104
        50.0004         36.2504
  21692089.5134   -7897818.04749  -6146961.29747                  21692088.4544
        48.5004         33.2504
  20501003.3754  -15263773.79749 -11875361.06248                  20501000.2364
        50.5004         42.0004
  23378462.9334  -14643465.25449 -11396469.42246                  23378466.3944
        40.5004         24.5004
 04  7 15 16 30 30.0000000  0  8G 3G19G14G15G18G21G22G 9
  21794408.0034  -19609693.68749 -15256047.24247                  21794408.5764
        50.0004         37.2504
  23588366.8824  -12120257.27049 -10660226.64847                  23588365.8804
        41.2504         31.2504
  21384663.7994  -28373096.60949 -22073688.23847                  21384662.8434
        49.5004         38.5004
  20215494.7754  -19613811.79749 -15262359.44948                  20215494.8334
        49.0004         42.0004
  21802615.4884   -7958620.94949  -6193016.57047                  21802613.9554
        50.0004         36.0004
  21988893.6374   -7913523.58249  -6159199.41047                  21988892.6124
        47.7504         33.5004
  20792786.9914  -15305859.28949 -11908154.96148                  20792784.0144
        50.0004         42.0004
  23666887.8764  -14703205.99249 -11443020.61347                  23666890.8454
        41.7504         26.0004
 04  7 15 16 30 45.0000000  0  8G 3G19G14G15G18G21G22G 9
  21785402.0054  -19657022.05549 -15292926.49647                  21785402.1774
        49.5004         37.2504
  23571941.8754  -12206574.53549 -10727486.84047                  23571940.4284
        40.7504         32.5004
  21368507.5004  -28457998.83649 -22139845.80147                  21368506.5694
        49.5004         38.7504
  20204834.5914  -19669832.98849 -15306012.33248                  20204834.2944
        49.7504         41.7504
  21798731.3344   -7979030.64149  -6208920.25047                  21798730.0284
        49.7504         36.0004
  21985919.1284   -7929152.94949  -6171378.17247                  21985918.2234
        48.0004         34.0004
  20784788.4884  -15347891.56649 -11940907.38348                  20784785.6024
        51.2504         42.0004
  23655543.3064  -14762819.14549 -11489472.40646                  23655546.3104
        41.5004         24.2504
 04  7 15 16 31  0.0000000  0  8G 3G19G14G15G18G21G22G 9
  21776421.7014  -19704213.37949 -15329698.96547                  21776421.8294
        49.5004         37.0004
  23555533.7134  -12292797.59849 -10794673.64547                  23555532.1474
        40.7504         31.5004
  21352371.3714  -28542794.21149 -22205920.10947                  21352370.5554
        50.0004         39.0004
  20194191.3164  -19725763.44149 -15349594.51248                  20194190.3424
        49.5004         41.7504
  21794853.5444   -7999409.28149  -6224799.72747                  21794851.9834
        50.2504         35.5004
  21982959.9134   -7944705.33249  -6183496.94947                  21982959.2534
        47.7504         33.5004
  20776800.7584  -15389868.22749 -11973616.46948                  20776797.5214
        51.2504         42.0004
  23644224.9984  -14822300.64849 -11535821.60946                  23644227.2834
        41.7504         24.7504
 04  7 15 16 31 15.0000000  0  8G 3G19G14G15G18G21G22G 9
  21767467.6854  -19751268.01249 -15366364.93047                  21767467.8184
        50.0004         36.5004
  23539144.4964  -12378926.48049 -10861787.05147                  23539142.1554
        41.5004         31.0004
  21336255.6374  -28627482.97749 -22271911.33647                  21336255.1384
        50.0004         39.0004
  20183565.2544  -19781603.34049 -15393106.12948                  20183564.8284
        50.0004         41.5004
  21790981.6114   -8019757.33649  -6240655.37147                  21790979.7684
        50.0004         35.0004
  21980014.7844   -7960181.09449  -6195556.01647                  21980014.3374
        48.0004         33.5004
  20768823.2904  -15431789.69949 -12006282.55948                  20768819.9834
        52.2504         42.2504
  23632930.9884  -14881650.63749 -11582068.34046                  23632932.9184
        41.7504         25.5004
 04  7 15 16 31 30.0000000  0  8G 3G19G14G15G18G21G22G 9
  21758539.2734  -19798186.67249 -15402924.92647                  21758539.1334
        50.0004         36.7504
  23522772.2844  -12464961.42249 -10928827.27347                  23522769.7324
        41.5004         30.5004
  21320160.2764  -28712065.36349 -22337819.67647                  21320159.2854
        50.2504         39.0004
  20172956.3194  -19837353.10949 -15436547.50448                  20172955.9244
        49.0004         42.0004
  21787114.9634   -8040075.60949  -6256487.80147                  21787113.0564
        49.7504         35.5004
  21977084.4044   -7975580.92649  -6207555.91847                  21977083.8854
        48.0004         33.7504
  20760856.1164  -15473656.73449 -12038906.23048                  20760853.0654
        51.0004         42.5004
  23621661.1864  -14940869.54749 -11628212.93446                  23621663.9784
        41.5004         22.7504
 04  7 15 16 31 45.0000000  0  8G 3G19G14G15G18G21G22G 9
  21749636.9814  -19844969.35249 -15439378.97347                  21749636.7954
        50.0004         37.0004
  23506418.2084  -12550902.16449 -10995794.07447                  23506415.8654
        42.2504         31.5004
  21304084.9604  -28796541.21149 -22403645.00047                  21304084.0814
        50.2504         38.2504
  20162364.7054  -19893012.53949 -15479918.49648                  20162364.4994
        51.2504         41.7504
  21783254.2114   -8060364.25449  -6272297.14847                  21783252.5694
        50.0004         35.0004
  21974168.2884   -7990904.87149  -6219496.69147                  21974167.8814
        48.2504         33.5004
  20752899.6734  -15515469.46549 -12071487.59048                  20752896.5354
        52.2504         42.5004
  23610418.0114  -14999957.12149 -11674255.19146                  23610420.2614
        43.2504         25.5004
 04  7 15 16 32  0.0000000  0  8G 3G19G14G15G18G21G22G 9
  21740760.3714  -19891614.98449 -15475726.23047                  21740760.1614
        49.5004         37.0004
  23490082.0644  -12636747.18449 -11062686.28147                  23490080.5924
        41.5004         31.2504
  21288029.9614  -28880909.07449 -22469386.18047                  21288029.5284
        50.0004         38.5004
  20151790.4704  -19948580.05949 -15523217.86348                  20151789.9334
        50.0004         41.7504
  21779399.4324   -8080622.03549  -6288082.44547                  21779397.6414
        49.7504         35.2504
  21971266.8484   -8006151.74649  -6231377.40647                  21971266.3934
        47.2504         33.0004
  20744953.4014  -15557226.80949 -12104025.78148                  20744950.2614
        52.0004         42.0004
  23599199.3144  -15058911.83249 -11720193.89847                  23599202.2634
        43.0004         26.2504
 04  7 15 16 32 15.0000000  0  8G 3G19G14G15G18G21G22G 9
  21731910.1294  -19938123.50449 -15511966.64147                  21731910.1274
        49.5004         36.7504
  23473765.1574  -12722496.27049 -11129503.73847                  23473763.4124
        42.0004         31.0004
  21271996.3804  -28965168.73049 -22535043.03147                  21271995.7164
        50.0004         38.5004
  20141234.0854  -20004055.65249 -15566445.60248                  20141233.4874
        50.0004         42.0004
  21775550.5694   -8100849.24249  -6303843.92647                  21775548.7364
        49.5004         35.5004
  21968380.0484   -8021321.67249  -6243198.16447                  21968380.0274
        47.7504         33.0004
  20737017.7334  -15598928.89149 -12136520.91448                  20737014.9064
        52.0004         42.0004
  23588005.7394  -15117733.50449 -11766028.96147                  23588008.9064
        43.0004         27.5004
 04  7 15 16 32 30.0000000  0  8G 3G19G14G15G18G21G22G 9
  21723086.0224  -19984495.14849 -15548100.40647                  21723085.9614
        49.2504         36.5004
  23457465.5344  -12808149.30049 -11196246.31247                  23457464.5324
        42.0004         31.5004
  21255982.4514  -29049320.12549 -22600615.53547                  21255981.8874
        50.0004         38.7504
  20130694.8714  -20059439.37149 -15609601.76248                  20130694.2224
        50.0004         42.0004
  21771707.1224   -8121046.16849  -6319581.80547                  21771705.2894
        49.7504         35.2504
  21965507.3404   -8036414.89849  -6254959.15247                  21965507.4464
        47.5004         32.7504
  20729092.6674  -15640575.94149 -12168973.16448                  20729089.6464
        52.2504         42.7504
  23576837.7164  -15176422.14549 -11811760.35947                  23576840.8594
        43.2504         28.0004
 04  7 15 16 32 45.0000000  0  8G 3G19G14G15G18G21G22G 9
  21714287.3774  -20030730.57849 -15584128.02747                  21714287.3804
        49.0004         37.0004
  23441184.4444  -12893706.52749 -11262914.30547                  23441183.3384
        42.7504         31.0004
  21239989.6134  -29133363.63349 -22666103.97347                  21239988.9164
        50.5004         39.0004
  20120172.9294  -20114731.52349 -15652686.55548                  20120172.6804
        51.0004         42.0004
  21767869.4644   -8141213.43449  -6335296.57447                  21767867.8654
        50.2504         35.5004
  21962650.4954   -8051431.83649  -6266660.70347                  21962649.9814
        48.0004         32.2504
  20721177.7194  -15682168.64549 -12201383.07048                  20721174.5214
        52.7504         42.0004
  23565695.1124  -15234978.14149 -11857388.39147                  23565697.3254
        43.2504         27.5004
 04  7 15 16 33  0.0000000  0  8G 3G19G14G15G18G21G22G 9
  21705515.0424  -20076829.90249 -15620049.59047                  21705515.2514
        50.0004         36.7504
  23424922.1504  -12979167.67249 -11329507.40247                  23424920.7924
        43.0004         31.5004
  21224017.3554  -29217299.07449 -22731508.19547                  21224016.6394
        50.2504         39.2504
  20109668.9614  -20169932.04749 -15695699.96148                  20109668.1984
        50.2504         41.7504
  21764037.0264   -8161351.23049  -6350988.37547                  21764035.6274
        50.0004         35.5004
  21959807.3854   -8066372.63749  -6278302.92247                  21959806.7474
        47.2504         32.7504
  20713273.1404  -15723707.25849 -12233750.82848                  20713269.8954
        52.5004         42.2504
  23554577.4524  -15293401.27049 -11902912.90247                  23554580.1484
        43.0004         28.0004
 04  7 15 16 33 15.0000000  0  8G 3G19G14G15G18G21G22G 9
  21696768.7664  -20122792.41049 -15655864.54347                  21696768.4754
        49.2504         37.0004
  23408677.6194  -13064531.63349 -11396024.77347                  23408676.3004
        43.0004         31.2504
  21208065.8014  -29301125.50049 -22796827.47747                  21208065.0194
        49.5004         39.0004
  20099182.0904  -20225039.96149 -15738641.19548                  20099181.5934
        50.0004         42.0004
  21760210.9744   -8181458.78949  -6366656.61747                  21760209.6774
        50.2504         35.5004
  21956978.5474   -8081236.66449  -6289885.30547                  21956978.1534
        47.2504         32.5004
  20705379.3344  -15765191.11349 -12266075.91848                  20705375.9894
        52.2504         42.2504
  23543484.8324  -15351690.58249 -11948333.13347                  23543487.8404
        43.7504         28.0004
